GFSMA_sfc_rhum_003.txt.gz
RH
97 97 81 66 63 60 62 59 58 53 56 55 51 54 53 60 58 64 75 73 71 59 53 52 57 60 57 58 60 64 69 69 69 72 71 73 73 72 74 77 78 79 78
88 58 56 55 54 62 59 54 52 53 54 54 45 49 51 46 54 58 65 62 62 54 55 56 49 48 47 49 53 55 56 56 54 54 54 56 62 70 66 68 71 72 76
44 46 50 56 61 54 50 45 44 50 51 44 47 48 51 46 56 49 50 49 61 58 57 46 46 45 46 49 47 48 51 52 51 50 50 54 57 58 61 64 68 72 70
43 47 56 60 54 48 49 45 50 49 55 53 52 51 52 45 53 34 40 44 58 45 52 43 47 44 49 47 46 46 46 47 47 49 54 55 55 56 64 66 66 67 66
42 48 55 56 49 50 51 48 45 53 58 49 44 50 50 50 51 26 38 38 48 39 51 42 50 48 49 45 45 45 46 47 50 54 54 51 54 56 57 58 59 61 62
43 47 50 50 47 49 52 49 47 50 60 60 48 44 51 59 47 34 44 31 40 32 52 38 54 49 49 45 44 45 45 43 44 48 50 49 51 51 53 54 54 55 55
43 45 51 50 50 49 52 47 53 55 56 62 67 59 61 57 46 33 44 39 36 36 43 37 41 45 52 45 43 43 42 42 47 48 48 50 53 54 53 54 53 52 54
41 41 48 50 47 47 45 47 54 54 56 62 64 72 64 58 51 25 40 42 36 45 34 34 42 44 52 45 45 43 42 48 50 50 49 51 53 55 55 54 53 52 54
42 43 44 46 47 49 50 48 51 49 52 52 60 52 52 64 53 49 31 42 28 48 34 48 45 43 49 41 47 48 47 46 50 51 55 56 55 55 55 55 54 52 52
41 41 41 42 44 48 44 44 41 49 53 52 58 45 55 59 64 60 52 31 47 32 43 53 44 54 45 45 45 46 44 46 49 54 55 55 56 57 57 56 55 54 53
38 39 39 39 40 46 43 42 43 41 50 51 57 60 57 58 61 68 46 46 38 34 31 36 56 37 46 40 51 53 44 46 50 54 58 58 58 59 59 58 57 56 54
42 36 35 37 37 39 41 44 41 40 44 46 50 52 57 58 57 58 55 47 44 34 41 34 37 50 45 53 48 45 47 47 52 54 58 60 59 59 59 59 58 56 56
39 36 35 33 35 35 38 40 41 42 43 46 47 50 55 56 56 58 52 49 47 42 40 44 43 45 42 52 55 50 49 49 50 54 59 61 58 57 57 58 59 58 57
36 34 32 31 31 32 35 38 45 46 41 49 46 49 54 55 58 59 54 59 63 50 47 53 52 50 51 55 58 48 42 48 50 54 57 58 56 56 55 56 57 57 59
29 30 30 30 32 34 36 38 45 43 45 48 50 51 51 55 59 61 63 62 69 78 71 56 57 51 56 58 52 44 45 52 52 55 56 55 55 56 55 55 54 54 53
28 29 30 33 35 37 38 40 45 46 46 48 44 49 52 58 62 69 67 66 70 76 84 60 59 56 56 47 52 49 51 56 59 60 57 55 52 53 53 54 56 63 66
29 30 33 36 38 39 40 44 45 43 46 48 50 54 59 63 70 63 67 71 74 74 81 69 62 61 66 65 59 59 63 73 66 60 55 54 52 53 54 55 59 62 61
32 34 36 38 40 42 45 46 47 48 50 52 52 60 66 51 70 68 72 73 72 71 77 88 71 60 57 57 60 88 71 50 50 50 55 54 55 55 56 61 60 61 59
36 37 39 42 43 47 47 47 47 49 52 53 57 62 66 71 72 69 70 72 71 64 67 70 71 64 68 72 71 74 57 53 45 52 56 60 60 62 59 57 58 61 67
39 40 41 43 47 47 45 44 51 54 56 55 60 66 69 71 71 68 65 64 62 67 67 75 84 88 71 78 82 65 60 58 61 50 58 70 61 58 60 60 58 57 57
39 42 44 47 48 43 32 51 54 55 56 56 59 62 62 65 59 56 52 59 60 66 76 96 78 89 78 67 65 65 68 69 76 85 64 59 59 61 62 63 60 61 61
42 47 50 50 51 36 48 48 51 62 58 59 64 64 67 66 66 59 60 61 60 66 78 91 95 77 69 68 67 77 89 86 85 61 69 71 64 67 66 65 66 65 62
49 52 52 52 52 52 47 49 53 62 66 69 66 67 63 51 65 70 72 70 82 93 70 69 67 69 72 76 94 92 89 92 85 71 78 82 68 72 65 57 66 66 66
52 54 52 53 55 45 50 51 55 66 70 71 69 69 68 68 72 64 80 89 79 73 62 53 60 70 77 66 61 64 83 93 86 70 65 91 70 73 66 65 70 71 69
55 53 54 54 54 56 53 55 57 68 69 70 67 68 68 72 68 73 68 76 62 58 54 66 69 64 62 64 66 79 93 93 85 69 62 76 76 78 73 72 68 71 68
51 52 51 54 57 55 58 57 56 62 73 69 70 70 73 65 65 67 62 61 76 69 88 80 61 63 64 65 68 69 92 96 93 90 64 88 84 83 90 67 76 68 68

GFSMA_sfc_rhum_006.txt.gz
RH
97 97 63 55 55 59 57 52 49 51 47 45 42 47 50 44 58 63 71 67 56 58 57 52 52 51 50 54 57 56 58 57 56 56 56 59 61 64 64 67 72 75 76
72 55 55 55 51 56 49 45 49 52 46 46 38 46 52 44 57 48 55 61 50 57 50 49 49 48 51 52 50 51 52 53 52 52 50 54 58 57 58 64 65 65 65
46 49 52 51 53 49 44 43 44 51 46 41 41 47 50 47 41 41 41 54 55 52 48 48 48 49 51 50 50 50 49 50 48 50 51 55 55 55 58 65 66 67 67
43 47 54 53 48 49 47 44 50 48 52 50 47 49 52 49 40 33 38 50 46 44 48 47 47 48 49 47 48 49 47 48 51 55 56 53 52 56 57 58 60 61 62
41 48 53 50 48 50 49 46 47 53 58 47 38 48 52 53 42 30 40 42 36 44 49 42 45 47 46 47 46 47 48 46 45 44 48 51 51 52 52 53 54 54 55
45 51 50 47 46 50 48 46 47 50 64 60 46 45 57 63 46 38 46 37 37 42 47 39 51 50 48 47 46 46 46 44 44 44 50 49 48 52 54 54 53 54 53
45 48 51 48 48 48 48 46 51 52 51 61 62 55 61 58 58 48 40 44 38 40 42 39 37 47 54 50 46 43 44 44 46 49 51 51 50 52 54 55 55 54 54
44 44 48 48 45 46 45 47 51 50 51 60 57 70 59 51 47 28 42 42 36 45 37 31 37 37 51 58 51 44 43 45 48 51 52 52 54 55 56 56 56 55 54
44 44 44 45 46 49 50 50 49 48 52 50 62 49 44 54 65 54 42 44 30 48 38 46 38 36 49 54 50 50 49 46 48 52 53 55 55 55 56 56 57 56 55
43 42 42 43 45 48 44 44 41 50 52 53 56 44 53 58 56 61 50 31 45 32 45 47 37 48 51 48 50 48 49 46 47 50 52 55 56 57 58 58 57 56 56
40 40 39 40 42 48 43 41 43 43 51 52 56 58 59 60 66 64 48 48 38 36 35 40 50 35 37 48 54 56 50 45 49 52 56 58 60 60 60 59 57 58 56
44 38 37 38 38 41 41 44 43 41 46 47 52 54 58 57 60 60 64 49 48 43 39 37 42 50 51 54 49 48 50 49 50 56 60 60 60 60 60 60 58 57 57
41 37 35 34 36 37 40 41 43 44 45 48 48 51 57 58 58 61 63 59 58 49 48 48 46 50 42 47 49 52 49 51 54 57 62 63 59 58 58 59 60 60 59
39 35 34 32 33 35 38 40 48 48 45 52 48 50 55 56 59 61 65 67 68 58 46 58 52 52 56 52 55 52 47 53 54 57 60 59 57 57 58 58 58 59 58
30 32 32 33 35 37 39 41 48 46 49 50 52 53 54 56 62 66 69 74 76 78 64 64 69 55 62 58 59 49 50 56 56 56 57 56 61 60 57 57 56 56 56
31 31 33 35 37 39 41 44 48 49 48 52 49 52 54 60 64 72 78 75 76 80 87 62 63 62 63 55 58 53 55 58 59 61 63 61 55 53 54 55 55 55 55
31 34 36 38 40 42 45 47 47 45 51 53 54 57 58 61 71 75 76 76 78 80 88 72 63 63 62 55 53 56 59 61 67 84 63 55 54 54 56 56 56 59 64
36 37 39 40 43 46 48 47 47 51 55 57 57 62 65 49 69 74 76 76 78 76 82 85 77 66 60 59 62 73 62 64 68 56 58 56 56 56 57 60 67 65 67
38 39 41 44 47 49 46 45 50 55 58 59 61 64 65 70 75 75 75 75 75 67 74 79 73 65 65 74 71 74 75 64 48 53 57 59 60 61 63 64 60 61 62
40 43 46 47 48 47 44 44 56 60 61 59 61 65 67 71 74 74 72 68 61 67 64 70 74 79 84 85 72 64 60 59 61 52 62 64 62 62 62 61 61 60 60
44 48 48 49 50 44 32 55 60 64 65 65 66 64 64 68 61 57 53 60 64 70 79 94 94 88 74 63 65 64 68 68 71 65 62 60 61 62 62 65 63 64 65
48 50 51 52 52 38 50 50 52 69 66 66 72 69 70 68 67 64 65 65 66 97 92 83 82 71 66 66 65 76 91 85 87 62 68 77 68 66 63 62 65 66 65
52 54 54 54 54 54 51 52 53 65 68 73 69 68 65 55 69 70 74 71 93 69 64 62 67 68 70 76 96 92 89 89 83 71 76 87 67 69 60 54 65 66 67
55 56 55 56 57 48 55 54 56 67 72 73 70 72 74 72 72 69 75 94 76 72 60 54 64 73 81 67 64 66 83 92 82 67 63 91 70 71 62 60 68 69 68
57 58 55 57 60 62 58 58 59 70 69 71 69 72 74 75 69 67 74 79 65 63 55 66 74 66 65 67 68 75 92 93 84 69 62 73 71 74 69 68 64 68 64
53 53 54 60 63 64 63 61 59 67 75 69 69 74 68 63 64 75 66 62 77 69 85 82 62 65 67 69 69 68 84 96 93 91 62 88 83 82 90 64 72 65 67

GFSMA_sfc_rhum_009.txt.gz
RH
77 68 52 50 45 37 32 31 30 25 22 22 22 28 26 33 28 33 37 63 61 55 54 54 52 52 57 55 53 55 55 56 56 56 58 63 66 66 65 66 66 70 74
72 56 48 45 38 31 28 28 28 27 23 22 20 27 27 29 27 26 33 34 56 52 52 52 52 55 52 52 53 52 51 53 52 51 50 53 56 57 57 60 64 66 67
49 47 40 36 34 31 26 26 26 29 24 21 20 26 27 27 24 27 29 29 33 48 48 47 47 48 49 50 50 51 50 50 52 57 59 57 55 58 59 63 62 63 64
46 42 41 35 32 30 28 28 27 28 27 25 24 26 28 34 23 24 28 25 31 29 35 45 44 44 47 48 50 50 48 50 49 50 48 50 56 55 55 56 58 58 58
37 36 35 36 30 29 29 26 28 31 29 28 26 25 31 36 24 24 24 27 29 29 28 35 42 41 41 44 48 49 48 48 48 48 49 53 53 51 52 53 54 55 56
36 35 34 32 29 30 27 27 27 30 33 34 26 25 40 43 31 28 22 25 25 29 28 30 27 26 40 45 48 49 47 48 47 48 48 51 52 53 53 54 55 55 54
36 37 34 31 31 30 30 26 30 30 32 36 27 27 31 34 36 34 22 26 26 27 28 23 23 22 24 43 49 49 46 47 48 49 50 52 54 54 54 55 55 55 55
35 34 34 33 32 31 30 31 34 30 32 38 30 37 31 24 26 19 29 27 24 24 25 21 23 22 25 27 38 45 47 48 49 49 50 52 53 55 55 55 55 55 55
33 33 33 31 34 34 35 35 35 34 32 35 34 28 26 28 32 28 27 29 22 26 22 26 24 23 25 28 35 37 45 48 51 50 51 53 53 54 56 55 55 55 55
34 32 33 32 32 32 32 31 30 35 36 35 34 28 30 32 29 29 28 23 28 23 26 26 24 25 26 27 35 45 51 50 50 51 54 55 56 57 57 57 57 56 55
33 32 31 33 32 32 32 32 34 33 35 34 36 36 36 34 40 40 30 28 28 26 27 27 28 27 27 30 33 40 47 51 53 55 58 59 59 60 60 59 57 57 56
32 32 31 31 31 31 32 34 37 37 36 36 37 38 37 35 33 36 36 35 36 30 30 29 29 29 30 33 38 49 52 54 56 59 62 62 61 61 61 62 65 61 66
31 30 29 27 28 33 35 35 36 36 35 36 36 35 38 38 37 38 43 42 42 36 31 28 29 30 32 38 36 51 54 55 56 60 64 64 61 59 59 61 61 66 71
29 28 28 26 27 29 31 33 36 37 36 38 38 38 38 38 39 41 44 48 48 35 30 29 29 33 38 38 46 56 42 53 56 59 60 59 56 56 56 62 68 70 66
26 27 27 28 29 30 31 33 34 33 36 38 38 39 40 40 41 43 46 47 49 51 46 34 40 35 40 42 46 41 40 53 57 56 55 57 56 59 66 60 54 55 56
26 27 28 29 30 31 32 33 34 35 35 38 37 40 40 41 42 46 50 50 50 54 59 43 45 44 43 41 47 42 41 55 59 61 62 59 60 58 56 55 55 56 56
26 27 29 30 31 32 32 31 32 35 40 41 42 45 44 42 44 46 50 52 54 54 61 54 48 47 46 47 41 43 48 50 51 62 60 59 59 56 57 60 62 61 61
28 30 30 32 32 34 33 31 36 41 43 45 45 49 49 42 48 48 52 53 53 53 61 67 58 54 48 45 48 55 55 45 44 52 59 58 58 58 59 61 65 68 70
31 32 34 34 34 35 32 31 37 43 45 46 47 47 47 48 48 49 53 56 56 53 58 66 62 51 54 59 68 52 45 41 36 51 57 60 61 63 63 64 63 63 63
34 35 35 36 37 34 33 33 43 46 48 49 50 49 48 50 51 55 55 54 53 54 56 60 71 79 65 55 53 50 50 49 50 45 55 58 61 60 62 62 62 62 61
37 37 36 37 37 34 29 44 48 50 53 52 50 48 49 56 63 58 53 56 57 63 83 89 77 68 61 52 53 53 58 61 60 57 54 52 50 51 54 61 60 63 64
39 38 39 38 39 33 50 52 50 48 52 53 52 49 51 63 61 66 65 64 65 91 95 83 77 58 53 53 55 68 76 78 80 51 55 62 55 55 52 50 61 64 65
39 40 38 39 40 41 52 54 54 48 53 53 55 54 54 50 63 59 66 71 92 71 65 59 56 54 59 64 92 90 81 75 73 62 65 72 55 58 50 45 62 64 66
40 39 40 41 44 42 57 55 58 51 53 54 57 55 57 58 62 65 63 95 72 59 51 49 54 63 78 66 62 64 75 85 71 57 54 81 56 58 51 51 64 66 67
40 42 41 45 46 50 58 60 57 52 54 54 54 55 58 57 62 61 73 83 55 51 51 62 72 68 65 66 67 71 85 89 79 61 53 63 59 61 59 60 54 62 63
42 42 45 48 56 50 62 61 56 52 56 55 54 53 62 61 63 69 64 55 67 60 76 74 51 52 56 57 67 60 80 95 90 88 50 81 71 69 80 48 51 56 56

GFSMA_sfc_rhum_012.txt.gz
RH
56 54 44 40 37 32 29 27 22 18 16 16 15 17 18 19 19 23 31 66 59 58 56 56 59 57 56 56 57 56 55 57 57 56 56 55 61 61 61 61 66 68 68
57 47 44 41 31 26 21 19 18 19 16 15 15 16 17 19 20 24 24 38 55 52 51 50 50 51 52 53 52 53 54 54 55 57 61 62 60 60 61 60 66 69 69
51 42 39 33 25 21 19 19 18 19 18 15 16 16 17 18 20 23 22 23 28 49 48 47 46 45 46 48 49 50 51 51 52 52 54 53 54 60 58 60 62 62 64
46 39 33 26 22 22 21 20 19 20 20 18 18 17 18 21 19 19 20 19 23 20 27 44 45 44 44 43 45 48 49 48 50 51 51 50 52 53 55 55 56 57 57
38 32 27 25 22 22 21 18 20 21 22 21 18 16 22 24 20 17 19 22 24 24 22 28 34 31 37 46 47 49 50 49 49 50 50 51 51 54 54 54 54 56 57
31 26 24 23 22 23 20 20 20 22 23 22 17 18 28 28 24 24 21 17 19 22 22 23 21 21 30 36 44 47 49 48 50 50 51 52 51 54 55 55 55 55 55
29 27 25 23 22 22 21 20 22 23 24 22 20 20 22 24 30 28 16 17 20 20 19 18 19 19 18 32 35 44 50 51 51 51 51 52 51 54 55 55 55 55 55
31 27 26 25 24 24 24 24 27 24 24 24 24 26 24 20 19 20 19 18 17 17 18 18 20 19 21 22 30 42 44 50 55 55 54 53 52 54 55 55 55 55 55
26 26 26 24 26 26 28 27 27 25 25 25 24 23 23 23 22 18 20 18 18 18 19 22 21 20 22 22 28 31 42 52 54 57 58 56 56 57 57 56 56 56 54
25 24 24 24 25 25 26 24 22 25 26 27 26 20 22 23 23 24 20 19 19 18 22 22 22 22 22 23 31 37 43 51 56 58 59 59 59 59 59 58 57 57 58
25 24 24 25 24 24 25 25 27 25 26 26 28 27 25 25 25 30 29 24 22 21 22 22 23 22 22 24 27 34 47 54 59 62 63 62 62 61 60 58 57 56 60
25 24 24 24 24 24 26 28 30 30 29 28 28 29 29 30 27 30 30 28 29 26 23 23 24 23 24 26 31 42 50 56 60 62 64 64 62 61 60 59 59 60 65
25 25 24 22 23 26 28 28 29 29 28 28 28 27 28 29 28 30 32 33 32 28 24 22 20 22 23 28 30 43 53 57 56 59 63 65 61 59 58 59 60 59 59
23 24 22 20 21 22 24 26 27 28 29 29 33 32 31 30 31 32 35 38 39 30 25 22 20 22 26 27 38 49 38 49 52 56 59 59 57 56 56 57 58 63 69
22 22 22 21 22 22 23 25 25 25 27 30 30 32 32 33 33 33 34 36 40 42 35 26 26 24 28 31 36 34 35 47 52 57 59 58 58 58 60 62 61 62 59
20 22 21 22 22 23 23 25 25 26 26 28 30 33 33 32 32 34 36 36 37 41 44 30 30 30 31 30 37 35 35 49 52 56 57 57 57 56 58 57 58 57 57
20 20 21 21 22 22 23 23 24 26 30 32 34 38 39 36 35 33 35 36 38 40 45 40 34 33 36 38 35 36 39 40 42 53 53 54 56 57 59 61 63 64 63
20 20 21 22 23 24 23 22 25 28 32 35 36 42 42 30 35 34 36 37 40 40 45 51 44 42 41 40 43 43 37 30 33 40 51 55 58 59 60 60 62 64 66
22 22 24 24 24 26 24 22 25 29 33 36 38 39 38 35 34 34 36 41 43 40 45 50 50 45 49 51 50 42 37 35 31 46 51 54 58 60 62 62 62 61 62
24 25 25 26 27 25 26 26 32 35 36 38 41 41 39 39 40 42 43 44 41 46 45 51 59 72 62 50 46 41 42 43 45 40 48 52 57 57 59 59 60 60 61
27 27 27 27 27 27 23 38 39 39 39 39 38 38 38 44 59 59 52 51 50 56 68 80 90 68 59 45 42 44 50 56 53 52 50 47 44 46 50 56 55 58 58
29 29 29 28 30 24 47 52 50 41 38 39 39 37 38 51 48 58 58 60 60 80 96 88 78 59 45 42 45 56 73 74 76 49 50 55 50 50 48 47 56 58 60
30 29 28 28 29 30 50 54 55 42 40 40 45 46 43 38 53 46 58 62 70 78 72 60 57 45 48 52 79 92 77 73 69 57 60 66 49 51 46 40 57 60 62
28 28 29 29 31 30 54 56 58 42 40 41 45 43 43 45 48 55 59 81 78 56 43 40 46 50 65 70 64 60 70 77 68 55 52 74 51 53 46 47 60 62 63
28 28 30 31 31 31 48 58 56 42 39 41 40 40 44 48 58 61 73 88 51 42 43 52 62 68 63 61 61 66 84 87 78 60 50 58 53 58 56 55 48 50 55
31 30 32 31 39 33 43 59 54 43 42 40 39 40 52 56 58 70 63 50 56 48 59 70 48 46 49 48 58 54 75 95 89 87 50 74 69 66 76 47 46 53 54

GFSMA_sfc_rhum_015.txt.gz
RH
52 46 48 45 41 36 33 31 26 20 17 17 16 15 17 17 18 23 44 68 61 57 56 56 55 55 55 55 55 55 57 58 58 58 60 64 65 63 63 64 63 68 70
53 50 46 41 36 31 25 20 20 20 19 17 16 15 17 18 19 23 28 45 55 52 51 49 47 46 46 46 48 50 51 53 53 54 54 56 56 57 61 60 64 66 64
51 47 41 37 31 24 20 21 20 20 20 17 17 17 17 18 20 23 25 30 43 50 46 46 45 44 45 45 44 46 48 50 49 51 53 52 53 54 55 56 59 59 60
48 43 38 32 25 24 24 23 21 23 23 22 20 19 20 21 19 20 24 22 29 24 40 36 37 37 40 45 48 48 49 50 50 51 52 52 53 53 52 57 56 55 55
42 36 35 29 24 25 24 20 23 24 26 26 22 20 27 26 22 18 20 23 26 28 29 34 34 32 31 36 44 48 50 51 51 52 52 53 53 53 53 54 56 57 55
36 35 29 26 25 26 24 24 24 25 26 26 18 20 30 29 26 24 22 20 20 24 26 29 29 28 32 30 37 40 49 52 51 53 53 54 54 54 53 55 56 57 56
36 35 28 26 25 26 25 23 25 27 29 26 28 28 28 24 30 28 26 20 22 21 22 23 25 26 24 32 32 38 47 49 55 55 55 56 56 54 54 54 55 55 55
36 35 30 29 27 29 28 28 32 29 30 28 28 35 33 27 24 22 23 21 20 23 23 22 24 24 29 30 36 38 40 49 56 58 58 58 58 58 58 57 56 55 55
35 34 30 28 31 33 35 34 32 31 34 31 26 30 32 33 28 26 27 23 23 24 22 27 25 25 26 29 33 34 37 46 56 59 59 60 59 59 59 58 57 56 56
35 30 28 29 29 30 32 30 25 29 33 33 30 20 24 26 29 30 27 25 23 20 24 26 26 26 26 29 32 36 39 46 56 60 64 63 62 61 60 60 58 57 55
34 31 26 30 29 29 29 30 30 28 28 29 32 32 28 30 28 33 38 32 27 25 26 26 26 26 27 29 34 36 39 47 56 62 65 64 62 61 60 59 58 57 55
33 27 27 29 28 29 31 32 33 32 30 29 31 31 33 34 33 36 37 35 34 31 27 26 27 28 29 30 30 39 42 49 57 61 63 64 63 62 61 60 60 58 57
32 29 28 26 27 30 31 30 32 31 29 32 31 30 30 32 31 33 38 40 40 34 30 25 24 24 21 30 32 39 46 50 52 56 62 64 60 59 59 60 61 59 59
28 28 26 24 24 25 26 27 30 32 30 33 36 37 36 34 35 37 40 44 47 41 33 28 25 23 27 29 35 42 38 46 50 54 57 59 58 57 58 59 61 61 59
26 25 24 24 23 24 24 25 27 26 28 31 34 36 37 36 38 38 39 41 46 51 45 34 31 29 30 31 36 34 36 45 49 52 53 54 55 56 57 57 58 58 60
24 25 24 24 24 23 23 24 26 25 26 30 32 33 35 36 36 40 42 40 41 46 51 37 36 33 32 31 37 37 38 47 49 51 52 53 53 53 55 56 58 60 62
23 23 23 23 22 22 22 23 23 25 28 30 33 40 39 39 40 38 39 39 42 44 50 44 40 38 40 41 38 41 46 42 42 48 49 50 51 54 56 58 60 63 63
21 22 22 22 22 23 22 21 23 24 28 32 34 45 46 32 39 37 38 39 41 41 49 53 48 47 46 42 45 54 45 34 39 40 48 51 54 55 57 58 59 61 63
22 22 23 24 23 25 24 22 22 25 28 32 36 37 39 39 39 38 40 44 46 42 49 54 55 49 50 52 64 50 45 42 33 45 49 53 55 57 58 58 58 58 58
24 24 25 25 26 24 25 25 29 32 35 38 38 40 38 41 41 42 49 51 48 54 54 58 64 71 71 71 55 52 47 47 50 41 51 53 56 56 57 56 57 58 59
26 26 26 26 26 26 23 38 40 40 39 37 37 35 37 44 49 52 53 58 58 61 70 83 80 81 70 57 55 49 53 58 59 64 57 55 52 52 54 57 56 57 57
29 28 28 27 28 23 46 51 52 46 40 38 38 36 38 50 45 50 54 55 56 70 84 85 94 72 64 55 50 62 73 85 88 56 60 60 57 59 56 54 55 56 58
29 29 27 27 27 28 46 52 55 47 43 41 47 49 46 36 51 47 51 55 64 66 70 64 62 56 55 56 74 84 85 79 75 65 65 76 64 62 54 45 56 58 61
28 27 27 27 30 30 46 52 57 47 39 40 47 43 43 45 50 51 58 76 75 70 56 43 49 53 61 68 90 87 72 78 70 65 62 84 62 63 55 55 61 62 62
27 27 29 30 29 28 40 51 56 46 41 41 39 39 41 45 51 55 61 83 69 53 46 51 55 62 63 58 57 61 82 87 84 69 61 70 67 69 65 65 58 54 54
30 31 32 29 31 32 34 48 53 47 47 43 42 41 47 48 53 56 64 60 67 58 59 67 62 54 51 51 54 56 73 96 92 90 62 81 84 78 87 59 59 60 63

GFSMA_sfc_rhum_018.txt.gz
RH
76 70 72 67 61 52 49 43 33 30 29 26 24 22 26 27 29 63 80 70 61 58 56 54 52 50 49 49 49 50 52 54 54 55 55 56 58 58 60 63 62 66 66
73 67 63 61 51 44 35 32 30 33 32 28 26 23 26 29 29 45 63 71 56 51 48 47 46 46 46 46 45 47 48 50 52 52 53 54 53 54 55 56 57 61 60
55 64 59 56 45 34 32 34 31 34 34 30 32 29 26 28 30 32 48 54 57 53 44 41 41 41 42 45 48 49 50 50 52 52 53 53 54 55 54 54 56 57 56
55 57 54 50 39 38 38 36 36 39 40 39 36 30 32 30 28 31 30 36 41 44 44 35 34 34 35 40 45 48 50 53 53 53 54 54 54 55 55 55 53 56 57
58 56 53 43 38 40 38 33 39 40 41 40 31 29 42 39 31 24 30 31 35 35 36 34 36 36 33 34 40 44 48 52 53 52 55 57 56 57 56 56 55 56 56
46 46 40 39 40 41 39 38 39 40 41 40 26 29 41 43 37 36 34 28 31 30 33 31 38 38 35 36 38 39 46 49 52 57 56 59 59 60 58 57 56 56 56
45 45 39 40 42 41 37 34 39 40 44 43 45 42 44 38 44 43 43 30 29 28 27 31 36 38 38 35 35 38 44 46 54 57 59 59 58 59 58 59 57 56 56
47 36 36 43 41 44 42 41 43 46 45 42 42 49 47 42 37 31 37 30 29 30 30 27 31 31 37 42 44 37 40 44 51 58 59 59 61 61 60 59 58 57 56
41 35 36 42 47 52 52 46 44 42 49 44 35 43 45 49 43 39 35 33 30 36 32 35 32 31 34 38 42 41 37 42 48 57 60 61 62 61 60 59 58 57 56
42 34 36 39 47 51 46 42 38 42 47 46 46 30 35 38 46 48 43 39 37 32 37 39 37 34 33 39 38 39 38 41 49 55 60 62 62 61 60 59 58 57 56
36 34 35 38 45 48 39 41 42 40 42 46 47 47 43 45 42 49 55 49 43 40 39 40 39 39 34 36 42 40 37 44 50 56 61 62 61 61 60 59 58 59 59
37 40 35 39 44 45 44 46 44 42 42 42 44 46 48 50 50 52 56 52 51 45 43 40 39 40 40 42 36 34 39 43 50 55 59 60 60 60 59 60 58 58 58
38 37 39 42 46 47 46 46 46 44 42 45 43 46 46 47 47 49 54 59 61 51 48 44 40 39 30 41 41 41 44 45 48 54 59 61 59 58 58 59 60 60 60
34 33 34 41 40 39 40 42 46 46 41 46 44 48 52 51 51 53 56 63 60 61 49 49 41 39 42 44 44 42 46 46 48 52 56 57 55 55 56 57 57 58 60
31 30 32 37 36 36 36 36 43 40 39 42 45 48 52 53 54 56 57 58 65 63 57 55 51 40 46 44 48 41 42 48 49 53 54 53 53 54 54 55 56 56 56
30 30 33 36 35 33 32 34 38 34 35 43 44 44 49 53 55 58 60 59 60 66 61 50 48 51 48 40 43 42 45 48 54 56 53 52 52 52 53 55 56 61 62
28 29 34 34 33 32 30 32 32 32 36 40 44 49 51 52 58 57 57 57 60 63 62 50 49 51 56 56 50 50 47 58 54 54 52 52 50 52 55 56 59 59 60
27 28 33 32 31 30 29 28 30 32 35 41 45 51 57 42 55 55 58 56 59 59 61 64 59 58 62 56 53 63 60 50 46 48 50 50 53 55 57 58 59 60 62
28 31 32 32 32 33 30 29 30 33 37 43 47 51 52 53 57 58 56 65 69 55 70 71 68 62 61 64 72 81 60 49 43 46 50 54 56 60 59 59 58 58 58
29 35 35 35 34 31 30 32 39 44 50 50 52 53 53 53 56 58 61 68 63 75 73 74 74 81 79 73 80 68 62 58 56 48 53 61 62 60 61 58 60 61 61
35 35 34 34 33 31 33 52 56 56 56 53 50 47 48 54 50 52 53 72 74 78 84 89 82 78 90 70 72 68 62 61 62 66 73 62 61 59 60 62 61 62 61
39 35 34 35 35 26 47 50 54 60 59 56 55 52 53 58 57 50 52 54 54 73 83 84 95 83 70 72 70 66 71 80 87 69 77 68 63 64 64 64 62 61 61
36 35 34 33 32 48 51 47 52 61 64 63 62 62 57 42 58 62 59 55 62 64 65 67 73 68 63 64 80 86 87 94 90 71 73 80 66 70 63 53 63 64 62
36 36 34 33 39 42 46 48 53 64 61 58 59 56 58 58 62 56 65 84 85 86 80 60 58 59 67 63 74 88 81 79 74 69 71 91 70 70 64 64 66 67 67
34 34 36 36 36 45 43 44 56 65 62 62 54 54 55 59 55 53 66 89 80 71 56 57 58 63 65 62 58 61 81 86 82 72 68 76 75 78 74 70 65 64 60
36 38 39 39 43 42 35 41 51 63 72 66 64 59 55 54 56 55 62 66 76 70 69 73 70 66 62 63 59 62 81 95 92 90 67 92 85 86 88 63 68 64 68

GFSMA_sfc_rhum_021.txt.gz
RH
79 84 89 91 82 62 53 39 35 33 32 27 26 25 28 33 73 79 88 73 64 58 54 50 49 48 48 47 47 49 50 51 54 53 53 54 55 56 56 57 58 61 62
80 79 73 66 53 41 36 34 33 36 35 32 30 27 28 33 58 74 77 76 57 48 45 44 44 43 44 47 49 50 51 52 54 53 54 54 54 56 56 55 55 56 57
72 67 63 54 43 37 35 32 37 37 38 34 34 30 31 32 38 62 64 65 61 58 43 38 39 39 40 43 46 48 50 54 55 55 55 56 55 56 57 57 56 55 56
63 62 59 47 42 42 38 37 40 42 42 40 37 33 36 34 34 40 51 56 55 52 42 35 34 36 37 38 43 46 49 53 53 54 57 57 58 58 58 57 57 56 56
54 56 54 47 41 41 40 36 43 42 42 41 34 34 46 42 34 30 35 38 41 41 39 38 41 37 37 39 43 43 45 51 52 57 57 60 60 59 60 60 59 57 57
54 54 47 43 42 42 42 43 42 46 43 43 29 37 47 48 41 38 35 33 33 33 35 34 40 38 35 34 38 40 44 45 49 55 58 59 58 59 60 59 58 58 58
48 43 44 42 44 43 41 37 43 41 45 46 42 44 50 44 45 42 45 37 31 32 32 35 38 39 40 36 35 37 42 45 47 52 57 59 60 60 60 60 59 58 58
47 41 40 43 42 44 44 43 46 49 48 46 42 56 45 42 38 36 40 32 31 34 32 29 33 33 39 42 44 34 35 40 47 50 56 58 60 60 60 59 58 57 56
44 42 42 40 39 51 52 45 46 46 50 47 40 44 41 46 47 42 40 38 37 37 38 42 35 34 35 38 41 40 36 38 44 49 55 58 59 59 59 58 57 56 55
42 41 41 42 42 52 48 46 42 47 52 47 49 36 40 41 41 38 44 44 44 37 42 44 44 39 37 42 42 43 36 38 44 50 55 58 59 59 58 57 56 60 64
40 41 42 45 41 44 44 43 43 43 46 50 51 49 46 50 47 49 52 51 48 43 44 47 45 44 42 42 46 46 37 40 45 49 54 58 59 58 58 56 57 57 57
41 40 38 42 40 38 45 50 47 43 46 46 50 50 51 50 52 53 58 58 55 51 49 46 47 48 46 48 41 43 41 43 47 51 54 57 58 58 57 57 57 57 59
50 40 38 39 44 43 51 51 50 45 45 48 45 50 51 50 51 53 58 63 66 61 54 51 48 47 36 48 49 45 47 47 49 52 56 59 57 57 57 57 57 57 57
40 42 39 38 40 41 48 48 52 52 46 51 47 51 54 53 55 57 58 64 71 67 60 55 50 49 49 53 48 47 54 51 51 53 55 57 56 56 56 57 57 56 56
42 37 35 38 36 38 44 45 48 40 42 48 48 51 55 58 59 60 62 63 66 73 61 62 57 49 53 53 53 47 48 51 53 53 54 56 56 54 54 55 55 56 60
34 37 35 34 35 35 40 43 42 40 39 46 49 48 51 57 58 62 63 62 64 70 68 58 55 58 54 46 50 50 55 52 55 60 60 56 54 54 54 54 56 56 61
35 35 36 37 36 35 37 40 40 39 38 41 46 50 52 54 60 63 62 61 62 68 70 61 60 62 67 65 60 56 54 56 63 61 56 55 54 53 55 56 57 58 59
36 35 35 33 31 36 33 34 33 36 38 41 44 53 56 46 57 59 62 60 65 68 76 71 72 70 69 69 61 65 60 57 62 54 55 53 54 56 57 59 60 59 59
32 34 30 32 32 36 33 32 33 36 39 45 50 53 54 57 61 64 62 66 73 59 78 80 77 70 70 70 76 75 80 64 50 53 53 56 58 62 64 62 61 61 60
33 30 31 34 38 35 34 42 46 50 53 54 54 55 56 58 60 63 61 68 66 79 84 84 82 84 79 72 84 76 71 68 60 46 53 59 64 64 62 62 63 63 63
36 33 32 34 38 39 38 53 56 58 58 57 54 51 52 57 52 54 56 73 78 84 90 94 92 85 86 76 72 71 70 63 63 67 69 72 71 63 64 65 63 65 67
34 34 35 39 35 37 54 55 58 61 59 61 62 60 58 60 57 52 50 51 54 78 94 89 93 81 78 74 77 67 73 81 87 69 84 72 67 68 66 66 66 65 64
37 36 36 36 45 54 54 54 55 60 66 68 65 64 60 46 62 64 63 56 60 60 61 71 83 80 78 67 79 86 91 96 86 73 75 79 69 72 65 57 65 66 68
57 52 37 39 49 52 54 52 57 68 67 63 64 62 62 64 67 63 69 82 81 85 84 74 74 70 71 68 78 78 73 78 73 68 68 86 69 71 65 67 68 68 68
48 38 42 39 47 57 47 49 59 66 66 69 62 64 65 67 60 57 68 88 82 79 60 60 60 64 66 63 61 67 84 88 85 72 65 77 73 79 74 71 66 67 62
39 40 42 43 44 44 40 40 51 65 73 72 69 67 65 59 58 58 66 76 84 75 72 76 76 70 62 68 63 67 82 94 94 92 68 91 83 83 89 66 67 66 68

GFSMA_sfc_rhum_024.txt.gz
RH
92 97 98 98 98 95 65 44 36 34 32 28 28 29 35 76 89 89 94 76 65 57 53 50 48 47 46 48 50 51 51 53 54 54 56 56 56 58 58 57 57 58 58
85 91 96 96 73 58 41 37 36 36 36 35 32 30 36 62 82 87 85 78 60 50 45 43 42 42 43 46 48 50 52 55 55 56 56 58 58 58 58 58 57 58 57
79 84 84 71 51 40 36 37 39 40 39 35 35 31 33 44 74 74 74 65 65 60 42 39 38 39 41 43 46 48 52 54 55 56 58 58 60 60 60 60 58 58 58
73 72 62 52 44 41 38 40 43 43 43 39 37 34 39 38 61 64 63 59 62 52 43 37 36 36 38 43 46 45 47 51 53 58 58 61 61 59 59 60 60 60 58
65 61 51 48 44 42 41 38 45 42 41 40 36 39 51 44 42 41 57 48 53 48 42 41 39 36 35 37 41 43 44 47 49 55 58 59 59 59 59 59 59 58 58
62 55 49 44 42 44 44 44 43 46 44 44 32 39 49 52 42 43 41 38 39 39 38 36 40 41 34 33 35 38 40 44 47 49 54 57 58 58 58 58 58 58 57
55 47 45 42 43 41 44 41 47 41 46 47 43 47 52 49 48 48 46 42 36 36 35 37 40 42 41 34 35 37 38 40 44 47 50 56 56 57 58 58 57 56 56
53 42 38 42 42 45 43 44 46 51 48 48 46 57 45 42 42 38 43 36 35 38 36 36 38 36 41 45 47 34 32 36 42 46 48 55 56 57 57 57 56 55 55
47 41 38 42 44 49 50 48 49 48 51 47 43 46 49 45 46 42 43 43 40 44 44 44 41 40 39 43 46 46 39 35 39 46 50 54 55 56 56 56 55 56 53
43 40 39 37 43 54 44 48 47 52 53 48 50 39 43 43 38 34 43 46 48 39 45 49 48 45 44 49 47 48 46 40 41 47 51 53 55 56 57 57 56 54 55
46 40 38 39 45 52 43 40 46 50 50 54 53 52 49 55 50 48 45 49 49 47 47 49 49 51 45 49 56 52 45 45 48 50 54 56 57 57 58 57 56 56 54
58 49 40 41 44 42 40 43 44 44 49 50 53 52 52 51 53 55 57 59 56 53 51 50 50 51 51 51 42 48 48 49 52 54 58 58 58 58 58 58 57 59 56
60 55 46 46 48 48 51 50 46 44 47 50 48 53 54 52 53 56 58 62 64 62 56 54 51 52 39 54 55 48 49 51 53 57 60 60 58 57 56 58 59 58 57
65 62 51 45 46 45 43 45 49 50 49 54 49 54 57 57 58 59 60 64 70 69 64 54 55 54 54 54 51 51 58 54 54 56 58 59 58 56 57 58 57 57 56
56 50 45 48 50 49 45 42 47 44 48 53 52 54 57 61 63 64 65 66 67 71 71 62 58 55 56 58 58 54 60 58 56 56 57 59 59 58 56 57 56 56 60
48 43 47 49 49 47 42 42 41 40 45 52 54 53 54 59 60 64 66 66 71 70 72 65 60 61 58 52 56 53 60 59 61 63 61 59 58 57 57 56 57 56 58
41 44 45 48 48 44 40 38 39 38 42 46 52 51 51 55 61 66 67 64 65 72 76 67 66 66 74 72 65 65 63 63 65 63 63 60 58 56 57 58 58 59 59
42 44 43 44 48 44 41 40 38 36 42 45 47 55 56 48 62 62 66 65 67 69 76 76 77 81 79 76 74 74 66 59 66 66 64 59 58 58 59 61 62 60 60
45 45 42 43 34 36 32 32 34 39 43 46 49 49 51 56 60 66 68 70 72 60 78 83 80 84 84 81 78 81 84 77 62 60 58 59 60 63 64 63 62 62 62
49 52 55 52 43 39 34 38 50 56 56 54 51 52 54 58 62 64 64 66 66 78 84 87 88 93 94 81 89 90 73 68 64 51 56 61 65 65 64 65 65 64 65
49 49 59 54 54 54 51 56 60 59 54 52 52 51 54 56 59 56 59 75 77 81 88 95 90 96 86 76 78 74 76 68 67 70 71 75 75 78 69 68 66 66 67
66 64 55 48 54 51 61 60 57 57 55 57 57 60 61 63 62 54 53 51 54 79 96 98 98 90 84 81 74 77 77 86 89 70 86 72 69 70 67 68 69 68 67
72 64 60 47 57 59 57 58 60 57 58 62 64 65 58 48 68 66 64 60 62 62 61 66 83 84 85 79 82 89 91 94 86 75 74 79 68 71 66 59 66 66 67
78 83 79 74 77 65 59 56 58 63 67 69 67 68 70 70 69 64 71 83 82 80 78 75 82 81 80 75 86 82 76 82 76 69 68 88 68 70 65 66 68 69 70
98 93 76 64 64 55 51 53 62 68 67 71 68 70 73 73 64 58 72 90 81 78 66 62 61 64 66 65 61 71 88 91 86 74 67 77 77 75 70 69 66 70 66
70 47 41 39 49 54 48 42 63 68 69 69 73 70 65 63 60 59 70 77 86 80 73 80 71 64 62 68 66 71 86 95 94 93 72 96 81 82 87 78 68 76 68

GFSMA_sfc_rhum_027.txt.gz
RH
99 99 98 99 98 97 81 60 37 35 31 30 30 33 62 90 92 96 95 76 67 57 54 50 47 47 48 49 51 53 56 57 56 57 58 60 59 59 60 59 59 59 59
97 98 98 98 98 94 53 42 38 36 37 35 33 34 54 85 90 90 87 78 64 52 46 44 44 43 45 46 48 50 55 55 56 56 59 59 61 61 62 61 60 60 59
95 95 97 98 84 57 39 40 39 40 40 36 34 35 42 80 85 84 74 69 68 60 45 40 42 41 41 46 46 47 50 53 54 59 58 61 61 60 60 60 60 61 60
85 94 95 90 52 43 42 43 43 43 42 38 36 37 42 55 76 74 67 63 64 54 46 39 37 36 38 40 43 44 46 48 51 56 58 59 59 59 59 59 59 58 58
80 82 80 65 46 44 43 41 46 41 40 40 36 46 54 47 69 57 63 56 60 47 51 41 40 36 35 36 38 40 41 44 47 51 53 57 57 58 58 58 58 58 57
74 69 61 48 44 46 44 43 42 47 43 43 36 46 51 54 48 58 55 41 51 41 41 38 42 42 37 33 36 39 40 40 44 46 49 54 56 56 57 57 56 56 55
66 60 50 39 38 37 43 40 44 39 45 49 48 51 52 53 50 51 50 48 40 40 37 40 42 43 43 44 43 40 38 37 40 44 46 49 55 55 56 56 55 55 54
62 52 45 38 37 42 44 45 48 51 48 48 48 58 49 44 45 42 46 38 40 41 41 39 41 41 44 48 52 46 44 36 39 43 47 49 54 55 55 55 55 55 54
60 51 43 40 37 41 45 47 50 48 50 48 47 50 52 47 49 44 45 44 42 46 45 46 43 43 44 49 53 55 51 44 42 45 48 51 54 54 55 55 56 56 55
67 51 44 40 37 42 45 45 48 55 52 48 52 38 45 47 39 35 44 48 50 41 46 50 49 47 45 52 54 56 48 46 47 50 54 55 56 57 57 56 56 56 54
76 59 52 44 39 42 44 44 51 54 52 55 54 53 50 56 50 44 40 47 51 50 50 51 52 50 48 50 53 54 49 51 53 56 58 58 59 60 59 58 57 57 54
78 70 62 58 47 51 51 51 47 46 48 54 55 54 53 51 53 54 54 56 57 54 54 54 53 52 54 53 43 50 50 51 54 56 59 60 60 60 59 60 60 57 55
74 67 65 68 64 60 57 50 47 44 44 50 46 54 55 53 55 56 56 60 60 64 58 56 54 55 42 57 60 50 53 55 57 60 62 64 62 60 60 61 60 58 58
71 70 69 66 66 60 53 49 52 53 45 49 45 49 59 58 58 59 60 63 66 70 67 53 56 57 57 59 56 53 64 57 56 59 62 62 61 60 60 60 60 58 57
73 70 68 62 59 55 54 53 54 50 44 51 50 51 61 64 65 66 66 66 64 67 69 61 58 58 59 60 62 61 63 61 61 62 62 62 61 60 59 59 58 57 58
69 65 62 61 56 56 52 50 48 42 46 50 52 50 55 62 65 68 70 69 70 68 70 65 61 63 60 53 63 62 66 62 64 65 61 61 61 60 60 58 58 58 58
68 64 60 57 51 51 45 48 54 49 50 48 50 53 51 58 66 69 71 67 69 73 75 68 69 66 72 73 69 72 71 71 71 66 65 64 63 61 60 59 59 59 59
63 60 54 48 48 49 52 51 49 51 52 51 56 61 56 50 63 65 65 66 68 71 74 76 79 81 82 79 81 82 67 60 68 66 68 64 62 60 61 61 61 62 64
63 58 49 50 52 52 54 58 63 55 47 47 46 49 52 58 61 66 69 72 72 60 77 84 82 86 88 87 87 85 87 85 65 63 62 62 62 64 65 63 61 62 62
57 54 49 53 55 59 65 71 69 63 62 53 54 53 52 56 62 62 64 68 66 76 82 87 86 94 95 88 94 92 76 69 69 56 60 64 67 65 64 65 67 67 66
67 66 70 74 74 73 66 71 66 62 56 52 52 50 54 57 59 63 64 75 79 83 88 95 92 98 95 88 82 77 81 76 74 73 74 77 81 74 72 69 67 67 68
70 75 80 78 82 79 85 80 65 56 54 56 58 56 60 59 62 57 57 56 58 84 95 98 98 98 93 86 82 82 84 90 88 74 85 74 72 68 66 67 69 69 69
82 85 86 88 86 78 72 70 63 60 57 58 59 61 56 51 69 68 66 60 65 62 62 75 85 86 86 80 84 90 91 94 86 73 77 81 68 70 66 59 67 67 67
90 93 99 99 99 97 93 96 78 62 61 65 64 69 72 74 73 70 73 85 83 82 77 73 83 81 83 78 85 94 86 84 78 72 75 88 67 71 65 66 70 69 69
96 98 98 99 99 99 83 77 62 62 62 65 66 72 75 77 68 60 73 90 83 79 65 62 61 64 67 65 62 71 90 94 88 75 68 77 78 75 68 68 64 69 66
100 95 96 94 91 70 56 52 63 64 68 66 73 68 65 63 60 61 76 81 87 81 75 80 74 64 63 68 66 73 91 96 94 92 73 95 80 83 91 78 73 75 65

GFSMA_sfc_rhum_030.txt.gz
RH
99 99 99 99 99 98 87 65 38 34 31 30 34 46 87 93 93 97 95 76 70 58 54 50 49 48 49 50 51 55 58 57 58 58 60 60 61 62 62 62 62 60 60
99 99 99 99 99 97 70 49 39 37 37 34 34 44 87 93 92 90 84 81 66 55 48 46 45 45 46 48 49 54 55 55 56 60 60 62 62 60 61 61 61 62 61
96 98 99 99 98 91 45 41 40 41 40 35 35 40 71 89 91 85 74 72 70 62 48 44 43 41 45 44 46 47 48 50 54 58 59 59 60 59 59 59 60 60 59
94 97 98 98 89 60 45 44 44 44 42 39 36 43 46 81 87 80 69 67 64 56 49 41 38 39 38 40 42 42 42 44 48 54 56 58 58 58 57 58 58 58 58
88 94 96 96 61 50 47 44 46 41 40 41 37 54 53 58 78 63 64 60 61 49 58 46 46 40 35 36 39 40 41 43 46 47 50 54 56 56 56 56 57 57 56
85 88 93 80 51 49 49 46 43 46 43 43 38 49 58 54 64 69 64 46 55 42 43 39 44 43 46 38 38 40 40 39 41 43 47 48 52 56 55 55 55 55 54
83 84 86 66 48 42 40 35 42 40 46 52 55 54 53 56 51 52 53 52 44 42 40 43 44 45 44 44 45 44 44 40 38 41 44 47 50 54 54 55 54 54 54
85 78 66 58 45 42 38 37 45 50 48 53 50 59 50 48 49 45 52 44 44 43 43 41 43 43 48 50 55 49 48 44 40 42 44 48 51 53 55 54 54 54 55
81 69 64 54 45 41 42 38 46 46 50 49 51 53 54 51 55 48 48 46 44 49 48 47 45 45 45 52 61 62 48 46 46 48 50 52 54 55 55 56 55 55 55
85 69 66 65 45 43 43 41 42 53 50 49 52 40 47 52 46 40 46 49 49 42 47 52 50 46 50 56 52 53 50 51 52 54 56 58 58 58 58 58 57 56 56
83 78 72 71 57 60 46 46 52 49 53 55 57 55 51 55 48 43 41 48 52 53 51 51 54 51 48 53 55 56 50 52 54 56 57 58 59 60 60 59 58 57 57
91 83 75 68 68 65 66 57 53 52 51 53 57 55 55 53 52 51 49 53 52 51 56 56 55 54 55 55 46 50 52 54 57 58 62 63 62 62 62 62 61 60 58
93 81 78 76 74 73 74 72 68 62 56 52 46 50 54 52 56 55 54 59 55 61 60 58 58 57 46 58 62 50 56 56 57 61 64 65 63 62 62 62 62 61 60
87 82 74 74 72 72 72 64 69 66 55 62 47 48 55 53 55 56 57 62 62 68 68 53 55 58 57 59 57 53 66 58 59 61 63 64 63 63 62 62 61 60 59
87 82 79 76 77 71 66 62 60 58 60 65 59 51 54 58 62 59 61 62 57 57 64 56 56 57 60 60 60 67 70 64 60 60 62 62 60 61 61 60 59 59 58
85 84 78 76 78 69 61 54 50 49 50 62 61 53 53 60 60 63 65 66 65 65 66 64 59 62 59 51 62 67 71 64 65 63 63 62 62 62 61 60 60 59 59
83 79 74 74 71 66 55 50 49 48 50 53 56 55 54 56 64 68 68 70 71 72 74 69 68 66 69 69 69 74 76 78 77 66 65 64 65 63 62 61 61 59 60
76 74 71 69 62 54 47 48 49 60 66 66 67 72 66 47 59 63 68 69 69 74 72 76 76 77 80 78 80 85 70 61 70 68 69 65 64 63 64 63 62 60 61
72 69 63 57 55 55 54 55 59 66 69 76 75 75 60 55 59 63 63 67 73 60 76 79 81 86 88 89 89 88 89 88 74 67 65 66 65 66 67 65 63 62 62
65 61 57 57 60 62 67 74 76 78 79 77 78 73 66 61 63 61 60 63 65 72 80 85 88 94 93 88 94 94 86 78 73 61 65 67 67 66 65 66 67 68 67
63 63 68 71 74 76 77 84 84 83 84 79 73 65 63 61 60 61 61 72 75 82 88 96 92 97 96 96 90 81 85 80 80 78 77 80 81 78 72 71 68 67 68
75 78 79 81 84 82 83 80 76 78 78 82 90 84 69 62 63 57 56 55 65 89 94 97 98 94 94 92 94 89 88 93 89 77 90 74 71 71 67 68 69 69 68
87 89 90 89 91 90 86 88 89 92 95 94 85 67 57 53 72 68 65 62 64 62 63 82 92 91 87 86 89 93 94 94 91 77 78 82 71 72 65 60 66 67 68
92 95 99 97 98 95 94 96 98 97 94 92 75 72 73 71 72 72 76 85 82 82 79 74 81 82 86 84 87 91 90 88 83 74 78 92 67 69 64 66 69 69 69
99 100 99 99 99 100 97 89 88 70 62 62 64 68 71 74 69 61 74 92 83 80 65 62 61 65 66 65 62 74 92 96 88 75 70 80 78 75 67 67 64 68 65
100 100 100 99 98 99 91 89 64 59 63 65 73 66 65 63 59 60 76 78 84 79 77 82 76 66 65 69 67 75 95 98 95 94 76 93 81 82 94 77 69 78 66

GFSMA_sfc_rhum_033.txt.gz
RH
86 81 79 80 79 76 64 46 29 24 22 22 24 38 53 62 61 59 56 78 70 59 54 51 50 50 50 51 54 58 57 57 59 60 61 64 63 61 62 62 63 63 62
81 82 81 81 78 74 63 42 29 26 25 23 24 40 56 62 59 57 53 53 69 59 50 47 47 46 48 48 51 53 53 55 58 58 61 60 60 60 60 60 61 61 60
77 80 80 82 76 74 55 38 28 28 28 24 24 36 54 59 58 54 50 48 47 64 52 46 42 45 42 44 46 46 46 48 53 56 58 59 58 58 57 58 58 58 58
71 77 81 79 76 71 47 36 32 32 30 27 26 29 45 56 57 48 46 42 42 38 47 42 40 38 40 41 40 41 41 43 45 50 51 54 56 56 55 55 55 56 56
74 71 75 77 76 67 45 36 34 31 30 30 28 32 33 49 54 45 40 42 41 39 39 49 48 42 37 37 39 40 41 41 43 45 47 49 52 55 55 54 55 54 54
75 76 74 75 71 64 49 37 34 33 31 30 26 35 39 36 51 46 38 37 35 40 36 31 30 33 47 43 41 42 43 43 39 41 44 47 48 52 55 54 54 54 54
74 78 81 74 67 61 50 36 35 36 35 36 40 40 40 37 42 44 41 34 37 31 30 29 29 29 30 45 44 45 46 46 40 41 43 45 49 51 54 54 54 54 53
74 74 75 75 64 58 46 38 44 46 36 39 37 40 40 38 36 35 38 35 33 31 31 31 30 31 33 32 43 46 44 44 45 44 45 48 50 52 54 54 54 55 54
74 71 75 73 74 58 49 43 41 42 42 41 40 38 43 39 40 36 38 35 34 32 30 33 32 32 32 36 44 50 51 51 50 50 53 55 56 55 56 56 56 56 55
78 75 72 73 74 64 53 45 39 40 44 44 42 36 37 38 38 36 35 35 32 30 31 34 32 32 35 35 44 48 47 48 50 52 54 56 57 58 58 57 57 57 56
82 80 71 72 73 71 61 58 46 45 41 45 48 44 40 38 32 32 36 37 37 33 31 32 33 32 34 35 38 45 48 49 53 55 58 60 61 61 60 59 59 58 58
88 83 76 74 73 71 69 68 62 54 55 50 50 45 52 40 36 37 37 36 34 37 36 36 36 35 35 36 37 46 49 52 54 57 62 63 63 62 62 62 61 60 59
90 85 80 76 76 71 71 73 69 65 60 57 50 51 46 48 43 47 44 42 37 36 37 36 36 36 34 36 39 47 52 53 56 60 65 66 63 63 63 64 63 62 61
84 80 81 78 74 70 71 70 71 69 62 62 60 57 59 53 53 47 48 48 44 39 40 34 40 38 37 37 41 50 43 57 59 62 63 63 61 62 62 63 62 62 60
82 80 80 78 75 73 70 70 70 66 62 63 66 65 56 58 55 58 54 48 45 40 38 44 39 40 39 38 40 41 46 57 62 60 60 60 60 61 62 61 60 60 59
82 80 77 75 75 73 70 70 74 65 59 64 64 58 59 60 59 62 60 59 54 49 40 41 39 40 40 35 42 45 47 63 60 62 61 60 62 62 62 61 61 60 60
80 77 74 73 72 69 68 70 69 66 62 54 56 57 58 61 65 68 67 65 63 58 49 46 43 42 43 43 43 46 50 49 47 60 63 62 65 64 63 63 62 62 61
77 77 76 73 68 66 67 64 60 57 58 62 70 78 80 69 83 81 77 73 72 66 60 52 49 47 49 49 52 54 50 47 48 55 65 67 65 64 65 64 64 63 62
73 70 68 67 63 58 54 50 54 64 69 75 81 81 78 76 81 84 84 80 82 75 79 61 51 55 56 55 55 56 58 56 52 60 62 64 65 66 68 66 64 64 64
72 66 60 57 59 56 58 64 72 76 80 81 83 84 83 82 79 84 94 96 91 82 72 64 62 64 62 57 62 65 61 52 50 47 57 63 66 64 65 66 67 68 68
66 64 64 70 74 75 75 80 81 82 88 91 90 91 92 90 88 92 84 84 79 82 78 81 69 68 67 62 62 58 61 56 59 60 57 53 52 52 53 60 62 66 67
77 77 78 80 86 86 87 86 83 84 83 89 94 96 97 99 96 90 83 74 78 89 86 78 78 67 65 65 60 62 67 76 78 51 58 56 54 54 51 50 61 67 68
91 92 92 91 91 89 88 88 89 93 97 98 98 97 92 86 92 88 86 74 64 61 61 64 71 68 65 59 75 85 80 81 75 60 60 66 52 54 49 46 62 65 67
95 98 100 98 98 95 92 93 96 98 98 97 95 92 90 90 84 69 60 72 68 66 63 62 63 61 62 63 72 84 76 69 60 55 55 76 50 51 47 48 61 65 68
98 100 100 100 100 100 98 97 91 89 90 89 86 70 64 60 60 58 62 81 69 64 58 61 61 64 66 65 61 60 77 80 75 58 51 60 56 54 51 52 48 60 63
100 98 100 100 100 99 84 86 80 53 59 56 58 56 61 55 57 59 64 77 70 61 60 64 59 55 54 53 66 59 73 92 88 83 53 71 61 61 74 46 46 47 51

GFSMA_sfc_rhum_036.txt.gz
RH
57 54 55 57 56 49 47 46 36 27 22 20 20 23 27 30 32 37 45 79 71 60 54 52 52 52 52 54 58 56 56 58 61 61 63 62 61 61 61 62 62 61 62
53 54 57 63 59 54 47 44 35 28 23 21 20 23 28 33 33 38 40 52 71 62 53 49 48 48 50 51 54 52 53 55 58 59 60 60 60 60 60 60 60 60 60
51 53 58 68 61 55 50 44 34 27 25 21 21 24 29 32 35 36 37 39 47 64 56 48 45 49 44 45 46 45 44 47 51 54 56 58 58 58 57 57 57 58 58
50 52 54 64 57 56 53 46 37 32 29 25 23 22 29 34 34 34 36 35 35 32 51 44 44 41 41 41 40 40 40 44 45 48 49 52 55 56 56 55 56 56 55
50 50 52 54 54 58 54 46 39 34 32 28 24 22 26 32 35 32 32 33 34 32 30 47 46 41 38 38 39 40 40 40 40 44 45 48 49 51 55 54 54 54 54
56 54 50 53 53 60 56 47 41 33 32 29 18 22 26 28 33 34 29 28 29 32 31 32 32 35 46 43 41 41 42 43 42 40 42 46 48 50 53 55 54 54 54
57 59 53 53 55 60 58 49 43 38 34 28 30 30 30 28 31 33 30 28 30 28 29 25 24 23 29 42 40 42 44 43 44 41 43 45 47 50 53 54 55 54 54
62 62 60 60 56 59 58 54 46 42 36 34 34 34 37 33 29 32 33 29 28 27 27 25 24 25 28 25 39 42 41 42 43 45 46 48 51 54 55 55 55 55 55
64 62 65 64 59 59 60 59 50 46 43 38 32 34 39 38 34 32 36 34 30 29 26 27 26 26 26 26 38 46 49 48 49 50 52 53 56 57 57 56 56 56 56
68 65 65 65 67 63 60 58 57 46 45 45 39 32 34 34 37 40 33 33 30 28 28 29 26 26 27 29 40 47 45 46 47 50 54 56 56 58 58 58 58 57 57
80 72 69 70 69 68 62 63 56 48 44 46 46 40 37 37 33 35 37 37 32 29 27 27 26 26 28 29 31 42 46 47 50 52 56 58 60 61 61 60 59 59 58
83 77 74 72 69 69 68 67 64 61 52 48 54 52 48 42 40 39 35 35 35 33 30 28 28 28 28 29 31 47 46 48 50 55 58 61 63 63 63 63 62 61 60
83 84 80 76 71 70 72 71 71 68 72 65 57 51 44 43 36 38 34 39 35 34 33 30 29 30 28 31 31 46 47 51 52 56 61 64 63 62 63 65 65 64 63
63 71 76 76 72 68 68 70 72 74 68 69 61 57 54 50 42 52 45 56 51 43 33 31 30 30 30 31 33 46 34 44 56 58 62 62 61 61 62 64 64 64 62
62 63 70 73 77 75 72 70 75 74 74 71 67 63 58 58 51 52 51 45 60 62 48 34 34 32 33 33 36 32 31 44 55 60 60 60 60 61 62 63 62 62 61
65 72 70 72 76 78 78 77 78 73 72 80 71 65 63 57 59 58 65 62 63 58 51 47 39 42 39 30 33 37 35 49 56 56 60 61 60 62 63 63 62 62 61
76 75 73 73 73 76 76 80 80 74 71 72 76 81 81 75 70 71 71 72 76 80 81 80 58 59 65 65 50 40 41 39 39 49 54 58 60 64 65 64 64 64 63
74 76 74 74 71 72 71 74 77 73 69 68 69 68 60 63 81 85 90 88 91 87 83 90 90 94 90 75 64 52 43 40 40 46 55 61 64 65 65 66 66 65 64
71 72 72 73 71 69 69 70 68 67 64 68 76 74 81 87 91 91 92 94 96 93 96 93 94 74 77 74 78 60 49 43 39 50 51 53 58 61 64 66 65 64 64
67 66 64 64 61 60 57 58 68 78 82 84 86 87 87 86 90 94 98 100 100 98 96 86 73 72 78 75 71 62 52 44 43 35 45 53 58 61 65 65 65 66 67
60 61 66 69 70 68 68 74 79 84 87 91 90 90 94 92 93 98 97 99 98 95 88 86 82 87 81 61 51 48 51 47 45 48 49 45 43 43 45 51 53 58 60
69 80 81 81 85 82 83 82 82 88 88 90 96 98 100 100 100 97 97 94 86 89 94 90 87 70 51 48 48 50 55 62 68 49 48 50 45 46 44 43 51 56 61
91 92 92 91 92 91 88 89 91 94 98 99 99 98 100 98 97 88 88 88 87 82 77 64 63 53 52 50 65 78 68 71 73 57 53 56 47 48 43 37 52 56 60
97 97 100 98 97 94 90 92 94 99 99 99 97 91 87 87 85 82 70 70 65 59 54 50 54 52 53 51 56 74 73 70 55 48 47 69 47 47 42 42 52 56 58
98 100 100 99 100 100 98 99 99 96 87 83 76 73 63 56 54 57 57 72 58 54 53 60 60 60 63 63 61 58 70 76 70 56 47 54 50 50 46 47 44 51 55
100 98 100 100 99 100 92 81 63 66 64 55 50 50 57 50 54 57 58 60 65 57 52 51 46 48 49 44 54 56 66 84 82 81 48 66 59 59 75 47 44 45 47

GFSMA_sfc_rhum_039.txt.gz
RH
56 55 49 54 48 44 44 46 40 32 29 24 23 24 25 27 28 37 55 79 72 61 56 54 55 55 55 58 57 57 59 61 60 63 62 62 62 62 62 62 62 62 62
48 53 52 67 64 48 44 43 40 34 29 25 24 24 26 29 29 34 49 60 73 66 55 52 52 52 52 56 53 52 53 56 58 60 60 61 61 60 59 59 59 59 59
46 46 48 64 68 63 46 44 40 33 31 26 25 25 28 28 32 34 40 50 55 68 61 50 49 51 48 49 49 46 45 48 52 53 54 56 58 58 57 57 58 58 57
46 46 48 60 69 66 54 49 44 38 35 32 29 27 29 31 31 31 36 38 45 42 59 53 51 45 44 44 42 41 42 43 45 47 47 49 51 53 56 54 55 55 55
46 46 48 50 65 65 58 53 48 40 41 37 33 29 30 33 32 31 33 37 38 39 44 55 56 52 45 42 41 40 40 40 39 42 43 46 47 48 51 55 54 54 54
50 50 49 48 49 56 58 56 50 44 42 39 29 27 33 33 35 36 33 32 35 39 37 45 49 44 47 43 42 40 40 41 43 40 41 44 46 49 51 53 54 54 54
52 56 55 49 50 53 58 55 52 50 47 41 38 37 37 32 31 37 35 33 35 34 36 39 34 35 44 48 42 39 40 40 42 42 42 44 47 49 52 54 54 54 54
57 57 60 58 53 56 57 59 57 53 48 41 44 48 50 40 33 32 37 33 32 35 36 34 32 34 39 39 52 41 38 40 41 43 45 47 51 55 56 57 56 56 56
61 59 63 62 59 58 62 63 59 56 55 46 43 50 57 56 44 36 40 39 34 36 33 35 32 32 35 40 49 50 51 47 45 46 48 50 54 56 58 58 57 56 57
69 64 68 69 68 63 64 62 60 58 57 59 52 38 44 48 52 53 44 42 38 32 34 36 33 33 35 40 47 53 50 44 43 46 50 52 54 56 60 58 58 58 57
72 72 69 70 78 72 70 67 64 62 63 65 60 56 47 47 46 52 52 48 41 37 34 32 34 33 34 39 45 50 48 44 45 48 51 53 56 59 60 60 60 60 59
66 72 74 76 77 80 78 73 73 70 71 65 63 53 51 53 48 51 52 49 46 41 36 36 36 39 39 40 38 53 49 45 47 49 52 56 59 60 62 64 63 62 61
63 79 84 84 82 78 78 76 78 75 76 73 63 60 53 52 53 45 53 51 50 44 40 37 37 39 33 41 43 48 50 48 50 53 54 56 59 61 62 63 64 64 63
48 54 75 82 83 82 81 80 81 80 77 79 75 74 71 66 74 72 66 60 55 49 46 44 42 37 40 40 43 49 43 45 48 56 59 58 60 59 60 62 63 63 64
52 52 57 71 82 82 83 85 87 86 84 82 83 80 76 75 70 66 65 67 70 77 67 44 48 41 43 43 44 39 38 38 44 53 58 59 60 61 61 62 62 64 63
58 58 70 78 84 86 87 87 90 89 87 87 88 85 81 74 76 76 76 70 76 79 83 69 62 60 56 42 51 55 51 54 50 53 54 55 57 59 61 61 62 63 62
72 76 79 82 81 87 86 90 92 92 92 92 89 86 84 86 95 96 96 96 96 94 90 86 83 81 80 83 83 79 72 60 50 53 51 54 57 59 60 62 63 63 63
72 74 74 75 76 80 81 86 90 89 92 88 87 89 89 82 88 90 92 94 91 92 92 96 97 99 99 99 98 90 71 52 54 53 60 63 62 61 61 63 64 64 64
66 66 69 72 73 75 77 79 79 83 85 84 84 82 82 87 94 93 93 95 97 95 98 96 98 97 95 94 84 73 69 64 54 54 51 50 48 52 58 62 63 64 64
60 60 59 60 61 59 62 70 76 82 84 85 87 87 87 88 93 95 98 100 100 98 98 94 97 98 88 76 86 83 76 66 55 39 42 47 52 55 58 59 58 59 62
62 61 63 64 65 69 71 79 83 86 90 93 92 92 93 91 90 92 94 99 99 97 94 98 96 88 82 76 77 67 63 59 58 56 57 57 58 58 54 53 53 54 54
75 76 74 72 77 78 80 81 85 90 91 93 98 99 100 98 98 91 92 95 97 99 100 93 86 79 71 63 56 62 70 77 79 62 66 64 59 58 55 54 52 53 55
92 93 92 89 92 89 86 88 90 95 99 100 99 99 100 99 99 99 96 95 92 82 74 78 77 67 60 59 83 89 80 81 76 65 66 70 58 59 55 44 51 53 55
97 97 98 98 97 95 93 93 97 99 98 99 99 99 98 98 93 79 72 78 74 71 68 58 64 62 64 63 67 76 79 80 69 62 62 75 59 59 54 53 53 54 56
98 99 99 98 99 100 96 97 98 99 98 96 91 83 71 60 63 62 63 83 70 64 50 60 59 59 61 61 62 71 84 85 80 68 60 70 66 65 59 60 57 55 53
100 98 99 99 92 99 88 83 77 72 69 55 51 54 54 54 53 55 64 64 72 66 63 60 56 54 53 57 51 60 80 90 86 89 68 87 77 77 91 66 64 63 63

GFSMA_sfc_rhum_042.txt.gz
RH
76 72 70 67 66 78 78 77 70 55 46 40 35 36 37 41 42 77 90 81 74 64 59 58 59 58 59 59 58 59 61 60 63 63 62 63 63 62 62 62 62 61 61
77 74 70 70 72 77 69 69 65 55 48 41 36 37 38 42 44 78 80 83 75 70 60 56 57 56 58 59 56 56 57 58 60 60 60 60 60 60 59 60 59 59 59
68 72 73 82 80 70 77 66 62 55 50 39 41 38 40 43 46 56 74 76 76 71 65 54 54 55 55 56 52 50 50 52 54 53 54 56 57 58 57 57 58 58 57
62 67 72 84 86 81 72 77 70 61 55 48 46 43 44 46 46 47 63 69 70 63 68 62 56 54 51 50 47 45 46 46 48 47 47 49 50 51 54 55 55 55 56
60 64 70 80 84 87 77 72 71 59 59 57 49 47 46 51 48 42 50 58 66 66 66 61 66 61 54 48 46 45 45 42 42 43 42 45 46 48 50 52 54 54 54
62 65 67 71 77 83 83 74 68 67 64 61 39 40 46 50 52 53 50 47 53 58 61 60 63 56 59 48 46 45 44 43 43 41 40 42 44 45 48 50 52 53 52
68 74 68 68 71 76 76 72 76 71 72 63 54 52 52 42 43 55 52 52 50 48 58 58 58 58 56 51 49 45 41 41 41 44 42 42 44 48 50 52 53 53 53
80 76 77 77 72 72 76 74 73 78 73 65 58 64 64 57 48 43 56 48 49 50 49 50 49 51 56 62 55 44 41 40 41 43 44 45 48 53 55 55 56 56 56
87 86 72 86 86 79 77 78 80 73 73 71 56 68 78 72 59 51 46 57 47 52 49 46 39 37 46 55 56 52 45 48 48 46 47 47 49 53 54 56 57 57 57
84 82 84 80 80 92 86 87 87 81 77 64 69 54 67 62 61 57 52 54 50 44 42 48 40 38 40 57 53 61 57 49 44 44 46 49 50 52 56 57 58 57 58
86 86 84 86 86 85 89 95 93 85 72 72 68 86 82 65 64 68 65 55 53 50 47 42 40 40 38 45 58 63 58 50 45 47 47 49 51 54 57 59 60 61 60
89 90 86 81 86 92 88 86 91 91 84 79 76 90 82 78 75 75 78 66 55 55 51 47 41 41 44 45 45 57 55 50 48 47 49 50 52 56 59 61 62 62 62
84 93 92 89 84 86 94 93 94 92 85 84 88 80 81 82 80 70 74 69 64 60 50 50 47 49 41 48 60 62 55 50 48 49 52 52 54 57 59 59 62 62 63
68 69 94 95 94 93 91 95 93 92 91 88 85 89 86 90 89 90 86 90 89 77 63 54 49 46 48 46 55 56 54 52 50 49 54 57 57 57 59 61 61 62 62
71 77 85 92 93 93 94 95 96 96 95 92 90 92 91 91 91 89 88 90 87 93 90 87 86 85 68 68 65 55 46 45 42 44 50 58 58 60 60 62 62 62 62
84 89 91 92 91 93 95 96 97 96 98 98 98 97 96 92 91 90 87 86 92 93 96 93 93 93 87 71 60 68 62 67 69 68 61 57 56 55 57 60 62 61 62
73 78 86 89 84 88 92 96 97 96 97 98 98 98 94 89 93 94 96 96 98 98 99 100 97 94 88 80 83 86 86 86 83 74 66 56 56 58 61 63 63 63 63
76 76 77 78 78 81 86 89 94 93 96 96 95 94 94 87 96 95 95 95 96 97 97 98 98 97 98 97 95 94 79 62 60 56 58 58 62 62 59 56 57 62 63
80 76 74 70 71 74 79 82 86 90 89 91 91 91 92 91 96 96 95 97 98 97 99 98 99 99 100 99 99 93 81 73 62 63 61 54 48 49 52 56 60 62 63
75 75 74 74 75 76 78 84 84 85 88 89 89 90 91 91 94 95 98 100 100 98 98 95 97 99 99 98 96 94 89 80 82 56 47 49 52 54 56 55 55 55 57
80 81 81 84 83 80 81 87 89 89 91 94 93 93 95 93 88 90 94 99 99 98 98 99 98 97 96 99 96 89 93 80 70 68 74 73 74 74 68 60 57 55 55
89 84 84 84 87 82 81 83 92 94 93 97 98 99 100 98 92 89 94 95 92 98 99 98 97 94 86 84 87 82 91 96 94 76 83 70 75 71 74 72 59 56 56
97 97 96 93 92 90 87 89 92 96 98 99 100 100 100 98 99 99 97 96 94 85 79 87 90 89 79 76 86 94 86 95 94 83 83 79 79 75 74 54 57 56 57
97 97 98 98 96 93 90 89 90 96 97 99 99 99 99 98 98 92 92 93 86 81 77 67 80 78 76 76 78 84 86 92 87 84 81 92 80 73 70 75 60 58 59
98 99 98 98 100 99 87 86 94 97 98 98 96 94 91 91 81 66 72 90 81 79 54 58 57 57 56 58 64 84 96 97 94 88 78 84 84 83 79 69 74 61 57
99 97 99 97 86 96 70 63 76 90 93 88 72 66 52 57 54 56 76 82 86 77 75 68 64 65 63 63 52 70 95 96 98 97 83 94 94 94 96 87 80 72 76

GFSMA_sfc_rhum_045.txt.gz
RH
79 82 89 88 95 98 98 97 92 82 71 50 43 41 42 47 93 96 96 85 79 70 63 62 61 62 63 61 60 63 62 65 63 63 64 64 63 62 62 62 62 62 61
76 77 81 81 83 88 92 87 86 75 58 49 41 40 42 46 77 93 94 88 80 74 64 61 60 60 62 60 60 62 61 62 62 62 61 61 61 60 60 60 60 60 60
80 72 78 86 74 78 81 81 79 66 56 49 42 41 44 47 71 89 87 88 83 79 72 61 59 59 62 60 58 57 59 58 57 57 58 58 58 58 57 57 58 58 57
71 82 80 87 85 82 82 86 79 72 62 52 49 46 47 49 52 86 85 82 80 74 76 68 61 58 59 60 57 54 54 55 54 51 52 52 52 52 55 55 54 54 54
63 71 78 82 88 85 82 82 84 63 64 59 51 51 50 51 53 51 82 78 76 74 76 74 71 69 62 56 54 51 52 50 52 49 48 50 49 50 51 52 53 52 52
64 67 74 80 87 89 86 91 89 70 59 61 44 46 53 54 58 58 60 68 74 71 70 67 79 73 68 57 52 50 52 48 47 46 47 47 49 48 49 50 51 51 51
83 75 72 78 85 87 83 84 87 77 73 68 60 57 57 51 50 59 60 61 65 66 69 65 66 65 69 63 53 51 50 49 48 48 47 47 48 49 50 52 53 52 52
95 93 78 82 87 84 88 90 88 89 79 71 71 63 57 56 53 46 60 55 57 58 62 58 59 58 62 68 66 54 48 47 46 48 50 50 50 51 54 54 55 55 54
92 94 96 94 93 92 88 86 91 88 85 91 74 73 81 70 65 57 46 62 58 58 56 55 54 50 55 66 64 58 51 45 47 48 50 52 54 54 54 54 55 55 55
91 90 93 95 92 90 88 91 90 88 93 87 91 57 82 71 66 65 67 61 67 53 51 58 50 44 46 54 60 63 55 51 51 50 52 52 53 53 54 54 56 56 56
94 91 90 93 97 95 92 90 96 96 89 90 81 91 90 81 70 73 75 82 78 68 51 45 47 43 43 52 61 62 57 56 49 48 51 51 52 54 55 56 57 58 60
94 95 92 94 95 97 96 96 94 95 91 87 88 93 90 84 77 85 89 91 87 78 66 56 49 44 47 54 54 63 62 57 51 49 50 50 51 54 56 58 60 59 59
83 90 95 96 96 94 94 97 97 96 95 93 86 83 80 83 87 83 80 79 82 80 74 67 58 51 40 52 53 70 66 56 50 49 50 53 54 56 58 59 60 59 60
92 91 94 94 95 94 94 96 98 98 98 97 92 90 86 85 90 84 84 85 93 86 75 71 79 67 54 56 66 67 60 56 52 53 62 67 65 58 59 60 61 61 60
80 92 94 93 91 96 97 96 97 98 98 98 96 94 94 92 93 92 94 94 82 91 91 89 90 90 90 86 84 86 91 88 84 81 76 72 64 64 65 62 62 62 62
89 92 93 93 93 93 95 97 98 98 99 99 98 98 98 97 96 97 96 95 97 92 96 94 96 97 95 92 92 93 92 88 84 79 74 74 70 70 67 59 60 61 62
88 89 90 91 92 93 94 95 96 96 97 98 98 98 98 96 97 97 97 98 98 98 97 99 96 97 97 97 98 93 92 91 89 78 76 80 76 62 59 60 62 63 63
77 78 75 74 71 76 79 88 92 92 96 97 95 95 95 89 94 94 96 97 98 98 98 99 98 99 99 96 95 96 89 82 86 77 76 70 62 60 63 60 57 55 57
80 77 76 78 78 76 76 78 80 85 89 91 92 93 93 92 96 97 97 98 99 99 100 98 99 100 100 99 99 96 92 86 70 69 66 63 59 52 52 53 56 58 60
83 84 85 85 86 86 88 89 89 89 89 90 91 92 91 92 95 97 99 100 100 99 99 98 99 98 98 99 99 98 98 83 81 62 60 52 52 55 56 58 57 56 58
81 78 84 84 84 83 86 96 96 96 97 96 96 94 95 90 88 90 94 100 99 98 98 99 98 98 98 98 97 93 92 89 76 76 74 74 76 74 72 65 62 58 57
92 94 93 88 93 80 83 88 94 95 95 97 98 99 99 99 94 91 93 90 93 99 100 99 98 97 97 87 87 90 88 96 92 81 80 74 76 77 78 82 66 62 60
97 95 93 92 92 87 84 88 94 97 98 99 100 100 99 98 99 99 98 97 96 93 83 88 86 86 82 77 88 95 87 95 91 82 84 88 82 80 80 62 62 60 59
97 97 98 98 97 89 86 86 89 96 98 98 99 98 98 99 96 95 94 94 91 82 76 69 81 82 82 80 81 85 85 91 87 85 86 98 85 80 74 80 66 61 60
96 98 98 98 99 98 77 81 93 97 98 98 98 93 90 91 74 58 76 88 82 78 56 61 60 56 55 56 62 88 96 97 94 90 83 90 87 88 84 85 80 60 63
98 93 94 98 80 96 58 58 83 91 89 89 85 70 54 64 60 61 88 86 89 82 81 77 71 68 65 67 54 70 96 97 98 97 84 96 96 96 96 84 84 80 84

GFSMA_sfc_rhum_048.txt.gz
RH
92 97 96 98 98 99 98 98 97 92 79 70 56 50 45 52 88 98 98 90 82 74 66 64 62 65 63 61 63 63 66 64 64 65 65 65 64 63 63 63 62 62 62
85 86 90 92 95 98 98 98 97 96 86 70 53 45 44 51 91 96 97 95 85 79 70 64 63 63 64 62 62 64 65 64 64 64 64 63 63 62 62 61 61 61 60
83 80 82 86 83 87 96 98 96 94 79 59 49 40 44 48 67 95 96 96 91 84 76 66 64 62 64 62 62 63 63 64 63 62 62 61 61 60 60 60 59 58 58
78 82 78 81 80 80 84 92 91 91 77 64 52 46 46 50 56 94 95 93 92 84 82 74 68 63 63 63 60 60 61 60 59 59 59 58 58 59 58 57 56 56 55
70 76 78 77 89 85 84 87 92 83 80 70 56 52 52 53 56 68 94 91 89 86 87 80 78 73 69 64 61 58 58 58 57 54 55 54 54 54 55 57 56 54 53
73 77 79 82 88 93 88 94 90 87 76 70 50 47 57 57 60 65 85 82 85 81 80 79 88 84 76 66 61 57 55 55 55 53 53 53 53 53 53 54 55 55 53
91 85 86 89 94 92 86 90 90 92 84 75 56 54 55 54 55 64 66 79 83 77 79 75 77 84 76 70 65 56 55 54 52 51 51 52 53 52 52 53 54 55 54
96 95 92 89 91 84 94 95 94 94 93 88 82 63 59 58 55 48 63 61 70 76 74 71 75 72 73 81 76 64 55 54 52 52 51 51 52 52 53 56 57 56 57
94 96 96 96 94 91 89 93 95 95 91 96 91 86 76 73 71 62 53 59 63 70 76 78 70 66 67 74 70 69 67 56 50 48 51 52 54 54 56 56 56 57 57
96 95 95 97 95 95 93 94 93 93 97 96 96 82 91 77 71 77 68 64 71 64 68 80 71 68 62 62 68 72 69 58 49 48 50 52 54 56 55 55 56 58 58
95 96 95 95 97 97 96 94 96 97 96 91 95 94 96 94 88 82 79 82 89 79 70 60 64 62 54 53 61 68 65 55 49 50 51 52 53 54 53 54 56 58 60
84 91 96 97 96 98 98 97 96 97 96 95 95 93 84 88 80 84 88 92 86 81 76 62 57 54 51 57 56 64 68 55 54 50 50 51 52 58 56 58 61 61 60
94 96 95 97 99 98 97 97 98 98 98 98 96 92 87 81 90 86 88 92 92 86 75 72 67 67 62 77 78 72 72 60 55 60 61 59 56 57 65 67 66 64 61
96 94 95 95 96 96 96 96 98 98 98 98 97 94 91 89 90 87 85 90 97 94 92 79 79 67 64 64 70 78 80 72 63 59 66 68 75 82 84 80 74 69 67
84 93 94 93 94 94 97 98 98 98 99 99 99 97 94 92 95 94 90 93 92 98 98 90 88 89 88 84 78 88 91 84 84 86 87 85 85 87 85 82 76 72 70
93 94 94 94 94 95 96 97 97 96 98 99 99 99 98 98 97 98 97 97 98 96 99 91 95 97 94 90 92 93 93 88 88 86 85 86 87 87 84 81 80 70 63
82 81 86 89 91 93 95 96 96 96 98 97 95 99 98 96 98 98 97 97 98 99 99 99 97 98 98 99 98 97 95 97 95 88 85 84 84 82 81 78 64 62 62
79 80 79 79 82 86 88 92 94 94 92 94 94 95 95 90 95 94 96 96 97 98 98 100 99 99 100 99 98 98 94 88 92 87 87 85 81 81 70 66 65 63 59
85 84 84 86 87 88 90 92 86 86 87 89 90 92 93 92 95 96 96 98 99 98 100 99 99 99 100 99 99 98 97 94 86 85 89 83 77 73 68 58 55 56 58
89 92 93 94 94 93 93 94 95 96 95 91 91 92 92 93 95 97 99 100 99 99 99 98 98 99 99 99 99 99 99 98 97 80 68 61 59 56 57 58 59 60 61
96 95 94 92 90 81 85 97 97 98 96 97 97 97 97 91 86 90 94 100 99 99 100 100 100 99 99 99 98 99 99 96 80 79 72 72 74 73 72 64 62 60 60
88 89 87 81 86 80 83 89 93 94 95 97 98 98 99 98 97 90 91 93 94 99 100 99 99 97 98 98 94 93 94 90 89 81 80 78 75 74 76 80 69 65 62
94 95 95 94 92 88 84 89 95 97 98 99 99 98 97 93 96 98 94 94 96 93 91 96 95 92 86 79 86 96 90 96 92 83 89 90 87 80 79 67 66 63 62
96 97 98 96 96 87 83 85 90 97 98 100 99 99 99 98 91 90 96 92 89 86 81 71 86 87 82 82 83 86 88 93 89 87 89 97 90 86 80 82 69 64 63
96 98 98 96 96 92 69 74 91 98 98 98 95 91 85 85 59 60 84 91 88 80 61 65 64 60 57 57 66 90 97 98 95 91 85 90 90 92 88 89 82 66 62
98 95 98 99 81 94 59 64 75 82 84 80 72 65 65 69 64 66 87 89 88 85 83 81 75 71 69 69 58 74 95 97 99 96 85 97 96 96 96 80 87 82 82

GFSMA_sfc_rhum_051.txt.gz
RH
97 97 98 98 99 99 99 98 97 94 87 71 67 61 51 51 62 97 99 94 86 77 70 66 64 66 63 61 62 63 64 63 63 64 64 64 64 64 64 64 63 63 63
95 96 97 98 98 98 99 98 98 98 97 90 75 53 47 46 58 93 98 97 89 84 75 67 65 65 65 62 62 64 65 64 63 64 64 63 62 62 62 62 62 62 62
93 89 93 98 94 98 97 98 98 97 98 88 75 59 48 46 53 92 97 97 95 89 82 68 67 65 65 63 62 64 64 65 63 63 62 62 61 61 61 61 60 60 60
90 89 88 90 90 94 96 98 98 98 98 96 82 64 49 49 52 76 96 97 97 94 88 80 74 67 65 64 62 63 63 64 64 62 62 60 60 59 59 58 58 58 57
85 86 84 84 91 90 89 90 96 96 97 95 79 66 57 52 53 54 93 96 96 95 95 86 84 80 74 65 63 62 62 62 61 60 60 59 58 58 59 58 56 56 55
78 83 84 87 92 91 91 96 92 96 91 88 72 61 57 58 58 62 75 90 96 94 91 90 91 90 82 72 64 62 60 60 60 58 57 57 56 56 56 56 56 56 55
88 86 83 89 95 92 88 91 94 93 95 86 74 69 62 54 58 58 66 80 93 90 89 83 84 94 89 80 72 65 61 58 58 58 56 54 55 55 55 55 55 56 56
96 97 94 92 92 90 96 96 96 96 97 95 94 84 76 71 61 54 62 60 70 91 84 79 80 82 89 93 87 73 64 58 58 56 54 54 54 54 54 54 56 58 57
96 97 97 98 96 95 94 95 96 96 94 98 94 93 79 80 81 68 60 61 63 85 88 85 77 77 79 80 81 76 77 68 58 56 54 54 54 54 55 55 58 57 57
96 97 97 98 98 98 97 95 94 95 98 97 98 92 91 75 79 77 72 63 66 70 76 92 83 78 73 72 74 78 76 73 60 54 51 51 54 55 56 57 56 56 58
74 90 97 98 98 99 98 97 97 98 98 95 97 96 92 95 87 93 93 88 86 91 87 70 72 70 65 64 69 75 75 66 59 53 49 49 53 56 57 55 55 56 60
92 94 94 98 99 99 99 98 97 97 98 98 97 96 92 93 95 93 91 84 83 83 83 77 64 66 67 67 68 75 79 74 70 70 60 54 53 56 55 57 65 74 76
96 95 95 96 98 98 99 99 99 99 98 98 98 98 95 92 93 93 91 91 96 92 86 92 88 87 78 82 82 84 83 84 88 81 69 62 61 62 61 68 74 76 76
96 94 95 94 95 96 98 98 99 99 99 99 99 99 98 95 95 92 93 97 98 95 92 85 88 93 92 91 88 86 89 85 80 80 79 77 72 86 87 87 86 80 80
86 94 95 95 95 96 97 98 98 98 99 99 99 99 99 97 97 96 96 94 94 99 98 92 88 89 91 93 86 88 92 87 82 80 80 86 86 86 85 84 80 80 83
87 90 94 94 95 95 96 97 97 97 96 98 97 99 99 98 98 98 98 98 98 99 99 92 92 95 95 92 90 94 94 90 85 81 84 84 86 86 84 81 83 80 81
80 81 82 87 90 91 94 96 96 96 96 93 94 96 95 94 97 97 97 97 98 99 100 99 96 96 96 98 98 97 96 98 96 86 86 84 85 85 86 83 81 82 80
84 85 85 86 88 90 94 95 95 95 96 96 92 93 93 89 94 94 95 96 96 98 99 99 99 99 100 99 99 98 97 92 95 90 87 86 85 82 82 82 77 71 68
92 92 93 93 92 92 94 95 96 95 88 89 92 93 93 92 94 96 96 98 99 96 100 100 100 99 99 98 99 97 97 97 91 90 89 88 85 84 83 82 78 71 62
96 96 96 95 94 95 95 96 97 98 97 94 95 96 96 93 94 96 99 100 99 99 99 98 98 99 100 100 99 100 100 99 99 94 91 87 82 69 67 63 60 60 62
96 95 89 80 80 80 88 92 90 89 91 97 97 97 97 93 84 89 94 100 99 99 99 100 100 100 99 98 98 100 99 99 98 95 79 73 70 69 70 64 62 59 60
87 87 87 80 86 78 86 90 92 96 97 97 98 98 96 95 94 86 86 83 91 97 100 98 98 96 97 97 97 97 98 94 92 81 80 74 74 74 77 79 70 64 64
93 95 94 92 92 83 85 92 93 95 98 98 98 98 94 92 91 94 82 79 78 74 78 95 94 93 90 86 91 96 91 96 92 84 89 94 90 85 84 69 67 65 64
95 96 96 95 94 81 80 85 90 97 99 99 100 99 98 96 90 93 89 89 89 80 84 73 88 88 86 85 84 86 89 93 90 88 92 99 92 88 82 83 72 67 65
96 98 96 90 91 92 68 72 89 97 96 96 89 82 77 81 64 74 84 90 88 81 65 68 67 64 62 62 66 92 94 98 95 90 87 92 92 93 90 91 84 71 66
97 96 98 100 80 94 62 61 70 73 73 67 67 67 69 72 64 64 86 88 89 87 85 82 75 71 68 67 56 80 96 97 99 96 83 97 95 95 97 79 85 83 83

GFSMA_sfc_rhum_054.txt.gz
RH
97 97 98 98 98 99 99 99 98 96 93 81 68 67 66 55 55 74 98 96 91 81 71 70 65 66 65 61 62 61 64 62 62 64 64 63 63 62 62 62 62 62 62
97 97 97 97 98 98 99 99 98 98 97 96 93 80 66 55 54 68 95 97 93 88 79 71 67 66 66 63 62 62 64 63 62 63 64 63 62 62 62 62 61 61 61
96 94 97 98 97 98 97 98 98 98 98 96 95 84 68 56 52 59 90 97 96 92 88 73 69 67 65 65 62 62 64 64 63 63 63 62 62 62 62 61 61 60 60
95 96 97 97 96 98 98 98 98 99 99 98 98 93 76 59 51 53 84 96 98 97 93 86 78 71 68 64 64 62 63 64 65 63 62 62 61 61 60 59 59 59 58
96 96 94 92 95 97 98 96 98 98 98 98 97 96 86 70 56 49 66 90 96 97 98 91 87 84 80 69 64 62 61 64 64 64 63 62 61 61 60 59 58 57 56
91 94 93 93 95 97 97 98 95 98 96 96 92 86 83 73 55 59 56 70 92 95 97 96 95 91 86 78 68 64 61 62 64 62 60 60 59 58 58 60 59 58 56
87 91 91 96 96 94 89 94 96 95 97 95 84 91 78 69 64 59 62 71 83 95 97 96 93 93 93 84 77 68 64 61 62 62 61 58 58 57 57 57 58 57 58
96 96 94 93 95 96 97 97 97 98 98 97 96 90 91 85 71 61 64 62 67 93 96 94 94 93 93 94 92 78 70 62 61 61 61 59 57 57 57 56 57 58 59
97 97 98 98 97 97 96 96 97 97 96 99 94 95 89 88 80 78 64 66 65 82 93 94 91 89 90 93 85 82 82 75 62 58 61 58 56 56 56 56 56 59 59
82 95 98 99 99 99 98 97 96 96 98 98 99 93 92 80 92 94 73 59 60 66 79 92 90 87 80 79 78 81 81 82 67 61 65 68 63 58 56 56 57 58 57
81 89 93 96 98 99 98 99 99 99 98 97 98 98 96 95 90 93 95 92 80 80 78 77 78 77 73 79 76 80 82 77 76 76 70 73 77 76 65 58 59 57 58
95 93 93 96 93 91 94 95 99 98 98 98 98 98 94 95 96 97 98 95 93 90 80 75 69 68 76 78 76 76 80 78 78 79 83 84 79 76 81 69 65 78 74
96 96 95 96 97 97 97 99 99 99 99 99 99 99 97 96 94 93 94 96 97 92 87 84 88 89 84 86 85 82 83 83 85 82 82 84 79 82 82 82 82 84 81
97 96 96 95 95 96 97 98 99 99 99 99 98 99 98 98 97 96 96 97 99 98 94 86 87 92 94 93 85 79 91 77 82 83 83 82 83 87 87 84 83 81 78
84 94 95 95 96 96 97 94 97 98 98 99 99 99 99 98 98 98 97 97 99 99 97 93 92 93 94 92 88 91 96 89 80 83 85 86 93 91 87 85 81 81 81
84 86 90 93 92 94 96 96 95 95 93 95 96 94 95 97 97 98 98 98 99 99 98 95 92 95 93 89 93 93 95 90 85 81 87 91 93 92 88 87 85 83 81
85 86 88 91 93 95 95 96 97 96 91 92 94 94 93 92 96 96 96 96 97 98 99 99 96 95 95 97 96 96 97 97 98 94 91 90 88 86 85 87 86 85 82
90 91 90 90 92 94 96 96 96 96 96 96 95 91 92 87 94 94 95 95 95 98 99 100 99 98 99 98 98 98 96 92 95 92 90 87 85 84 84 84 81 82 84
96 96 95 95 95 95 96 97 97 97 97 97 97 97 97 95 98 98 96 98 98 95 100 100 100 98 99 98 99 96 97 96 90 89 86 84 82 84 84 83 83 82 81
96 96 94 87 92 97 96 94 92 91 91 92 94 96 96 96 97 98 98 100 98 98 99 98 98 99 100 100 100 100 99 99 99 94 93 90 89 87 80 81 75 67 65
94 84 81 82 82 86 87 89 89 93 95 94 94 93 93 90 84 88 94 100 100 99 99 100 99 98 98 96 98 99 97 97 95 96 83 78 76 71 67 63 62 60 57
88 87 86 83 86 82 85 84 92 94 92 94 97 98 93 87 85 79 81 82 86 96 99 100 100 98 97 98 96 98 98 98 94 85 83 76 75 74 75 77 67 62 60
93 94 94 89 85 85 86 90 91 93 96 96 96 97 95 90 91 91 78 77 76 71 71 94 93 94 90 88 91 96 90 96 93 85 90 94 89 85 81 72 68 65 65
95 94 94 92 90 80 79 84 88 97 99 99 99 98 95 94 91 90 90 89 88 79 87 76 89 88 88 85 86 87 90 94 91 88 93 100 93 87 82 83 74 70 68
96 97 92 93 92 93 68 72 88 96 94 92 80 84 82 85 66 73 83 90 84 81 68 69 68 66 65 64 66 93 98 98 96 90 90 94 92 93 90 91 82 73 72
98 94 98 100 81 93 60 60 68 68 70 65 71 73 68 73 63 62 86 84 83 84 87 79 73 69 65 62 57 82 97 98 98 95 81 98 94 93 95 78 81 79 77

GFSMA_sfc_rhum_057.txt.gz
RH
73 71 71 72 76 78 78 78 75 69 66 62 53 46 42 41 37 36 42 87 92 88 76 68 70 66 65 62 62 60 63 61 62 63 63 63 62 61 62 62 62 62 62
72 71 68 69 70 73 73 76 75 73 70 69 66 63 58 49 40 37 38 48 90 92 84 73 70 67 67 65 62 62 64 64 62 63 63 62 61 61 60 60 60 60 62
72 70 68 68 66 67 70 74 74 76 76 72 69 64 64 54 45 39 38 46 56 91 91 80 72 69 67 63 66 62 64 62 64 63 64 62 62 62 60 60 60 59 59
75 74 72 72 68 70 71 73 72 75 75 72 68 64 66 64 57 48 40 42 51 58 77 89 82 74 70 68 62 65 63 65 65 64 64 63 63 62 61 60 59 59 58
77 76 75 73 71 72 73 73 73 74 72 71 72 68 69 67 62 57 49 43 45 56 58 78 91 88 84 72 67 61 65 65 65 66 64 63 62 62 61 61 60 59 58
74 78 76 76 74 75 75 76 75 76 75 72 75 74 69 66 62 58 53 50 46 50 56 65 67 71 89 82 72 67 63 63 67 66 64 63 62 62 61 61 60 60 59
72 76 75 77 79 76 72 73 75 80 79 82 81 73 70 65 62 58 55 58 55 52 52 58 63 67 68 87 82 73 67 63 62 68 66 62 61 60 59 59 60 60 60
80 82 80 78 77 77 78 78 82 82 86 88 85 82 86 65 61 57 53 51 50 48 51 55 58 64 69 68 72 83 75 66 62 64 69 66 62 60 59 58 58 59 59
87 88 88 88 88 87 86 84 86 87 89 90 86 87 90 77 70 62 54 52 48 48 48 56 59 59 60 65 77 78 86 82 67 62 63 77 65 63 61 60 57 56 58
54 65 84 92 95 96 96 93 88 89 91 94 94 90 87 80 93 94 74 54 50 46 53 57 58 62 71 77 79 82 82 84 76 68 62 66 85 80 62 62 67 69 61
77 78 78 82 86 89 88 90 90 96 95 95 95 92 90 91 88 95 96 81 78 70 62 53 50 62 67 61 62 74 81 77 73 70 67 68 78 85 88 82 81 76 78
80 78 79 80 83 83 81 85 84 93 97 97 93 93 92 94 89 96 98 94 91 82 63 58 57 57 56 60 71 78 78 74 73 72 71 71 76 78 79 81 81 81 80
78 84 82 82 83 84 86 89 94 95 94 98 96 96 93 91 88 86 87 90 95 85 72 66 71 74 77 73 70 79 77 73 72 72 72 72 78 79 76 75 73 84 90
81 80 82 81 82 82 85 85 94 97 98 99 98 96 95 95 96 94 86 91 97 95 85 74 78 72 71 69 74 78 69 81 75 75 77 78 81 82 82 79 82 89 91
69 76 78 80 79 82 85 84 87 93 95 96 98 98 98 97 95 97 94 92 97 96 95 86 86 76 84 84 83 74 74 81 81 78 78 78 85 91 90 83 91 89 88
70 73 76 77 78 81 83 85 88 85 86 90 89 85 87 88 91 94 94 94 96 96 99 89 93 89 87 83 88 84 83 89 88 84 81 80 92 90 92 92 91 89 86
72 74 76 77 78 79 80 83 85 85 86 85 84 83 85 86 90 89 89 88 89 92 98 98 90 86 84 87 87 88 88 91 92 90 92 91 90 89 86 82 82 84 82
76 76 75 76 77 79 78 79 81 80 80 81 80 82 84 79 83 83 84 85 88 91 93 99 94 92 93 90 92 90 90 86 89 88 86 87 85 84 83 82 81 80 78
80 79 77 78 80 82 82 82 84 84 85 83 81 79 81 80 84 85 85 88 89 88 92 95 97 91 92 91 91 89 95 92 89 89 87 86 86 82 81 83 83 80 82
81 80 78 79 84 88 86 87 87 89 88 90 91 88 82 81 84 87 90 94 95 92 92 89 93 94 94 93 94 95 90 96 96 88 84 82 81 81 79 77 77 73 69
78 76 78 80 81 82 81 86 87 87 87 88 86 84 85 87 84 83 85 91 91 93 95 92 90 85 81 80 90 83 78 74 73 67 60 57 57 58 58 58 57 59 59
82 82 80 81 83 80 80 86 84 84 86 91 91 89 80 79 78 74 78 76 78 85 97 95 85 76 76 69 63 67 68 66 67 59 57 51 52 50 49 48 58 62 60
90 90 86 83 86 84 85 86 86 80 86 93 96 97 86 78 79 80 72 72 72 71 71 71 70 70 66 63 74 79 72 72 63 56 61 56 54 49 44 45 63 67 64
92 90 89 86 84 79 82 81 83 93 94 91 86 86 88 87 84 75 73 73 69 70 68 64 66 66 67 66 69 76 70 72 62 58 62 67 54 51 51 52 69 71 69
93 92 86 85 90 89 69 71 82 84 81 72 69 68 66 66 64 68 66 72 58 64 65 68 66 64 63 63 60 68 74 76 59 56 58 64 57 61 55 54 53 66 70
100 88 94 93 82 87 62 62 64 49 50 49 55 56 65 63 60 68 66 56 60 62 68 57 47 47 50 51 63 57 72 80 76 70 57 74 64 64 73 50 52 52 52

GFSMA_sfc_rhum_060.txt.gz
RH
56 51 44 40 41 43 45 46 48 46 46 44 43 41 39 35 32 30 29 68 77 83 83 74 69 70 66 65 62 62 63 61 61 63 63 63 62 62 62 63 62 62 62
55 54 50 48 42 43 44 47 49 51 50 49 47 43 44 45 41 35 32 34 77 83 87 82 72 71 67 66 64 63 63 65 62 63 63 63 62 62 61 61 60 60 61
54 54 52 51 49 46 47 49 51 53 54 52 52 48 47 46 46 43 39 37 40 83 86 85 79 71 66 65 66 66 66 65 63 63 64 63 63 62 61 61 61 60 59
55 55 53 53 51 52 53 53 53 54 54 52 51 49 49 50 50 48 46 43 42 39 67 85 86 79 72 70 68 67 68 68 65 66 64 64 64 64 62 62 61 60 58
53 56 55 54 53 56 55 56 56 56 57 54 53 52 52 53 52 50 49 48 47 44 42 64 89 92 88 77 71 67 66 69 68 69 67 64 64 64 63 62 61 61 60
54 56 56 56 55 57 58 57 60 57 58 57 55 57 56 54 53 51 50 48 47 48 45 46 47 53 92 87 78 70 67 65 70 70 69 67 65 64 63 62 61 60 60
55 58 58 57 59 61 59 57 57 61 61 58 66 62 58 55 54 51 46 46 48 48 48 46 46 44 47 88 85 79 72 68 66 72 70 69 67 65 63 61 60 61 59
60 62 64 64 64 65 63 63 66 70 70 67 76 78 78 51 45 48 47 47 45 43 44 45 44 43 46 47 57 84 80 73 67 66 72 72 68 66 64 62 60 60 60
74 76 78 80 81 83 81 78 79 82 89 80 75 81 86 60 56 50 51 46 44 42 42 44 45 46 46 46 56 67 85 85 77 71 67 68 79 71 66 63 61 60 63
43 46 60 76 87 91 94 92 90 91 92 95 91 86 85 81 88 82 60 53 45 44 48 49 49 47 49 57 72 81 85 82 77 76 72 69 65 81 77 69 62 63 62
56 58 56 60 62 66 72 79 80 84 90 91 92 93 92 89 84 95 91 79 68 73 64 56 47 48 47 50 52 68 77 74 71 71 71 70 70 82 83 80 73 62 66
56 61 63 62 66 69 70 70 73 80 82 81 87 91 92 90 85 90 95 86 86 61 52 50 51 52 52 53 63 77 73 73 71 71 70 68 68 73 80 80 80 81 75
57 64 66 65 65 67 70 72 76 81 82 89 81 88 94 93 90 90 94 92 86 70 61 54 53 55 56 57 60 78 73 76 76 75 75 74 73 79 80 80 75 76 74
59 62 65 64 64 65 66 69 73 81 90 95 97 95 95 93 94 92 92 93 93 80 69 58 56 58 59 63 72 76 62 78 79 78 78 77 78 80 85 90 79 74 86
55 57 61 63 64 66 68 72 73 79 87 92 95 96 97 97 95 96 89 89 93 93 79 73 70 73 71 72 83 71 68 86 81 79 78 79 78 81 84 88 84 88 89
57 59 61 62 64 66 68 74 80 79 78 82 81 86 88 89 88 89 88 85 93 94 95 84 80 82 78 71 79 75 80 83 85 83 87 85 84 86 88 88 89 89 87
57 59 62 62 63 64 65 70 79 78 79 79 78 78 77 74 77 78 80 84 86 86 96 99 89 79 74 73 73 75 81 83 84 85 85 87 87 88 88 87 86 85 85
58 60 60 61 61 64 62 63 67 67 68 69 68 72 72 68 72 71 73 74 76 76 81 90 88 86 86 80 78 79 79 76 80 82 84 83 83 82 82 81 79 78 76
61 61 60 61 63 66 65 65 65 67 67 68 67 67 69 68 72 73 74 78 78 77 84 87 95 88 90 85 89 78 77 79 73 75 76 77 80 80 79 79 80 81 83
63 63 65 66 71 73 76 79 78 78 79 80 79 75 70 71 75 79 82 85 86 85 85 84 87 88 88 86 88 86 73 71 70 59 58 61 65 70 74 72 72 71 68
66 68 72 75 75 77 78 84 82 81 81 81 80 77 83 82 80 78 77 81 81 84 88 91 85 81 76 73 78 71 66 59 55 52 48 45 45 45 47 51 54 55 56
75 75 77 73 74 75 86 85 79 79 77 76 79 78 71 75 74 75 74 72 68 75 93 87 80 67 67 59 52 56 56 57 59 50 47 39 39 41 39 40 48 60 61
85 83 82 78 80 80 82 84 80 79 93 98 99 96 77 62 72 70 66 66 69 69 68 55 52 50 51 51 67 73 63 63 53 45 48 43 37 35 34 33 52 66 67
90 88 87 83 81 78 81 77 78 94 97 96 95 96 92 89 75 61 59 58 57 56 59 51 55 55 58 58 61 68 60 60 49 42 49 59 40 43 41 43 59 70 70
92 91 85 83 94 84 72 69 80 89 83 75 68 58 53 57 68 64 55 62 44 53 63 65 63 62 62 62 60 57 70 66 53 40 44 56 48 50 44 45 46 62 61
100 85 100 100 79 88 67 66 57 41 45 38 42 49 64 57 60 68 54 43 45 47 54 50 40 38 42 44 59 46 56 80 68 70 50 68 59 60 74 44 45 45 47

GFSMA_sfc_rhum_063.txt.gz
RH
53 47 40 36 37 37 39 41 42 41 42 41 40 39 37 36 34 35 35 70 67 67 77 77 72 72 68 65 63 62 62 62 61 63 63 63 63 63 64 65 65 64 64
50 50 46 44 38 38 39 40 44 47 47 45 46 42 42 43 43 41 39 42 68 72 73 80 77 70 71 68 69 65 65 64 63 62 63 63 62 62 61 61 61 61 63
48 48 47 47 46 43 41 42 45 47 50 48 49 47 46 44 45 45 45 45 50 78 76 68 75 73 69 68 68 69 68 68 68 63 64 64 63 62 61 62 62 61 59
49 50 50 50 48 48 50 50 50 52 52 51 49 47 45 46 47 48 49 49 50 46 72 76 76 75 72 68 67 66 69 70 70 68 66 64 65 65 63 62 61 61 57
48 52 52 52 50 53 53 54 54 53 55 54 54 52 51 52 50 49 49 51 51 54 52 71 84 85 87 80 70 67 69 72 72 70 70 68 67 65 64 63 62 62 61
49 51 52 52 51 57 57 58 58 60 62 64 59 58 58 57 56 54 50 46 49 53 54 55 61 66 88 83 78 72 67 68 73 73 72 70 67 66 65 63 63 62 62
51 55 57 57 60 60 59 57 60 68 71 66 73 68 65 58 56 54 52 49 50 51 52 54 54 54 56 87 84 79 75 69 69 73 75 73 70 68 67 65 63 62 61
57 59 61 63 66 71 63 63 65 72 74 72 84 81 86 65 51 52 53 52 52 51 53 50 50 50 55 56 66 85 80 75 72 71 72 76 74 71 69 67 64 62 62
65 71 78 84 86 90 89 86 91 92 94 90 88 94 89 73 64 61 60 56 52 53 49 51 50 52 53 58 63 68 82 82 80 78 74 72 74 78 78 71 66 63 61
50 51 60 73 86 91 96 94 92 95 96 96 95 92 91 92 93 87 63 62 57 51 52 56 55 54 55 61 70 76 81 77 73 71 72 71 69 71 76 80 71 65 63
49 52 51 56 62 64 67 72 76 79 84 90 90 90 88 89 88 98 89 82 71 67 62 62 58 54 52 57 61 74 75 72 70 70 70 68 67 66 69 81 85 77 66
52 56 58 58 61 65 67 70 72 76 77 79 82 84 81 89 91 97 98 89 84 80 65 56 58 60 60 61 70 76 73 75 74 74 74 72 69 80 84 76 80 77 72
52 58 63 62 62 64 66 69 74 76 75 82 82 85 86 86 85 93 96 97 90 85 77 60 59 62 58 63 71 82 79 79 78 77 77 76 76 79 82 82 80 77 87
51 58 61 60 60 60 62 65 72 75 80 87 90 88 92 95 97 94 94 95 99 95 86 70 63 62 66 71 79 81 74 81 79 79 78 78 78 78 78 80 77 87 83
55 55 57 60 60 61 62 65 72 73 85 88 95 95 97 96 97 98 98 95 94 97 90 81 78 74 75 77 84 75 78 81 77 77 80 84 80 79 82 84 87 86 85
55 56 58 58 60 61 64 68 75 78 80 83 86 89 90 93 92 94 96 97 97 96 96 88 88 82 79 71 77 76 78 81 80 81 83 86 89 90 88 89 87 87 86
55 56 58 59 59 60 61 67 75 76 78 80 80 82 79 76 84 82 86 85 87 90 93 99 90 81 79 78 77 76 79 80 84 84 83 83 84 85 87 87 85 84 84
55 56 57 58 58 60 61 62 66 67 69 71 70 74 72 68 75 75 79 79 82 84 89 90 93 93 89 83 80 80 76 74 81 78 81 81 82 82 82 82 80 78 76
58 58 58 59 60 64 63 63 62 64 66 66 66 68 68 69 77 78 82 85 86 82 90 97 100 94 91 90 87 80 77 82 70 66 64 69 74 78 79 78 78 77 80
60 60 61 62 65 66 71 74 72 73 75 77 76 72 71 74 78 83 84 86 84 86 87 91 93 96 91 88 88 87 84 79 76 52 55 58 58 65 70 71 70 68 68
62 64 68 71 71 72 73 81 80 80 80 80 77 78 84 84 80 78 81 82 82 89 95 93 93 91 83 80 82 80 81 73 68 65 64 59 56 58 60 48 53 53 60
71 72 74 72 74 71 85 82 78 81 77 78 79 78 75 79 73 71 72 74 72 81 95 96 87 78 77 73 62 72 74 84 84 65 63 58 54 58 53 51 49 54 60
83 83 81 76 77 75 83 81 77 84 94 100 100 99 77 64 77 75 65 60 69 67 66 68 65 64 63 66 84 88 81 84 75 65 64 65 52 54 53 41 54 62 66
92 92 90 83 83 79 79 79 84 99 100 100 99 100 98 94 79 67 66 67 64 64 66 54 67 68 69 69 71 75 76 76 68 63 63 84 57 61 60 60 59 66 67
96 97 92 89 98 87 75 68 80 93 90 85 79 63 58 64 70 62 64 71 52 60 65 62 59 59 59 60 62 74 89 89 80 53 61 72 69 69 64 63 65 61 59
100 96 100 100 82 94 66 63 65 55 62 49 51 58 62 62 60 66 67 54 54 55 62 62 56 52 50 49 54 62 79 94 92 92 72 89 85 79 95 66 62 66 67

GFSMA_sfc_rhum_069.txt.gz
RH
73 77 82 89 92 94 93 93 90 82 80 71 67 64 58 58 58 58 63 80 70 67 59 68 74 77 73 69 67 67 67 65 62 64 64 64 64 65 66 66 66 65 63
77 79 75 68 69 75 72 72 72 71 74 76 71 69 66 64 64 66 66 67 79 71 68 59 66 71 74 74 71 69 69 69 68 65 65 65 64 63 63 63 63 65 64
77 75 78 75 69 65 60 68 70 77 79 76 79 75 74 74 70 69 68 68 70 81 74 63 62 65 69 70 72 73 69 69 70 69 67 67 66 64 63 63 64 64 62
70 75 76 78 76 75 70 74 77 79 83 84 84 79 77 73 65 65 73 73 69 64 75 76 74 68 67 68 68 68 72 74 72 71 69 69 68 67 65 63 64 64 63
68 74 78 77 75 81 82 80 83 86 87 84 74 70 69 70 69 66 74 75 80 72 66 79 82 80 79 71 67 66 67 71 77 76 73 72 68 69 68 66 65 65 62
69 74 78 80 78 76 72 71 73 75 74 76 73 73 76 79 79 85 82 75 80 75 75 72 85 85 88 78 72 69 69 68 71 75 78 76 73 72 70 70 67 65 66
70 75 80 79 71 67 66 68 73 75 79 81 84 93 93 89 88 88 83 86 76 71 76 78 81 83 80 81 81 76 72 69 69 71 74 79 79 74 73 72 71 69 67
72 76 82 81 78 77 74 76 82 85 84 85 85 91 94 87 78 78 86 80 71 70 69 68 69 71 80 85 89 81 80 79 75 72 73 77 79 80 77 73 72 70 69
82 82 85 88 91 93 94 94 94 93 95 94 88 92 96 96 93 77 74 76 70 71 68 69 67 68 71 73 79 81 75 72 68 67 66 66 68 70 75 77 79 82 72
64 62 71 81 93 96 96 97 97 97 98 97 97 97 95 95 96 94 86 85 80 72 76 76 72 71 80 85 83 83 80 76 73 72 71 69 68 66 68 70 73 78 78
66 68 70 73 74 79 81 87 90 92 97 98 98 95 93 95 94 96 96 94 92 92 86 83 82 81 76 80 82 87 81 77 74 72 72 68 68 75 73 75 74 75 76
76 74 73 77 80 81 85 90 91 92 94 95 95 94 94 94 96 97 97 93 92 89 84 77 81 85 82 79 83 84 81 78 76 73 72 70 70 74 76 76 76 74 74
82 83 80 83 85 83 82 83 87 91 94 96 93 95 94 88 89 94 96 97 97 95 91 84 79 79 76 87 91 90 82 79 77 75 76 77 77 76 76 73 72 74 74
82 80 79 77 79 78 79 82 89 92 94 96 96 98 98 98 97 98 96 98 99 99 97 89 85 88 88 92 89 86 90 77 75 74 77 78 81 78 77 80 76 75 78
69 73 76 75 79 79 80 84 90 93 94 97 96 96 97 98 98 98 99 98 96 97 99 94 94 90 92 89 86 86 84 76 81 78 76 81 88 89 87 84 83 83 83
69 74 76 77 80 80 83 86 92 92 92 96 95 95 96 96 95 96 98 98 99 98 98 96 96 92 88 81 83 85 84 83 81 80 81 82 84 87 88 88 87 87 86
70 72 75 77 78 79 81 86 91 88 90 92 91 92 89 89 93 92 92 93 95 96 98 100 96 90 87 85 83 84 82 86 89 76 78 79 82 84 85 86 85 84 82
71 71 72 74 75 78 83 84 89 87 90 89 87 87 83 81 87 89 91 92 92 96 96 99 98 97 95 92 92 84 79 77 83 71 70 74 76 76 81 82 83 84 83
77 74 72 73 77 81 85 87 88 89 88 87 82 83 84 87 92 94 95 94 94 93 96 98 100 99 98 94 91 85 81 91 85 62 57 58 61 69 73 77 78 78 76
79 80 78 80 81 83 86 89 91 93 93 94 93 93 93 93 94 94 92 92 90 95 93 96 98 100 96 93 93 94 92 89 84 57 56 58 57 60 57 65 63 66 67
83 85 86 85 84 82 80 90 86 88 88 90 89 88 90 89 82 82 88 92 91 96 99 100 99 98 96 94 92 93 88 86 84 77 73 66 67 67 70 63 62 56 56
90 89 89 81 81 72 79 81 85 90 87 87 91 89 86 85 78 76 72 74 80 90 94 98 98 91 91 86 88 88 88 97 93 84 75 69 71 64 63 62 47 55 58
91 91 90 83 85 88 84 84 84 92 97 99 96 91 84 80 82 80 66 67 62 69 77 86 79 80 82 84 89 93 91 94 90 84 74 67 75 70 74 58 57 57 64
95 95 93 89 89 87 85 85 91 100 100 100 99 94 94 90 82 78 78 80 85 84 80 71 84 90 88 88 86 87 85 87 86 79 75 90 82 77 77 76 58 57 59
98 98 95 95 97 97 82 85 95 98 97 97 96 92 90 80 60 58 72 73 71 80 59 60 62 59 59 58 67 82 96 94 90 72 83 81 89 91 86 89 77 60 56
100 99 100 100 92 97 79 74 81 85 84 82 84 77 68 82 70 64 76 64 62 71 73 69 64 59 54 53 52 73 88 95 98 96 86 94 93 95 92 85 87 85 82

GFSMA_sfc_rhum_072.txt.gz
RH
97 97 97 98 98 97 97 97 96 92 92 85 76 69 64 62 61 60 64 80 77 69 58 62 73 77 75 72 69 68 69 66 64 65 65 64 64 65 67 66 65 63 62
76 83 81 92 95 96 97 91 95 90 81 81 76 73 71 70 67 68 71 67 81 74 70 60 61 67 71 74 74 71 71 71 69 67 66 65 64 64 64 63 64 65 63
77 81 84 76 77 76 80 78 77 81 86 83 85 81 80 81 78 73 73 72 71 84 78 64 64 63 66 68 72 75 75 74 73 71 69 69 67 64 64 64 65 64 64
77 81 82 81 76 75 70 73 79 83 87 88 88 82 82 75 68 69 68 69 73 68 75 80 75 70 68 66 66 68 69 76 75 75 73 71 71 70 66 65 66 66 63
74 78 81 80 80 81 81 78 83 85 87 85 78 74 72 73 71 69 71 72 78 82 78 78 84 83 79 70 65 64 66 70 76 79 77 74 73 72 71 67 66 67 66
73 77 82 80 81 85 84 78 75 79 79 78 75 75 74 80 88 87 86 81 86 84 81 78 86 86 88 77 69 68 68 68 70 72 77 81 77 74 73 72 69 67 67
75 79 82 83 84 77 73 71 73 76 80 82 86 85 93 92 92 92 93 94 88 77 82 77 86 87 84 84 80 76 73 73 74 73 78 80 81 80 76 74 73 70 68
74 79 83 84 83 78 73 74 80 86 90 89 85 88 95 90 87 88 86 88 86 72 71 70 69 76 87 95 88 78 74 70 69 68 68 68 72 78 81 77 74 73 72
77 79 82 84 88 90 90 91 92 91 93 93 92 94 93 97 95 85 80 80 76 76 68 67 70 76 80 87 82 81 77 73 70 69 68 68 67 66 66 71 78 79 76
88 91 91 92 93 96 95 96 97 97 98 98 96 97 98 96 98 93 89 87 84 74 75 74 77 81 83 87 88 86 84 79 73 71 69 66 66 70 73 76 73 74 74
86 80 78 76 78 78 78 85 91 94 98 99 98 97 94 95 96 99 91 94 92 94 88 84 82 80 74 86 95 88 81 76 73 71 68 67 66 71 72 77 70 72 74
90 89 84 86 85 86 87 91 92 92 95 96 97 97 96 95 95 98 99 97 95 93 92 78 79 80 86 86 85 84 82 78 76 73 72 71 73 73 71 72 70 72 71
91 90 85 82 86 85 86 86 88 91 93 96 96 97 96 96 95 95 96 96 97 96 90 89 82 83 78 89 89 89 81 79 76 75 77 75 78 77 76 74 71 70 71
81 83 82 82 83 81 80 82 88 92 94 96 96 97 98 98 98 98 96 95 99 99 94 90 96 90 86 90 86 86 88 77 75 74 74 74 82 84 80 76 76 73 78
77 78 79 76 81 80 82 85 90 92 95 97 98 97 97 97 98 98 99 98 96 98 99 94 96 94 88 90 87 84 85 79 77 79 77 80 85 87 89 86 84 82 81
71 76 80 82 80 80 82 85 92 94 95 97 98 97 97 98 97 98 98 99 99 99 98 95 98 95 90 83 84 85 84 85 78 79 80 82 84 85 87 87 87 86 86
77 78 80 80 80 79 81 87 89 94 93 94 94 94 96 94 95 95 94 94 96 96 99 100 97 94 90 86 84 84 84 86 87 76 78 79 78 84 85 85 84 83 81
74 73 78 77 78 78 83 82 87 91 91 94 93 93 93 87 88 89 92 92 93 92 97 99 98 97 95 91 88 86 81 79 86 72 70 72 74 76 79 82 82 84 82
76 75 74 77 80 83 85 87 88 89 89 89 88 84 84 88 90 92 93 93 93 90 95 98 100 99 98 93 92 86 84 92 85 62 58 59 60 67 69 74 76 77 76
84 83 82 83 82 86 89 90 92 93 93 93 93 92 91 89 90 92 92 93 92 96 94 97 98 99 96 93 94 94 92 88 83 57 56 59 62 64 58 64 66 66 66
88 88 90 90 89 87 84 90 92 93 90 91 89 88 91 89 83 83 89 92 92 97 99 100 100 98 96 96 94 94 89 85 82 78 72 67 68 68 79 67 60 55 56
92 92 92 91 91 78 77 80 83 92 89 90 93 90 89 86 82 77 76 76 81 92 95 98 97 90 93 92 85 85 86 97 91 85 74 65 69 66 66 60 51 55 61
92 92 92 91 91 85 81 82 84 92 95 98 99 95 87 85 83 80 70 71 69 73 77 89 90 86 84 81 88 93 91 94 86 84 75 62 76 72 76 60 59 58 64
95 95 95 93 93 89 85 84 89 100 100 100 98 93 94 91 82 77 81 84 85 83 80 69 78 83 84 87 85 86 85 85 85 78 74 85 84 80 82 80 66 56 58
97 97 96 95 96 96 86 85 95 100 100 99 92 86 82 77 69 62 76 80 77 79 63 69 71 68 70 71 74 86 96 94 86 71 82 78 89 92 88 92 77 65 63
100 99 100 100 92 99 86 83 93 94 93 89 92 86 79 80 67 62 74 64 68 74 77 71 68 58 55 54 55 72 90 95 96 96 83 90 91 94 89 82 89 87 85

GFSMA_sfc_rhum_075.txt.gz
RH
98 98 98 98 98 98 98 96 96 94 94 92 86 76 71 66 66 64 66 74 80 71 60 58 72 76 76 75 72 70 70 66 65 66 65 64 64 66 67 66 65 63 62
98 98 98 97 97 97 97 96 96 96 94 87 83 80 78 75 75 71 72 72 76 79 72 60 61 67 71 73 76 74 73 73 71 68 68 66 64 64 64 64 65 65 64
84 86 86 87 94 94 94 96 86 86 88 87 90 86 85 85 84 80 76 77 76 84 82 66 64 63 64 66 68 70 76 76 75 74 71 70 69 66 64 64 66 66 64
75 84 88 84 78 79 80 82 81 86 89 89 90 85 84 84 81 75 71 70 70 67 73 79 77 73 70 66 65 65 67 72 75 78 77 73 73 72 68 66 67 68 65
75 82 86 86 83 84 80 76 82 85 88 87 82 83 76 74 72 74 77 79 77 77 77 80 85 82 80 71 66 65 64 68 71 75 80 79 76 75 73 70 67 67 66
77 81 84 83 84 88 88 86 82 87 84 80 76 76 80 87 87 92 90 87 91 90 90 89 86 92 86 75 70 67 68 68 72 72 72 79 79 78 76 75 71 69 67
76 81 85 86 87 87 85 84 78 77 82 84 87 83 90 91 92 91 95 96 94 91 91 88 89 82 84 82 78 73 71 75 69 69 69 71 74 77 79 78 76 73 70
78 77 84 88 89 91 83 76 80 87 87 88 89 94 95 89 89 88 90 89 90 84 85 84 84 77 80 88 89 77 72 67 65 66 68 68 68 69 72 78 79 75 73
81 80 81 86 89 89 88 86 89 89 91 95 93 88 92 96 96 87 83 84 82 82 80 77 77 81 85 91 83 85 80 75 70 69 67 65 66 67 67 69 72 76 86
89 83 87 91 92 95 95 95 96 96 97 98 97 97 98 98 98 96 91 92 90 78 78 79 79 79 80 92 90 88 84 78 72 69 66 63 65 70 72 74 72 70 74
95 96 95 96 95 96 96 95 96 97 98 98 98 97 96 97 98 100 96 94 93 95 93 87 89 83 75 89 89 88 83 74 72 70 67 65 66 67 69 68 69 70 72
98 96 93 91 90 90 92 93 93 93 94 96 97 98 97 95 94 98 100 98 97 96 96 90 90 88 88 89 85 88 82 78 75 73 71 71 74 74 74 69 69 69 69
96 94 91 89 83 83 86 88 91 91 93 96 97 98 98 97 95 96 97 97 98 96 96 96 96 92 87 90 90 87 81 77 75 74 74 74 74 76 78 72 71 70 69
91 88 84 81 83 83 83 85 87 92 92 96 95 97 98 97 98 99 98 96 95 98 95 96 97 91 90 91 89 85 84 78 75 74 73 73 81 82 86 75 77 73 73
88 86 80 78 79 80 82 84 89 90 93 95 97 98 99 98 97 98 94 96 99 96 96 97 98 93 94 90 89 86 86 78 76 78 76 82 83 83 87 88 87 87 87
80 80 78 78 79 80 83 87 91 92 95 96 98 98 97 97 98 98 99 98 99 99 96 96 98 96 92 87 88 86 88 85 78 76 77 80 82 85 85 86 86 85 84
80 76 77 78 80 82 84 88 90 91 96 95 95 96 95 96 98 98 96 95 98 98 99 100 97 95 94 92 89 86 85 86 86 74 76 77 76 79 83 86 86 85 83
78 78 78 82 82 83 86 87 88 91 95 94 94 95 95 91 94 93 94 93 93 92 98 99 98 98 96 90 88 86 82 78 84 74 70 69 72 78 81 81 82 83 84
78 82 81 82 83 84 87 89 90 91 91 91 91 93 90 92 92 91 93 93 94 90 95 98 100 99 98 94 93 86 87 94 75 62 61 62 64 64 72 73 73 75 76
87 88 86 86 88 89 89 90 92 93 93 92 92 92 88 89 90 91 93 93 93 96 95 97 98 100 97 93 93 92 95 88 82 56 57 60 63 69 64 64 62 62 62
89 89 90 90 90 88 86 91 92 94 94 90 89 87 89 88 84 85 90 92 92 97 99 100 99 98 96 94 92 96 91 83 80 77 71 66 68 65 79 72 62 57 58
92 92 92 92 93 85 79 80 83 89 91 91 93 92 92 90 85 80 78 78 83 93 96 100 99 92 90 92 89 85 84 92 83 85 73 64 69 65 64 60 56 56 64
93 93 93 93 93 92 78 80 81 94 97 98 99 98 90 86 82 86 74 77 76 75 78 89 88 90 92 86 89 92 87 89 83 83 77 61 76 70 74 62 65 58 63
95 95 95 94 94 92 81 83 83 98 100 100 100 98 96 88 84 81 82 84 84 81 80 70 81 83 84 86 84 84 84 84 83 78 74 85 82 76 80 77 72 56 58
97 96 95 95 96 94 83 84 96 100 100 99 91 83 76 79 67 64 78 84 81 83 74 74 74 74 73 73 80 86 96 94 83 71 80 75 84 84 83 87 77 69 66
99 99 100 100 94 98 87 85 93 97 99 95 88 82 73 76 68 60 73 72 78 80 75 68 68 62 56 56 63 74 92 96 97 96 81 91 85 87 83 77 86 86 85

GFSMA_sfc_rhum_078.txt.gz
RH
98 98 98 99 98 98 98 96 96 94 93 92 91 85 79 77 70 68 68 76 71 71 61 57 65 75 77 76 74 72 71 69 66 66 65 63 64 66 67 66 66 64 62
98 98 99 98 98 98 97 96 96 96 96 93 86 86 82 80 77 76 73 74 77 76 72 61 59 63 70 72 71 76 76 74 74 71 70 67 65 64 64 65 65 66 64
95 96 98 98 97 97 95 97 94 93 95 88 91 90 88 88 87 84 84 81 80 82 79 67 62 63 65 65 66 71 74 77 78 76 73 72 71 68 65 64 65 66 64
84 92 92 88 85 93 94 95 95 87 91 94 92 87 87 87 84 85 78 78 81 76 76 79 76 69 69 66 66 66 66 72 73 78 81 76 74 73 70 67 65 68 66
76 81 84 86 81 83 81 80 83 86 89 90 89 87 87 82 80 79 86 86 88 87 83 81 85 86 82 73 66 64 64 68 71 73 78 80 80 77 75 72 68 67 67
74 76 84 88 88 87 87 86 82 90 91 86 80 80 82 89 93 93 93 90 93 92 93 93 94 88 88 78 68 66 66 68 74 74 74 74 76 80 79 76 74 70 68
73 74 82 88 89 90 86 87 89 83 84 85 89 85 89 87 90 92 95 95 94 94 93 94 95 94 89 81 76 71 70 68 67 68 68 69 70 72 76 77 78 75 72
78 80 78 83 89 90 89 89 85 87 86 89 88 94 95 86 91 88 90 89 90 89 90 89 90 90 92 92 85 77 69 65 65 66 66 67 68 68 68 68 72 77 76
82 81 85 94 96 94 92 92 88 89 90 94 93 91 94 95 97 92 87 91 88 88 86 82 77 86 93 88 83 85 82 74 68 66 64 62 64 69 72 74 74 73 77
98 97 96 96 96 95 96 97 97 96 96 94 97 97 97 97 99 98 91 93 93 83 86 84 86 84 87 94 88 87 84 79 69 66 63 64 66 68 67 68 68 70 70
98 98 99 99 99 99 98 97 97 98 98 97 98 98 97 98 99 99 98 95 93 96 96 93 94 89 89 95 95 88 83 74 71 68 65 68 69 71 69 69 66 68 64
99 98 99 99 99 97 95 92 93 93 95 96 97 98 97 94 94 98 98 97 97 95 96 92 88 93 96 95 90 89 84 77 73 70 68 69 71 72 73 71 68 64 66
99 98 98 98 97 90 88 88 90 92 94 96 96 97 98 98 97 96 97 98 98 96 96 97 95 96 92 92 90 88 83 78 74 71 71 71 74 74 78 71 68 66 65
96 97 97 91 85 83 84 83 86 90 90 94 92 95 97 97 98 98 95 95 92 96 98 93 93 91 94 91 88 84 85 78 76 74 74 74 76 79 84 80 77 73 73
94 93 86 82 82 82 83 82 87 88 90 93 95 97 98 98 98 98 99 97 97 94 93 98 96 94 95 95 90 87 89 85 78 78 75 80 81 78 83 85 84 83 83
92 90 87 84 82 81 82 85 90 91 93 96 97 98 98 98 97 98 97 98 96 96 92 96 97 96 93 89 87 86 89 88 79 75 76 77 79 82 84 84 85 83 83
89 83 80 81 81 81 81 84 87 88 92 95 94 96 96 95 98 98 98 98 98 98 99 100 98 96 95 94 92 88 87 86 85 74 74 75 75 76 82 84 85 85 84
84 82 80 81 82 80 85 87 88 90 93 95 94 95 96 95 96 96 97 96 96 93 98 99 98 99 96 93 92 90 84 78 81 70 69 69 71 79 78 77 80 82 83
87 84 84 84 87 86 90 91 91 92 92 92 92 93 94 93 95 95 94 94 94 91 96 98 100 99 98 95 94 87 86 89 65 62 63 66 66 65 72 73 71 72 74
89 89 88 89 90 90 91 91 92 93 93 93 92 92 90 88 90 90 92 94 94 98 97 98 99 100 97 95 94 94 96 87 83 56 57 61 64 71 64 65 60 59 60
90 90 91 91 92 89 87 91 91 93 94 92 88 86 88 88 86 86 90 93 94 97 99 100 100 98 97 96 96 92 94 84 83 76 68 63 65 62 76 64 63 58 61
93 92 92 92 93 87 80 82 87 93 93 92 94 93 94 92 88 83 81 80 84 94 98 100 100 97 95 91 87 90 94 96 89 82 69 61 66 62 63 69 60 58 65
94 94 94 94 94 92 80 78 81 95 96 97 98 99 93 88 84 87 81 82 80 77 80 90 94 88 87 86 89 91 86 88 76 81 76 61 73 67 71 63 65 59 62
95 96 95 94 94 92 82 81 77 99 100 100 100 100 99 93 85 84 82 83 83 84 81 72 83 83 84 84 84 84 82 83 84 77 71 85 79 72 78 77 73 58 59
96 96 95 96 96 94 84 80 97 100 100 99 95 90 85 82 77 68 79 84 87 88 75 72 74 73 73 74 78 84 91 94 82 71 78 73 82 80 81 83 77 73 67
97 98 100 100 93 96 86 81 96 98 99 99 94 84 84 68 61 63 80 84 85 85 80 71 68 62 60 67 72 74 90 93 92 92 79 90 83 82 83 75 80 80 77

GFSMA_sfc_rhum_081.txt.gz
RH
82 79 76 78 78 76 71 66 63 60 60 60 59 58 54 51 49 47 47 75 71 68 64 59 58 70 77 76 75 73 72 71 68 67 66 64 62 65 66 66 66 64 64
76 77 79 79 79 76 72 67 60 65 64 64 60 60 58 56 53 54 53 55 77 76 73 65 60 61 65 71 73 74 77 75 74 72 72 70 67 64 63 63 64 66 64
74 75 76 78 75 72 70 71 68 70 68 68 62 59 62 58 61 60 58 61 64 85 80 73 66 63 64 65 67 68 71 79 78 77 76 74 72 70 67 65 64 66 64
75 74 73 76 73 71 70 71 70 69 64 63 61 60 60 61 58 58 59 59 62 60 72 79 78 72 69 67 66 68 66 71 75 74 78 78 76 75 72 69 66 66 66
74 70 69 70 67 67 70 68 69 65 62 64 64 61 62 63 60 57 57 60 61 64 61 78 86 85 83 75 67 66 65 66 72 72 73 76 78 78 77 74 71 68 68
65 67 66 66 65 66 64 65 62 64 63 64 66 64 64 64 62 59 57 62 62 66 65 68 68 68 88 82 74 65 65 70 73 73 73 71 74 75 80 79 76 73 70
64 65 64 69 73 71 64 63 66 67 69 76 84 65 63 60 59 60 61 60 61 63 68 68 65 64 63 82 76 69 68 68 68 68 68 68 68 68 68 68 74 79 74
84 79 78 78 78 73 72 72 73 77 82 84 77 85 70 58 58 59 59 60 60 61 63 65 65 65 68 67 78 79 69 64 64 66 67 65 64 67 69 71 73 74 78
96 92 90 87 90 90 88 81 82 85 89 91 85 81 78 72 74 62 65 63 62 59 58 61 63 68 71 74 77 80 81 73 65 64 63 59 65 67 67 68 72 74 74
98 98 94 91 91 97 98 96 92 89 88 80 86 84 81 82 76 75 66 67 66 63 61 60 62 67 72 72 81 84 85 79 66 63 63 66 66 67 67 65 66 69 69
98 98 97 98 97 99 99 98 89 94 93 91 87 87 85 85 87 89 73 70 67 68 70 67 62 64 70 71 71 79 84 74 68 66 64 67 68 69 69 70 68 66 66
98 96 97 95 96 98 98 98 94 95 94 92 90 91 84 74 75 85 88 78 82 72 71 68 68 65 74 73 79 89 85 80 74 70 68 69 71 68 70 73 68 68 63
96 96 96 97 97 96 96 96 94 89 88 89 89 90 84 84 82 82 84 84 89 73 74 74 70 69 73 75 75 85 85 79 77 75 75 72 74 74 77 75 66 66 64
92 90 92 97 97 93 91 87 87 86 85 87 84 85 84 84 87 87 83 83 85 84 70 71 74 70 82 80 81 86 79 79 78 76 76 76 76 77 82 86 81 77 80
94 94 96 96 89 81 84 82 83 80 82 84 83 83 83 85 88 89 93 88 80 84 80 77 85 79 79 84 85 81 81 84 81 79 78 79 80 80 79 82 82 81 82
88 89 84 79 78 77 75 80 78 77 76 84 85 85 88 86 88 89 90 87 90 88 90 84 90 87 84 83 84 81 86 86 78 78 78 77 77 82 83 83 82 82 82
83 82 79 77 75 76 73 73 76 82 81 82 84 87 86 84 86 87 89 91 95 94 92 98 93 92 93 92 88 84 90 85 88 80 74 74 75 79 81 82 83 84 84
79 77 75 74 72 71 71 70 74 76 76 80 83 86 84 83 84 84 86 88 89 87 92 96 94 97 94 92 92 90 86 79 78 76 70 68 73 78 76 76 79 81 82
75 75 73 73 75 76 78 77 78 81 80 81 81 82 85 84 84 84 83 85 84 84 89 95 99 95 93 91 92 88 86 87 61 68 67 71 66 69 72 69 67 69 73
78 77 76 78 79 80 79 80 79 79 80 80 81 80 79 78 80 83 86 88 90 93 92 94 97 98 94 93 92 94 94 84 74 47 55 58 62 72 66 62 58 60 62
76 76 77 79 79 78 77 80 80 79 79 80 79 76 79 83 85 83 86 89 90 94 98 100 98 97 96 94 94 89 92 83 69 59 53 48 47 47 62 56 59 60 65
80 79 78 76 78 74 83 84 80 78 79 78 81 83 87 90 87 84 83 82 83 91 97 98 98 94 91 90 85 88 86 84 83 63 55 50 47 45 46 56 59 60 64
85 83 82 81 80 78 82 82 86 83 87 91 97 98 93 86 86 89 84 83 79 77 80 84 92 88 85 83 86 88 78 73 67 65 56 50 51 47 52 48 65 59 61
86 87 88 86 84 82 82 81 84 95 100 100 100 100 98 96 87 83 78 70 66 67 64 61 73 75 72 73 72 76 70 72 67 60 58 65 52 50 53 53 71 59 59
90 92 89 90 92 90 84 83 89 100 100 98 93 89 86 85 81 77 67 72 66 72 70 73 71 71 73 73 68 66 77 85 77 56 59 52 57 56 56 58 65 71 65
96 92 100 100 90 94 86 85 92 92 96 94 84 81 84 76 80 73 63 61 64 63 66 67 66 59 66 71 69 62 74 86 74 72 59 68 62 60 66 62 63 64 62

GFSMA_sfc_rhum_084.txt.gz
RH
57 51 50 50 47 46 44 43 40 36 36 38 41 40 40 39 38 39 40 71 69 68 66 62 60 64 76 77 75 75 74 73 70 70 69 66 62 63 65 65 65 65 64
51 53 51 51 47 46 42 39 38 40 40 43 43 43 44 45 43 44 42 45 76 75 74 71 65 62 64 72 75 76 77 76 76 74 73 72 69 66 64 63 63 65 64
54 54 49 52 52 51 45 45 40 46 50 48 45 43 45 44 44 44 44 44 48 86 82 75 73 68 65 65 67 71 75 75 79 78 78 76 75 72 70 67 64 64 65
62 57 53 53 51 50 50 50 49 52 49 46 43 45 46 46 45 43 42 42 43 44 69 82 79 75 71 68 69 71 67 73 76 77 76 78 79 77 75 72 69 67 68
65 57 52 51 52 51 52 51 52 49 48 46 47 46 47 47 45 42 40 42 45 49 46 68 85 85 83 78 73 69 68 69 74 74 72 74 77 79 79 78 75 72 70
65 62 53 50 53 54 52 52 50 48 46 45 49 49 47 45 44 43 41 41 43 48 46 50 52 56 88 82 79 72 66 69 74 73 73 70 71 72 73 76 79 78 73
58 58 52 51 54 54 53 50 49 51 52 53 62 66 47 45 44 42 42 41 43 44 49 51 53 51 52 80 77 70 67 74 70 68 68 67 67 67 67 67 68 74 79
64 66 63 58 56 61 57 55 55 57 55 59 65 62 55 47 43 43 42 44 45 45 48 50 52 53 56 54 71 81 72 66 65 66 66 65 64 68 69 70 72 74 75
88 80 78 86 86 85 78 69 62 62 74 77 77 59 59 54 50 42 49 47 46 46 47 50 51 55 57 59 66 72 80 73 65 65 64 60 66 66 67 68 66 69 73
85 95 95 96 98 97 96 97 96 94 82 75 82 69 59 55 58 52 48 49 48 43 47 47 49 53 56 58 75 83 83 79 66 63 62 65 66 67 67 67 67 67 69
92 98 98 99 99 98 99 99 97 99 99 97 88 88 69 70 74 75 50 47 49 46 48 49 50 50 55 57 58 75 83 72 67 66 64 66 66 68 67 67 67 68 67
98 99 99 98 97 97 96 96 97 99 97 97 96 96 88 70 61 71 66 50 53 50 53 53 53 54 56 57 72 88 86 79 75 72 70 68 70 71 70 74 69 67 66
95 95 96 98 97 94 88 92 94 94 93 94 87 83 78 68 60 70 71 60 65 53 51 51 54 55 58 60 67 85 86 80 77 74 70 72 74 75 76 80 71 66 65
88 86 94 95 89 85 86 86 89 90 89 89 84 81 76 73 73 70 66 66 70 66 58 55 57 57 59 65 77 86 77 80 77 75 76 77 76 76 76 81 84 81 81
86 88 93 92 92 87 89 86 85 87 86 86 80 78 76 75 78 76 75 71 72 72 60 52 60 66 65 71 80 77 79 86 82 78 80 79 80 83 82 82 80 81 82
80 80 86 86 87 83 78 75 76 75 74 72 74 72 72 72 72 76 79 77 78 73 75 64 68 73 76 75 82 77 82 85 79 79 78 78 77 80 82 84 83 83 82
79 81 82 80 74 70 66 66 67 70 68 68 73 70 70 71 71 72 78 80 86 80 87 88 88 86 83 87 86 82 85 82 86 87 77 77 74 81 82 82 82 80 82
73 75 75 72 67 63 61 64 68 67 65 69 69 74 70 68 69 67 71 76 76 77 87 95 93 94 92 91 90 89 84 77 79 79 76 69 74 79 77 77 75 79 81
71 71 69 67 65 65 61 59 62 65 66 64 67 69 68 70 71 72 74 77 82 83 89 91 93 90 92 90 92 86 86 84 65 80 71 73 67 75 75 68 64 67 72
66 67 65 66 65 62 61 61 61 63 64 64 68 67 66 70 68 71 75 75 77 84 83 86 90 94 93 91 91 93 94 87 75 50 60 61 62 74 69 61 58 61 63
63 62 63 63 66 66 64 65 66 64 65 66 69 65 68 74 84 77 73 76 81 86 92 96 97 96 95 93 95 91 94 88 76 66 65 50 48 48 61 54 54 60 65
64 63 64 63 65 63 79 80 70 64 62 61 65 67 68 85 82 84 85 82 76 82 91 97 96 93 88 88 85 89 90 88 89 66 60 55 45 46 42 47 57 59 61
69 68 66 63 67 62 84 83 80 67 71 73 80 82 81 75 84 81 82 82 82 81 79 80 88 86 85 81 85 90 85 86 79 56 58 57 50 46 44 42 64 60 60
75 75 73 69 68 67 85 85 87 79 90 100 100 100 91 92 86 84 77 78 68 61 59 58 69 71 71 74 76 81 75 69 64 59 63 61 47 43 46 46 66 61 59
79 80 75 75 78 76 87 87 88 97 99 98 95 83 75 75 80 80 71 69 53 57 68 72 69 71 72 70 63 63 73 75 63 55 59 53 58 46 48 48 59 61 63
88 84 91 90 82 81 86 87 85 82 94 87 72 72 86 77 82 81 67 61 55 48 59 66 65 69 66 68 66 56 70 95 70 65 49 63 53 50 64 52 55 62 62

GFSMA_sfc_rhum_087.txt.gz
RH
59 51 47 46 46 43 41 43 39 36 35 34 34 34 33 34 35 38 41 74 71 67 64 63 62 62 70 78 75 75 74 74 71 71 70 68 64 62 62 62 64 65 64
54 53 47 49 45 42 41 41 38 36 34 34 38 39 39 41 40 41 45 55 77 76 73 70 69 66 64 67 76 79 80 78 77 75 74 74 72 69 65 64 62 63 64
45 45 45 47 47 45 41 39 35 35 39 38 42 40 40 40 43 43 44 46 61 85 81 76 74 72 69 66 67 70 76 77 78 78 78 78 77 76 73 70 67 64 65
49 50 49 51 49 49 49 44 43 43 47 47 44 41 43 44 42 41 42 43 46 43 77 83 79 75 74 72 69 69 70 78 79 77 76 78 79 80 78 76 73 70 68
56 56 57 56 50 58 48 48 48 46 49 48 46 42 45 46 44 41 40 41 42 48 50 77 86 84 83 78 74 73 73 72 76 74 73 73 74 76 78 78 78 76 73
65 65 57 52 51 61 50 50 49 49 48 46 41 45 50 50 47 44 40 38 42 46 47 51 58 61 87 82 80 77 70 70 74 74 74 70 70 71 69 72 74 76 79
67 65 62 52 56 61 55 52 50 52 53 49 55 56 54 47 44 43 41 43 42 44 46 52 56 57 68 79 78 73 68 72 73 71 69 69 68 66 68 69 73 73 74
64 67 67 59 62 64 60 61 57 57 56 56 68 63 70 61 47 45 44 44 43 45 48 50 51 54 61 66 82 81 74 69 69 68 67 67 65 68 66 67 68 69 71
78 76 75 80 84 85 83 82 81 62 71 72 70 70 66 63 53 48 49 48 46 46 47 52 51 55 59 67 73 76 78 76 64 66 67 62 66 66 67 67 67 67 67
80 87 92 85 89 91 95 95 95 94 84 84 84 78 70 68 62 58 56 51 50 43 45 51 53 55 58 65 83 82 82 81 65 64 63 66 66 67 67 67 68 68 68
91 92 94 96 96 97 98 98 99 99 100 99 98 97 93 92 85 78 63 55 56 50 52 52 51 54 58 63 66 82 82 73 65 63 68 66 66 68 68 69 70 68 66
97 98 99 98 96 97 99 98 98 99 99 99 99 98 95 95 96 94 83 61 57 54 55 56 58 61 62 66 78 88 87 80 74 71 68 70 73 71 72 72 73 68 67
90 93 97 98 98 97 98 98 98 96 96 96 97 98 96 88 78 74 73 69 68 60 58 59 59 62 60 69 76 84 86 82 78 74 72 75 77 75 75 76 77 70 71
81 79 90 92 94 97 97 97 97 95 93 96 94 90 86 82 80 77 76 76 76 69 63 60 64 64 67 72 88 85 84 84 80 80 78 78 78 79 78 78 80 81 79
82 81 84 88 92 96 98 97 96 93 91 92 90 88 87 86 86 85 82 81 77 81 73 66 73 72 74 76 87 77 84 87 85 85 85 81 79 80 84 82 82 79 80
83 92 91 90 95 96 95 93 95 90 89 87 82 81 80 82 85 88 89 84 84 82 85 68 78 80 79 75 85 80 86 85 81 81 80 80 77 78 80 82 83 81 80
75 83 87 95 95 94 90 88 85 81 77 76 77 76 78 79 80 81 85 84 86 86 85 88 89 86 88 86 85 84 88 87 89 86 80 78 77 81 79 79 81 82 79
74 77 80 87 86 86 81 79 77 71 69 72 72 78 75 70 74 73 77 80 85 78 85 88 94 95 93 92 92 91 84 77 80 84 78 73 74 80 76 73 73 74 78
72 74 77 80 78 75 69 65 66 68 67 69 70 75 74 74 76 78 80 81 84 81 90 96 99 96 96 92 95 89 88 86 67 84 74 74 68 76 73 66 63 63 67
68 72 73 72 72 68 68 68 67 68 71 70 74 73 72 74 75 76 81 79 84 92 89 91 95 98 95 93 95 97 97 90 79 54 67 68 66 72 67 61 59 62 66
63 65 68 68 70 70 68 71 70 70 72 72 72 70 74 77 83 79 79 80 84 90 94 99 98 98 97 96 98 95 97 93 85 77 73 68 68 70 79 59 57 60 63
64 66 67 66 69 64 76 77 72 70 68 69 72 73 75 84 82 81 82 81 79 89 94 99 100 98 94 93 92 96 96 96 97 78 78 79 59 70 60 62 57 59 60
69 70 68 67 68 67 82 83 79 69 75 78 84 84 80 76 86 86 85 83 82 81 83 84 93 92 93 90 92 96 93 95 91 73 76 78 66 67 62 50 64 59 59
72 75 76 71 71 68 85 86 84 80 87 99 98 98 92 93 92 86 89 91 83 74 70 68 80 81 80 82 87 89 88 87 79 71 75 86 64 63 65 66 60 62 59
80 81 78 77 78 78 89 89 89 99 99 98 95 90 83 81 83 84 82 88 74 69 67 66 69 72 68 70 72 81 94 95 89 74 71 71 69 69 67 67 74 65 62
81 86 90 90 82 84 89 91 89 85 95 90 87 82 82 76 78 84 78 74 72 67 70 82 84 80 75 75 67 74 94 98 94 89 73 87 70 69 86 68 79 82 86

GFSMA_sfc_rhum_090.txt.gz
RH
78 74 75 78 75 72 70 69 66 58 54 50 45 47 46 46 49 57 60 78 72 70 63 62 63 63 65 76 77 75 75 75 71 70 70 69 65 63 62 62 62 63 64
71 74 66 65 68 62 63 60 56 57 52 50 47 51 53 55 59 59 66 72 80 76 74 68 67 67 66 65 69 78 80 78 77 77 75 75 74 72 68 66 64 62 63
70 69 66 67 64 62 56 56 54 51 52 50 54 56 56 57 59 57 60 70 76 85 82 74 73 72 71 69 67 69 74 78 78 78 79 78 78 78 76 74 71 68 65
60 63 66 66 64 65 66 64 60 58 64 64 67 62 60 61 60 59 54 62 70 62 85 83 81 76 73 72 71 69 70 78 79 79 76 77 78 79 80 79 78 74 71
61 65 69 71 69 73 69 64 63 61 66 68 67 62 64 64 61 53 57 55 56 63 69 85 88 85 83 76 73 71 72 76 78 77 74 74 74 74 75 75 77 79 78
68 73 75 73 71 75 69 67 66 68 66 69 53 52 65 68 65 66 58 49 53 58 61 65 83 83 88 82 77 75 72 71 73 74 75 73 71 69 68 68 73 74 74
76 81 77 70 69 74 70 64 65 66 70 69 72 71 72 63 61 63 62 60 56 58 60 69 75 77 88 84 80 75 70 70 73 74 71 70 68 68 69 70 70 71 72
81 84 84 77 69 77 76 69 70 74 71 69 79 83 88 80 71 60 60 58 60 60 62 64 66 72 84 94 89 83 74 74 71 70 69 69 67 68 67 68 68 68 68
84 81 82 86 87 92 90 90 92 93 84 84 82 88 91 87 80 63 68 64 62 63 66 66 67 69 75 88 87 84 78 76 65 67 68 66 68 68 66 67 68 68 68
88 88 88 90 93 97 97 97 98 98 98 98 96 93 94 92 77 80 76 67 65 58 63 69 68 71 73 85 86 82 80 79 66 64 68 69 68 68 67 68 68 68 68
94 92 94 95 97 98 98 98 99 99 99 99 99 100 98 96 94 87 81 72 70 65 63 66 70 75 73 80 92 90 84 76 65 63 69 68 68 69 68 68 69 69 69
98 96 96 98 98 98 99 98 98 98 99 99 99 99 99 98 98 97 98 96 82 66 72 71 74 79 83 90 86 89 87 82 75 71 70 71 74 74 72 71 70 71 69
98 98 97 99 99 98 97 98 99 99 99 99 98 98 99 98 97 95 92 86 76 71 68 73 77 81 75 94 94 90 88 82 78 75 76 80 77 76 74 74 72 73 75
91 88 96 97 97 97 98 99 99 98 98 98 98 98 97 97 95 89 84 83 84 81 76 73 79 80 90 96 90 90 94 86 83 81 81 80 78 79 80 77 76 76 77
90 90 94 96 96 96 96 98 98 98 98 98 97 96 97 96 91 90 86 83 84 86 87 80 93 91 93 96 89 87 95 87 85 84 83 81 79 79 78 79 81 81 80
93 91 96 93 95 93 94 98 98 98 98 98 98 96 92 91 92 93 94 92 92 90 90 82 97 94 90 89 87 89 92 88 82 80 80 80 78 78 80 81 82 80 81
88 96 96 98 97 94 97 98 98 98 97 97 94 91 90 91 95 97 96 95 95 95 97 96 97 95 95 94 91 94 92 90 91 84 79 77 77 80 78 78 77 78 81
85 90 89 97 98 98 98 98 96 94 94 92 91 91 89 86 94 94 96 96 96 95 93 93 97 98 97 97 95 94 86 78 83 82 80 74 74 80 76 73 71 71 72
83 89 89 91 94 96 96 95 92 89 89 87 86 88 88 89 92 93 94 96 96 91 92 98 100 98 98 96 97 92 90 88 70 82 75 75 70 74 75 66 63 63 66
80 87 89 86 85 81 81 85 82 83 82 85 87 88 87 88 89 91 92 94 93 96 96 98 98 99 98 97 97 98 98 93 86 59 67 68 71 72 69 62 59 63 65
79 81 86 82 76 77 75 80 80 82 84 86 87 85 87 87 85 86 92 94 92 94 97 99 98 99 99 99 99 98 98 97 90 80 73 72 71 72 79 64 58 61 61
83 82 84 86 86 74 79 80 80 80 78 79 84 84 87 88 84 82 84 84 89 91 94 99 100 99 98 96 96 98 98 99 99 85 82 80 69 74 73 74 55 58 59
89 88 88 86 87 84 79 83 83 80 84 86 89 88 88 83 89 93 86 83 82 81 84 90 96 97 96 95 96 98 97 97 96 82 83 85 67 77 69 61 62 59 58
92 92 91 89 88 84 83 84 84 88 91 92 92 93 92 95 94 94 94 97 94 90 84 78 91 92 92 91 89 91 93 92 81 72 76 84 77 76 79 77 60 63 59
89 88 92 92 91 90 86 88 89 96 100 100 99 95 95 95 90 84 92 96 93 83 66 64 73 73 75 76 82 92 98 93 92 86 85 78 76 78 76 78 81 65 62
89 91 93 96 92 92 90 91 92 99 99 98 96 90 92 92 85 85 93 93 92 82 87 91 90 84 81 80 72 88 95 96 94 93 85 88 80 79 89 81 93 91 93

GFSMA_sfc_rhum_093.txt.gz
RH
83 81 84 91 96 97 94 97 92 81 74 66 56 58 54 53 50 60 67 82 74 72 64 64 64 65 68 74 79 76 76 76 73 72 72 71 68 65 64 63 62 62 62
77 79 80 86 89 84 84 80 79 74 67 57 53 52 54 53 52 64 60 72 81 76 75 67 66 67 67 67 68 75 81 79 78 77 76 76 76 75 71 68 67 65 63
73 76 79 82 79 72 71 70 66 62 61 56 57 55 58 59 64 65 68 67 77 86 82 73 72 71 71 70 69 69 78 81 80 79 79 80 80 79 78 77 74 71 69
69 76 74 72 69 67 66 66 65 63 65 65 66 64 64 63 65 65 64 67 70 64 85 84 82 78 75 72 69 69 73 80 82 82 79 77 79 78 80 81 80 79 75
66 69 71 71 66 70 71 69 70 64 66 72 70 66 67 66 68 60 66 63 72 74 79 84 90 86 83 77 72 70 71 77 82 81 76 77 74 74 75 73 74 77 79
63 65 72 69 72 79 77 74 66 71 67 68 60 59 66 69 73 69 66 58 59 63 72 78 88 87 89 84 77 75 73 73 77 75 76 74 72 69 68 69 74 75 74
68 74 79 75 77 74 69 68 71 72 78 72 73 72 72 70 73 66 69 63 58 61 70 77 81 87 91 83 81 76 71 71 74 75 75 72 70 70 70 69 69 69 70
77 80 82 78 74 81 73 70 73 77 75 76 77 85 87 79 75 70 64 57 65 65 71 70 75 85 95 95 90 83 76 71 74 72 71 70 71 68 68 67 67 68 69
77 79 90 90 89 89 90 89 88 84 85 86 82 87 94 93 84 75 67 66 66 67 76 74 76 77 89 94 90 87 80 78 72 71 70 70 71 67 67 66 67 66 68
89 93 94 94 92 94 96 96 98 98 96 97 96 96 94 94 90 85 80 75 71 63 70 76 80 78 84 88 88 83 82 80 68 67 70 73 70 67 68 66 67 66 69
93 88 88 96 97 98 96 96 99 99 99 99 98 99 99 99 98 98 87 78 68 67 74 72 77 80 84 95 96 92 86 76 67 66 70 73 70 69 68 68 66 70 68
99 96 97 96 97 98 98 98 97 98 98 98 98 98 98 98 97 98 99 95 92 86 73 74 82 88 92 96 89 89 87 83 73 72 73 76 75 72 70 70 68 71 75
98 98 97 98 99 99 99 99 99 99 99 99 96 96 96 97 98 96 97 99 93 76 74 76 81 89 85 97 96 92 88 83 77 74 77 80 78 76 74 73 72 71 73
95 92 97 97 98 98 98 99 99 99 99 99 99 98 97 96 98 98 98 98 94 85 79 81 86 92 93 95 94 92 94 90 85 83 83 80 78 78 78 77 76 76 77
96 96 96 96 95 96 98 98 99 99 99 99 98 98 97 96 98 98 96 89 85 88 87 85 94 95 98 96 94 96 96 88 84 84 82 80 78 78 78 79 78 77 79
94 93 96 95 96 96 98 98 98 98 99 99 99 99 98 98 98 98 96 89 85 80 81 87 97 97 95 92 92 96 95 88 83 81 80 79 77 78 79 80 78 78 78
94 96 99 98 97 96 97 97 97 97 98 98 99 98 98 96 96 94 96 96 94 92 91 98 98 96 97 97 97 94 95 95 92 83 79 78 76 79 78 76 74 74 76
81 92 93 95 98 98 97 98 98 98 98 98 98 99 98 94 94 96 96 96 96 95 95 96 98 99 98 95 95 95 90 83 87 80 82 79 75 80 77 73 69 69 69
80 85 92 93 95 98 99 99 98 98 98 97 96 96 95 93 94 96 95 95 97 97 96 96 100 99 100 97 98 94 91 89 74 84 77 74 73 76 79 68 64 64 66
82 84 88 92 92 92 95 97 98 98 98 97 95 95 94 91 92 95 96 96 96 97 97 97 99 100 98 98 97 98 99 95 91 67 74 66 74 73 75 65 60 61 63
85 84 85 89 88 88 88 87 87 90 92 91 94 93 91 91 90 87 93 96 96 96 98 100 99 100 100 99 99 98 99 98 95 85 75 75 78 76 83 66 59 61 60
90 92 89 88 91 85 80 85 86 88 87 87 91 90 92 95 92 89 90 91 90 95 97 99 100 99 98 97 98 98 98 99 99 91 86 84 73 78 81 73 61 58 59
93 94 93 92 91 91 84 82 84 85 88 91 93 92 93 89 92 94 91 90 89 87 86 93 95 94 96 96 96 98 98 97 97 89 86 89 72 71 66 70 60 59 59
83 90 93 92 91 89 85 83 85 92 92 94 94 96 92 95 94 94 96 96 95 94 92 92 93 93 94 94 94 92 93 94 80 77 81 91 72 78 82 77 61 60 59
86 89 88 90 93 92 88 87 87 94 99 98 94 90 87 89 89 90 94 98 97 91 77 77 82 84 85 85 87 92 98 94 94 86 81 75 78 76 78 79 79 60 62
86 84 90 94 92 95 91 90 90 96 99 98 97 97 89 93 88 89 95 97 98 93 87 89 88 84 86 86 83 92 95 96 95 91 86 86 81 80 87 84 94 94 93

GFSMA_sfc_rhum_096.txt.gz
RH
97 94 93 89 79 90 95 99 98 95 89 79 73 71 68 62 58 63 69 86 78 75 69 66 67 68 74 78 80 78 77 76 74 73 73 72 70 67 65 65 64 63 62
96 94 93 90 91 89 92 98 97 93 82 75 69 62 61 56 55 62 62 73 84 76 76 68 67 68 68 68 69 75 80 80 79 77 76 76 77 76 74 71 70 69 67
93 92 84 84 83 84 88 92 91 84 78 68 63 59 59 62 64 64 59 64 74 86 81 73 72 70 70 69 69 70 78 82 80 81 80 80 80 80 81 79 78 76 74
85 86 86 81 79 81 82 84 82 78 72 69 65 64 66 65 66 68 67 62 68 66 83 84 82 78 76 72 69 67 72 80 83 84 80 80 80 80 80 80 81 81 76
75 80 84 82 77 81 77 72 75 69 72 73 71 70 73 70 68 63 68 71 70 75 80 83 90 88 86 78 72 71 70 76 84 83 79 77 76 75 75 73 74 76 77
70 74 75 73 71 74 73 71 70 73 69 70 66 67 72 70 70 73 69 63 72 78 81 82 90 92 88 83 76 74 74 74 79 78 76 76 74 72 69 70 73 72 71
74 76 70 69 71 67 66 65 72 71 76 72 78 78 76 69 73 75 69 70 67 73 78 83 90 94 93 84 82 79 76 72 76 75 78 74 71 70 70 69 69 69 70
75 76 74 67 69 71 74 72 71 82 77 82 83 86 84 78 80 74 78 66 63 66 76 77 84 92 95 96 90 82 82 71 74 78 74 72 72 70 68 66 67 67 67
83 77 78 78 83 82 83 84 82 82 83 88 83 87 96 90 86 80 78 74 69 70 80 77 82 91 93 94 90 87 81 80 74 73 72 71 72 69 67 66 66 66 65
81 87 86 85 83 84 89 86 84 83 90 93 98 97 93 90 90 87 83 79 72 67 81 84 83 88 92 93 90 84 83 81 71 72 73 73 72 69 67 67 66 66 67
90 89 93 97 98 99 96 96 98 97 95 93 96 99 99 99 96 96 96 87 79 72 76 79 80 81 89 94 95 90 85 75 70 66 70 73 74 70 68 68 68 68 71
99 93 94 96 94 98 98 98 98 99 98 98 94 93 93 95 97 99 98 97 89 92 90 73 78 83 90 92 91 88 88 85 73 72 72 76 78 74 70 69 69 67 71
99 99 98 96 98 97 98 98 99 99 99 98 98 97 96 91 95 89 91 96 98 96 89 82 81 87 88 97 96 94 88 86 78 74 74 81 78 77 74 74 72 71 72
99 99 99 99 99 98 97 98 98 98 99 99 98 98 97 96 97 95 90 92 99 98 92 88 87 93 96 97 95 93 95 91 87 81 83 82 80 79 77 77 77 77 78
99 98 99 98 97 96 97 98 99 99 99 98 98 98 97 97 98 97 94 86 86 98 95 89 96 97 98 98 95 96 96 89 86 85 84 81 80 78 78 78 78 78 77
98 98 98 97 97 97 96 98 99 98 99 99 99 99 98 98 98 99 98 98 95 92 94 92 98 98 97 96 96 97 96 91 85 81 82 80 77 78 79 79 77 77 77
90 96 98 99 99 98 97 98 98 97 98 98 99 98 98 99 98 99 99 97 94 87 86 99 98 98 98 98 99 97 96 97 96 82 79 79 78 77 78 76 73 72 73
78 85 91 95 97 99 99 98 97 96 98 98 97 98 98 99 98 98 98 97 95 96 94 96 99 100 98 97 97 97 93 92 96 84 83 81 79 78 79 74 69 68 68
83 82 85 92 95 96 98 99 98 98 97 96 95 98 96 98 98 98 97 98 98 97 95 96 100 99 100 99 99 94 93 92 83 80 82 78 76 78 79 74 66 64 64
86 88 86 88 92 93 95 96 98 99 99 98 98 97 96 98 96 97 98 97 97 97 98 96 100 100 99 99 98 99 100 97 92 70 79 74 74 76 76 71 63 60 62
89 89 91 91 90 90 88 92 90 96 99 99 99 98 98 97 98 96 97 97 96 96 99 100 100 100 99 99 98 99 99 98 96 90 84 88 86 83 81 71 63 62 60
92 92 92 92 94 87 86 86 87 89 90 94 96 97 97 99 97 95 94 92 88 94 96 98 100 99 98 98 99 99 99 100 99 97 95 93 83 85 80 85 65 60 59
92 93 94 94 94 94 88 88 86 94 93 94 95 96 97 97 96 95 94 95 94 92 88 88 95 96 97 96 97 99 98 98 97 96 94 94 80 81 73 64 62 60 60
93 92 92 92 91 87 88 90 89 93 96 95 96 96 95 96 96 96 97 99 98 96 94 93 90 92 92 94 89 93 95 94 84 87 87 95 84 75 73 71 64 59 61
91 93 91 94 94 90 89 91 93 97 98 95 94 95 91 92 91 92 95 98 98 95 85 88 88 87 86 87 91 96 99 97 95 85 83 79 77 76 78 76 76 64 63
85 87 92 90 82 87 87 89 93 98 99 98 98 96 90 88 88 91 94 96 98 96 90 92 92 91 90 91 88 92 94 98 96 94 86 85 79 77 84 80 91 94 93

GFSMA_sfc_rhum_099.txt.gz
RH
97 96 93 92 81 94 92 98 98 97 94 89 83 80 76 71 70 67 76 84 86 82 72 67 69 73 75 77 78 78 78 78 74 73 73 72 70 68 67 67 67 67 66
92 96 98 96 90 85 94 94 95 95 96 89 80 77 73 70 65 62 68 72 85 81 79 70 69 69 70 70 72 74 80 82 80 78 76 76 77 77 76 74 73 72 71
92 93 97 99 97 92 93 94 95 91 92 83 80 72 66 65 63 60 65 65 73 86 81 73 72 70 70 69 69 71 78 80 81 84 81 79 80 81 81 81 80 79 78
90 93 93 95 96 96 90 93 95 90 91 86 79 72 65 66 66 67 67 61 65 64 81 82 80 78 75 72 71 68 70 79 83 83 83 82 82 82 80 78 80 80 79
88 85 88 86 83 91 90 86 89 86 84 81 75 71 70 73 71 65 73 70 65 69 77 83 88 87 86 80 73 70 71 75 83 83 82 79 80 75 75 74 75 77 77
84 88 77 80 84 83 85 85 82 80 78 73 63 66 78 75 75 76 71 67 75 75 79 79 88 93 93 83 78 74 72 74 78 81 79 78 76 74 70 72 73 71 71
78 83 83 84 84 82 78 77 75 75 75 72 79 80 81 75 75 75 74 75 73 76 84 83 87 92 94 84 82 77 77 73 73 80 78 78 75 72 72 70 69 68 69
82 86 86 84 84 83 75 72 74 77 70 79 78 89 86 81 79 74 79 78 76 76 81 83 89 93 96 96 91 82 80 75 74 76 79 76 73 73 71 67 66 66 67
90 89 87 87 84 82 80 80 78 72 74 88 85 87 96 90 87 83 84 85 74 77 80 81 85 94 96 96 91 88 84 80 76 77 75 73 74 72 69 67 66 67 65
93 92 89 87 86 85 84 85 85 81 84 86 96 96 93 88 89 89 87 83 76 73 82 82 88 92 93 95 90 88 81 82 73 75 74 73 73 71 69 67 67 67 67
96 96 98 96 93 92 88 92 92 88 89 91 89 99 98 98 96 94 96 94 89 83 85 83 85 87 85 88 88 86 80 75 71 69 72 74 76 74 70 68 68 67 70
95 95 96 97 99 99 98 98 98 98 94 95 95 98 96 97 98 98 98 97 92 93 88 86 81 82 86 89 89 89 86 83 72 69 69 72 78 75 73 70 68 65 70
98 99 98 96 96 96 98 99 99 99 99 98 98 96 97 97 96 93 92 93 98 98 97 94 91 93 92 93 93 94 89 86 80 74 73 79 82 78 75 74 72 70 73
97 97 95 96 97 97 98 99 99 99 99 99 99 99 97 96 97 95 89 91 99 99 97 94 95 96 92 94 95 93 94 91 86 77 81 84 82 79 77 77 76 75 75
98 99 99 99 99 99 98 99 99 98 98 96 96 98 98 95 97 94 92 90 86 94 97 95 97 97 97 97 96 97 98 92 90 88 86 84 82 80 80 79 79 76 76
93 98 99 99 99 99 99 99 99 97 98 97 97 98 98 97 98 98 97 95 97 90 95 96 98 99 98 97 96 97 97 93 89 85 84 83 80 80 80 79 78 76 74
86 90 95 97 98 99 99 99 98 98 98 98 98 98 98 97 98 98 97 98 99 99 98 100 99 99 99 99 99 98 97 97 96 84 82 81 79 78 79 78 75 72 71
79 79 80 86 91 93 97 99 98 98 98 98 97 98 98 98 98 98 99 99 98 96 95 98 100 100 99 99 99 99 98 95 97 87 83 81 80 79 80 77 72 68 68
83 83 84 85 87 90 92 93 96 99 98 96 95 97 95 98 98 98 98 98 98 97 95 97 100 100 100 97 99 96 97 97 91 83 80 82 80 78 81 78 69 66 63
86 88 89 88 88 89 89 90 92 95 98 98 99 97 96 97 98 98 98 98 98 98 98 97 99 99 100 100 98 99 100 97 96 79 81 79 81 77 77 79 70 64 62
87 89 90 92 92 88 86 91 91 90 90 92 97 99 99 98 100 96 97 98 98 98 99 99 100 100 99 99 98 99 99 99 98 92 86 85 86 93 91 80 69 65 61
85 87 87 91 94 84 87 89 90 94 93 91 92 94 97 100 99 99 99 96 94 97 98 98 100 98 99 99 99 99 99 99 99 96 95 92 90 96 88 88 70 66 60
92 92 92 91 91 93 85 85 90 92 96 94 94 96 96 97 98 98 98 98 97 94 89 91 96 96 98 95 97 99 99 99 98 97 94 98 93 92 81 76 76 65 61
90 93 93 94 95 84 78 83 87 96 97 97 96 96 97 96 96 99 99 100 99 97 96 94 90 94 93 93 92 94 95 96 91 96 94 99 88 93 78 74 68 63 62
89 88 90 94 94 91 77 69 82 97 99 97 95 91 92 94 92 94 98 100 99 99 97 98 97 96 95 94 91 92 98 98 98 94 95 91 85 82 80 78 73 66 63
83 85 89 90 83 88 81 72 72 87 92 93 93 95 91 92 90 92 98 97 99 98 98 100 98 95 93 92 88 88 95 100 98 97 86 88 80 78 87 78 84 89 92

GFSMA_sfc_rhum_102.txt.gz
RH
98 97 95 93 89 98 99 99 99 98 96 92 86 80 77 74 74 74 81 84 87 85 74 70 73 76 77 78 77 77 78 78 76 73 73 73 71 69 68 68 69 69 69
98 98 98 95 94 95 98 96 95 97 94 95 90 87 84 81 74 71 70 77 81 86 83 72 69 70 72 72 74 77 80 82 81 80 76 76 76 76 76 76 76 76 75
97 97 98 99 98 96 94 96 94 96 96 91 92 84 79 78 75 68 65 69 71 88 82 72 72 71 71 70 69 71 77 81 82 82 82 80 79 80 80 80 81 80 80
96 97 98 98 98 98 97 98 94 96 98 93 88 82 77 71 69 67 64 67 67 64 79 82 80 79 76 72 71 71 71 78 82 83 82 84 83 83 82 76 78 77 77
96 96 97 97 97 97 97 98 98 91 96 92 91 84 79 74 71 63 74 72 67 66 70 79 86 86 85 80 75 72 69 75 82 84 83 83 83 81 75 75 77 76 74
93 96 98 98 97 92 93 94 95 93 91 84 72 70 78 74 76 78 73 69 74 67 70 76 84 87 90 86 78 74 73 74 77 81 82 80 79 74 73 75 72 72 71
91 95 94 95 95 87 78 86 89 91 93 82 85 83 80 83 81 74 74 76 76 76 80 83 85 90 91 87 84 78 76 74 74 76 82 79 76 74 72 72 70 68 67
93 91 91 95 89 91 85 85 83 85 83 82 83 85 85 78 80 71 75 74 76 77 82 87 89 92 94 96 93 85 78 75 74 77 79 78 76 73 73 70 67 66 65
94 88 89 91 95 93 84 90 89 85 82 84 74 86 94 93 89 87 81 78 80 81 82 85 89 93 95 96 93 89 82 81 76 74 76 77 74 74 72 69 67 66 66
90 95 92 92 92 94 94 92 87 86 81 87 95 91 93 89 91 91 88 86 83 78 82 88 87 95 96 97 94 92 83 81 75 75 71 74 75 73 72 69 67 65 72
96 92 94 94 94 94 91 91 92 91 88 83 89 97 97 97 95 93 94 92 89 87 91 92 92 93 95 94 90 88 84 80 74 73 72 73 74 73 72 70 68 66 70
96 96 94 94 95 96 94 92 92 92 90 90 95 96 91 84 91 97 97 96 95 94 91 91 90 90 90 91 89 88 85 80 75 72 70 71 73 77 75 71 68 66 66
95 94 93 93 93 93 97 96 97 97 96 96 96 97 96 94 97 94 97 97 97 97 98 94 90 91 92 96 95 94 88 86 81 72 71 73 78 78 76 73 71 71 72
97 94 94 94 94 95 98 98 99 98 99 99 98 97 94 95 97 97 96 97 98 98 99 93 96 92 93 96 94 95 94 88 85 79 76 83 84 82 79 77 76 75 76
89 93 97 98 99 98 97 97 97 98 99 99 99 99 98 97 98 97 96 95 94 94 90 97 97 96 98 95 95 97 97 94 91 88 88 87 85 83 82 80 80 79 76
90 90 91 93 96 97 99 99 99 97 98 97 97 98 97 95 96 97 96 95 95 93 93 94 97 99 97 98 98 98 98 97 93 89 87 86 84 83 82 81 80 78 74
83 86 88 91 91 94 95 97 99 99 99 98 97 97 96 94 97 98 98 97 98 98 98 99 99 99 99 98 99 99 98 98 96 88 85 83 82 82 81 80 78 75 72
76 79 80 81 81 83 85 90 94 95 99 98 98 98 97 97 98 97 98 98 98 97 98 99 99 100 99 98 98 98 99 98 98 88 84 83 82 82 82 80 76 73 70
77 80 81 84 83 84 86 84 85 89 92 96 98 98 95 97 98 98 98 98 98 99 99 99 100 99 100 99 99 99 99 99 97 91 84 83 83 82 82 81 75 72 68
80 81 79 84 84 84 86 87 88 89 88 87 91 95 97 98 98 97 98 98 98 99 98 96 99 99 100 99 98 98 99 97 98 87 87 89 84 82 81 82 77 72 66
78 81 85 86 84 82 80 92 92 93 92 90 88 89 94 97 100 99 99 97 98 98 98 99 100 100 99 99 97 98 98 98 97 94 96 96 91 91 89 81 80 72 67
82 79 77 83 90 78 76 71 82 92 93 95 94 91 91 95 95 97 99 99 99 98 98 98 98 97 97 96 97 98 99 99 99 96 95 96 88 93 91 93 75 72 66
90 88 86 87 92 92 71 70 68 80 92 95 97 96 94 90 94 95 94 97 99 99 94 92 95 94 96 93 94 98 99 99 99 99 96 99 90 94 96 87 78 74 67
88 88 88 91 93 76 72 70 73 79 86 91 98 96 96 94 93 95 96 98 98 98 98 98 93 90 91 91 91 91 96 98 97 98 95 99 95 97 85 81 78 74 67
87 87 86 91 91 89 73 71 72 86 85 76 70 94 96 94 88 90 97 99 98 98 98 97 95 94 96 94 94 96 99 98 100 99 98 96 88 85 80 78 77 68 66
86 88 87 90 86 88 78 73 69 76 88 85 80 71 79 86 90 91 97 98 98 98 99 100 100 99 97 97 95 90 96 100 99 98 96 92 82 80 88 76 78 84 88

GFSMA_sfc_rhum_105.txt.gz
RH
90 87 88 87 78 77 74 78 80 78 65 60 56 53 51 49 47 48 49 83 87 84 76 71 72 74 75 75 75 76 77 77 75 73 73 72 71 69 68 68 70 71 71
91 87 86 89 88 93 86 86 76 76 73 63 59 54 51 49 46 46 47 50 84 85 82 79 71 71 74 74 75 77 81 82 81 81 78 76 76 76 75 76 76 76 76
83 85 89 86 82 84 91 96 85 87 75 69 66 58 55 52 54 51 48 49 52 83 86 74 74 71 71 71 70 72 78 80 82 83 83 80 79 79 79 79 80 79 76
79 82 82 83 82 82 84 87 97 94 89 74 70 67 58 55 53 51 50 49 50 47 69 83 79 77 76 72 71 71 74 78 81 84 82 84 84 82 81 79 78 75 76
75 80 83 83 82 84 84 85 93 94 96 94 79 73 62 57 51 49 49 50 50 51 50 67 85 83 84 81 73 71 71 75 81 84 83 84 83 82 80 77 77 75 72
79 82 85 85 87 89 91 90 92 98 97 94 84 73 66 60 55 54 52 48 50 54 52 56 57 64 86 83 78 74 72 71 77 80 81 82 82 81 75 77 74 72 69
79 82 89 88 91 88 83 82 87 90 96 93 93 88 82 70 62 57 54 53 53 54 56 56 58 57 64 87 83 81 75 72 74 76 80 82 81 76 74 75 74 70 68
82 83 87 90 88 88 80 74 76 76 89 93 92 90 81 61 67 62 58 59 56 56 60 63 62 63 63 64 73 86 80 75 72 73 79 82 79 76 74 74 71 68 65
86 86 81 84 86 90 86 85 82 75 74 85 85 85 90 70 63 62 60 58 57 61 65 65 71 68 69 70 81 82 88 85 75 71 77 78 78 75 74 72 70 69 66
84 87 87 84 84 88 89 91 89 89 87 86 95 88 80 84 70 65 76 77 68 63 63 68 65 73 74 74 79 84 88 87 79 71 71 75 77 76 74 72 70 70 73
85 86 88 87 88 88 88 89 96 95 91 90 88 84 86 81 82 82 76 80 78 72 70 72 82 80 79 80 76 86 90 85 78 74 68 72 73 74 73 72 69 68 70
87 87 87 89 89 90 89 90 91 92 92 92 89 86 82 81 79 83 89 83 84 77 78 72 78 85 79 84 83 89 90 87 81 74 70 70 73 75 74 73 71 70 69
89 90 91 90 91 88 88 90 93 92 92 93 91 90 86 83 73 74 76 76 86 85 87 80 81 86 83 80 78 88 90 86 84 78 72 68 74 79 81 75 72 70 69
94 89 91 94 96 94 92 92 94 93 94 96 94 92 90 91 93 92 78 84 85 94 87 80 82 81 77 82 86 92 84 89 87 81 74 73 86 86 80 77 75 75 75
88 89 89 88 91 91 93 97 98 98 97 97 97 96 94 92 94 94 92 92 88 88 88 91 93 90 90 92 91 88 90 93 91 88 88 91 90 87 84 81 79 79 77
82 84 84 88 89 90 89 92 95 98 99 98 97 98 98 97 96 96 97 94 94 96 96 90 93 94 92 94 94 89 94 97 94 95 94 91 90 88 87 84 82 80 79
77 77 78 80 81 82 86 88 88 91 93 96 98 99 95 95 96 96 95 92 94 96 97 92 94 96 98 96 99 95 98 98 98 95 92 89 89 88 87 85 83 80 77
58 59 59 62 66 71 78 83 81 84 89 92 96 96 98 99 98 96 96 95 96 93 95 93 98 99 98 97 98 98 99 99 98 95 91 89 87 86 84 84 82 78 75
56 58 60 62 62 68 75 79 81 82 80 82 88 90 93 96 98 98 98 97 96 95 97 97 99 99 100 98 99 99 99 99 99 96 92 89 84 84 84 83 80 77 75
56 56 58 60 66 66 65 73 72 78 79 81 79 83 84 89 92 96 97 96 96 98 98 99 99 99 99 99 98 98 99 99 98 98 93 87 85 85 84 83 80 79 75
60 58 58 59 65 64 62 66 66 71 76 82 80 78 79 87 93 91 94 96 98 99 98 99 100 100 99 99 97 96 97 98 99 95 96 89 87 84 81 85 84 82 73
64 63 62 64 66 57 69 66 65 67 67 77 85 87 82 88 85 90 91 92 96 98 99 98 98 97 97 95 96 98 98 99 99 97 95 93 82 87 82 86 86 80 75
66 65 64 65 68 67 66 65 65 66 73 71 78 83 83 79 89 85 86 90 91 94 98 98 96 93 92 91 94 98 96 93 93 98 94 98 90 90 85 83 86 81 77
63 66 67 67 71 64 69 67 66 71 77 78 80 76 74 75 80 85 85 91 87 87 91 96 98 92 86 86 88 89 90 91 99 99 95 99 92 91 84 82 85 81 76
68 70 67 70 74 73 75 71 68 73 74 73 69 65 67 68 68 72 81 96 94 88 88 96 97 98 96 92 89 96 99 98 100 99 99 96 97 89 79 76 75 83 77
68 71 70 71 75 73 75 73 66 64 68 67 64 63 69 72 76 75 83 88 97 96 90 92 97 99 98 95 94 91 94 100 99 100 99 96 94 89 91 67 68 75 72

GFSMA_sfc_rhum_108.txt.gz
RH
64 59 62 66 65 72 74 74 60 51 46 47 41 39 39 38 37 36 37 89 88 81 77 71 71 72 74 74 75 75 76 76 75 74 73 72 71 70 69 69 70 72 72
64 69 67 69 62 71 70 73 79 75 62 38 35 36 38 37 36 36 36 39 82 84 81 78 76 73 74 75 76 77 79 80 81 80 78 77 76 75 74 74 76 76 76
65 64 68 64 66 67 85 86 81 87 66 55 42 35 34 32 32 34 36 37 43 85 84 76 73 76 72 72 72 74 79 82 83 82 82 82 80 79 78 78 79 81 77
70 64 57 62 62 61 65 67 74 89 86 90 66 52 55 39 36 35 35 36 39 39 66 81 80 77 76 73 71 70 76 80 83 84 84 85 86 83 81 80 80 78 76
64 58 56 56 55 68 72 76 77 79 86 90 93 82 62 50 39 36 36 38 40 41 40 63 85 84 82 81 74 72 72 79 82 83 84 86 87 84 83 80 78 76 74
64 61 58 58 62 76 75 78 79 83 82 80 92 85 67 58 48 41 36 34 37 40 41 42 44 53 85 79 76 74 73 75 80 81 82 82 84 81 81 79 76 74 72
78 68 65 66 78 84 78 83 86 86 92 83 97 93 87 76 67 60 46 40 41 42 39 41 42 43 47 81 80 80 75 73 74 78 82 82 82 81 80 76 75 74 69
66 67 68 68 72 89 83 81 80 82 78 74 78 68 72 62 70 61 56 56 50 51 48 44 44 47 50 49 64 82 80 74 73 72 77 80 82 82 77 76 74 72 71
70 69 68 69 75 79 88 81 71 72 67 65 75 69 83 70 50 52 65 57 48 50 48 49 49 49 51 52 63 72 89 85 78 72 71 76 82 81 76 74 74 71 70
70 73 78 72 72 77 79 78 76 72 76 73 80 82 71 71 77 58 41 45 39 39 43 47 49 51 54 58 74 83 90 90 82 75 68 72 76 77 76 75 74 71 70
69 69 72 76 79 77 77 77 80 81 83 86 84 88 88 84 77 85 84 81 68 56 52 50 51 62 66 73 80 84 95 94 82 74 68 67 71 74 75 76 74 72 70
76 74 77 78 77 77 76 77 83 86 86 90 88 88 82 82 84 80 78 65 71 55 54 54 58 66 74 76 85 92 95 92 84 74 68 65 68 75 74 76 74 74 74
92 89 86 90 92 88 79 82 88 90 89 91 89 91 88 82 72 74 75 72 72 57 58 57 59 65 75 77 79 94 97 94 89 77 70 65 72 80 82 78 76 74 74
89 84 84 87 88 88 89 90 93 91 89 96 95 94 90 88 83 78 79 84 85 72 63 64 68 67 74 85 86 98 90 94 89 83 78 72 76 86 86 86 86 77 74
75 78 79 83 84 84 85 83 91 93 96 96 94 94 94 90 88 86 87 90 92 93 79 61 82 77 83 89 92 94 93 92 90 86 86 86 88 92 92 89 84 82 80
72 75 76 74 77 76 81 84 87 87 90 92 93 97 96 93 96 96 95 92 92 92 92 71 86 88 92 93 95 94 93 92 90 86 87 94 94 92 90 89 87 85 83
60 58 61 63 65 71 77 81 83 83 86 87 87 92 92 93 97 94 94 93 96 96 97 87 87 90 94 96 98 97 94 94 91 92 95 95 94 93 91 90 88 87 83
42 39 37 38 38 44 49 64 70 71 77 80 83 88 91 88 94 94 98 96 96 97 98 97 89 96 96 91 92 97 97 96 93 97 97 95 94 94 92 91 89 87 85
36 34 34 35 39 40 42 44 45 49 56 60 67 75 78 86 91 93 94 96 96 94 94 94 90 99 99 99 100 99 99 99 98 99 97 96 94 93 91 90 89 86 84
37 35 35 35 38 40 41 46 46 48 48 56 63 66 68 74 77 81 86 91 92 97 98 98 99 100 99 99 99 98 99 99 99 99 98 96 94 93 91 88 87 86 84
35 37 36 34 36 36 35 54 50 46 48 48 46 51 64 78 89 85 83 83 84 93 98 98 99 100 99 99 98 98 98 98 99 99 99 99 97 93 89 88 86 88 83
37 36 36 38 43 35 55 62 59 49 45 46 47 49 51 66 65 75 79 86 88 91 89 98 98 97 95 93 94 98 97 99 99 99 98 99 95 94 84 82 85 84 82
37 38 37 37 38 38 54 63 64 50 51 53 58 57 53 47 66 58 68 74 78 82 86 87 94 96 93 92 93 98 96 93 91 97 95 98 98 98 88 79 91 88 83
43 44 45 43 44 43 58 66 67 55 55 57 56 53 51 49 51 60 58 63 67 69 73 74 84 87 90 89 91 89 90 91 98 99 92 98 98 98 96 87 91 89 86
50 51 49 50 52 52 60 67 67 58 56 53 48 45 47 49 56 69 64 78 68 68 66 75 80 90 93 94 96 94 99 99 100 99 97 97 99 100 98 97 90 88 86
54 55 55 54 56 57 60 66 64 51 50 46 44 43 52 52 64 67 63 60 71 68 69 74 74 77 79 85 96 96 95 98 97 100 98 95 98 96 100 95 89 94 91

GFSMA_sfc_rhum_111.txt.gz
RH
58 60 53 58 64 70 73 80 78 76 52 46 43 38 36 36 36 37 38 87 84 80 76 72 71 73 74 74 74 74 75 75 74 74 73 72 71 70 69 69 70 71 72
81 83 75 75 76 77 75 72 66 72 68 52 44 40 35 35 35 35 36 55 88 86 80 76 75 70 72 73 74 76 78 78 79 79 78 77 76 75 73 72 74 76 76
79 72 75 76 73 75 74 75 75 80 85 84 68 44 36 33 35 35 36 38 55 86 85 77 73 74 76 74 74 75 80 84 84 84 84 82 82 80 78 76 77 79 80
66 80 79 71 72 74 71 70 74 94 91 96 95 78 52 42 34 31 33 35 39 39 75 81 81 75 74 75 72 71 76 80 84 85 84 85 87 86 82 80 79 81 78
80 84 89 80 71 72 68 72 79 80 83 85 82 67 54 50 49 41 37 37 39 43 44 73 83 83 83 80 74 72 72 76 81 84 85 86 87 88 84 82 80 79 76
73 76 91 91 81 74 68 79 78 80 83 82 87 85 76 65 60 54 45 37 36 41 44 48 61 67 85 81 76 72 72 77 80 85 85 86 87 87 84 84 81 77 75
60 69 74 71 74 71 70 69 77 84 90 86 92 92 85 76 68 63 62 49 43 38 41 44 46 47 55 82 79 77 73 72 77 82 85 85 85 83 82 81 80 76 74
68 69 69 77 70 82 75 74 84 85 84 91 93 91 90 81 79 65 64 60 56 48 50 47 46 47 52 57 72 79 77 71 71 75 81 83 82 82 80 79 78 75 74
72 72 67 74 79 80 83 83 86 89 92 79 84 79 84 76 58 53 61 57 57 55 53 50 50 49 51 55 68 77 85 80 77 72 77 77 80 80 80 78 75 75 74
72 79 75 73 76 81 87 85 82 86 84 87 82 76 71 73 66 66 49 53 50 48 46 48 48 49 51 56 67 73 82 88 81 74 73 73 71 74 73 76 75 77 73
77 81 82 78 81 84 84 84 86 86 86 87 84 80 82 79 81 87 78 62 65 57 53 43 44 50 53 60 67 75 87 90 84 78 74 72 67 69 68 76 76 77 74
93 87 86 90 86 87 90 86 84 84 86 87 87 84 82 88 89 88 86 71 64 56 67 60 58 57 60 66 75 84 90 92 88 81 78 73 68 70 71 76 75 79 75
90 89 89 90 88 88 90 91 93 90 88 92 90 91 87 83 80 80 82 78 73 58 54 57 60 64 66 74 78 91 95 94 92 83 77 74 74 76 77 80 79 84 76
85 79 81 81 81 80 85 88 93 92 91 96 93 89 90 90 90 88 89 93 91 79 67 58 50 58 65 75 78 94 93 96 95 90 82 80 81 81 81 81 83 87 83
66 73 75 74 72 78 82 85 91 90 90 92 93 94 94 94 92 93 94 92 93 95 90 72 70 79 79 82 90 91 90 96 95 94 90 88 89 88 86 90 87 88 95
63 63 62 63 64 67 74 80 83 83 86 90 90 87 86 91 92 92 96 92 92 95 95 94 90 97 94 96 94 90 91 95 94 93 91 89 91 90 88 90 93 94 90
53 53 50 52 51 55 58 64 66 68 73 77 82 86 84 85 90 93 94 93 96 97 98 90 84 94 98 96 97 96 94 95 94 94 93 93 92 88 88 93 96 94 92
31 32 33 33 36 37 46 52 57 53 58 62 66 73 78 79 89 90 92 93 94 96 97 95 89 100 98 98 96 98 98 97 96 94 95 92 89 86 90 95 96 94 92
32 29 29 30 32 33 34 37 40 42 45 48 53 61 65 69 79 84 87 92 94 92 95 98 98 99 98 99 100 99 98 97 97 95 94 94 91 90 94 97 96 95 94
29 30 30 30 30 30 29 40 41 42 43 44 47 50 51 64 72 80 80 84 84 89 92 95 96 99 99 99 99 99 99 99 98 99 98 96 95 96 97 97 96 96 93
30 31 30 30 32 34 28 50 50 46 43 42 45 41 48 64 74 77 74 82 83 87 90 91 96 99 99 99 99 99 98 98 99 99 99 99 98 98 98 96 96 96 94
32 32 34 34 36 29 46 53 57 55 47 47 51 53 52 60 56 61 65 71 72 80 87 87 91 91 90 98 98 99 99 99 99 98 99 99 98 98 98 96 94 93 91
37 39 39 40 41 39 47 55 61 56 54 54 60 61 55 42 62 51 58 64 64 66 68 74 87 85 93 90 93 99 99 98 96 97 97 98 99 99 95 92 92 92 90
41 43 46 45 47 44 52 56 63 64 60 59 61 57 54 52 55 62 65 66 64 60 62 62 68 74 82 84 89 93 96 94 98 99 96 98 99 98 98 95 94 92 90
50 52 49 51 54 53 55 58 64 65 62 55 46 43 44 47 51 63 63 71 64 64 58 65 70 71 71 78 78 92 98 100 99 99 98 98 100 99 99 100 97 91 90
54 54 54 55 52 52 50 54 60 55 54 47 44 42 51 48 55 61 62 59 65 62 65 66 66 69 68 70 76 82 95 99 98 100 98 99 99 99 100 99 100 97 95

GFSMA_sfc_rhum_114.txt.gz
RH
74 73 73 74 92 94 95 97 96 90 84 67 58 54 55 60 59 58 80 88 85 81 74 72 73 74 74 74 74 74 75 75 74 74 74 73 72 71 69 69 70 71 72
89 89 88 88 89 92 95 96 95 93 94 86 62 56 50 48 53 52 62 84 87 84 82 74 74 74 74 73 74 76 77 77 78 78 78 78 77 76 74 72 73 74 75
83 87 89 92 92 93 93 96 95 94 96 89 83 72 59 48 50 48 51 68 82 89 85 75 73 73 75 74 74 74 80 83 83 83 82 83 83 83 79 77 76 77 78
78 88 89 92 89 94 95 95 96 98 98 98 94 92 82 62 45 40 43 45 63 60 84 83 80 77 75 74 74 73 78 82 84 85 85 85 86 88 84 82 80 79 80
85 91 92 95 94 96 89 90 94 96 99 99 97 94 82 61 56 47 53 49 50 56 61 78 84 83 83 80 71 71 72 78 82 83 84 86 87 88 87 84 83 81 82
89 96 96 93 91 91 92 92 92 93 95 95 94 95 94 76 70 66 55 45 47 45 54 57 74 76 86 82 78 71 71 78 80 82 84 86 87 88 85 84 84 82 80
82 92 96 84 85 89 84 87 89 93 94 95 97 97 94 88 91 90 72 59 51 43 45 47 55 71 65 84 80 78 76 73 79 82 85 87 87 84 81 81 82 83 79
76 83 86 87 91 93 91 85 87 95 93 94 97 97 97 92 91 84 77 70 65 66 62 55 53 54 55 68 76 80 76 73 70 77 83 86 86 83 80 78 80 82 78
87 84 88 90 93 94 97 94 94 95 96 95 96 90 98 91 82 87 81 73 68 66 62 56 56 58 54 60 75 77 83 79 75 72 77 81 84 81 78 76 78 80 78
80 93 91 86 93 95 95 95 94 94 96 95 96 91 84 88 85 85 75 81 72 70 66 61 56 52 51 54 69 79 83 85 79 72 70 74 78 76 77 74 75 78 78
96 94 94 94 94 95 96 95 95 97 96 97 98 97 97 96 96 96 89 78 78 68 65 59 56 55 50 53 62 73 83 85 79 76 72 70 74 72 72 72 72 77 81
95 94 92 94 93 93 94 96 96 96 97 96 97 98 95 96 95 94 95 86 82 65 59 67 61 57 59 59 70 79 82 85 84 81 75 74 76 76 72 72 75 79 80
95 94 89 88 88 88 90 90 94 94 95 97 97 96 95 92 88 86 88 86 84 72 67 55 54 56 58 74 75 84 88 90 89 84 76 74 80 80 78 76 73 76 85
90 81 76 76 78 81 83 88 92 90 90 94 94 95 93 93 95 92 91 91 93 90 78 75 56 55 69 74 81 91 91 93 91 87 83 81 84 86 84 82 80 81 84
62 65 66 67 69 74 76 84 88 86 89 93 94 92 91 90 90 92 95 95 98 97 94 79 78 65 59 82 88 92 94 97 94 92 90 89 92 90 88 88 86 86 87
64 60 58 59 59 63 67 77 77 77 77 85 85 86 87 87 89 92 94 92 93 97 98 88 84 83 86 89 94 95 95 98 97 94 94 95 94 93 92 91 90 90 91
47 47 48 52 52 54 61 66 66 64 66 68 72 76 76 80 88 91 90 89 91 94 97 92 90 96 99 98 99 98 98 97 97 96 95 96 96 95 92 91 91 91 92
35 35 37 39 37 41 46 52 54 56 60 66 67 71 70 67 82 82 86 90 91 92 95 96 90 92 96 97 96 98 98 98 97 97 96 95 94 94 92 91 91 92 95
34 35 37 37 38 39 37 44 47 51 53 52 56 60 63 70 79 77 87 86 88 85 92 95 94 94 96 99 99 99 99 98 98 99 98 97 96 96 95 94 91 93 95
38 39 39 38 40 38 38 51 54 56 54 52 56 60 58 64 67 72 81 83 82 87 88 91 91 92 99 98 99 99 99 99 98 99 98 97 94 96 96 94 93 94 96
38 39 39 41 42 39 32 52 58 62 62 55 55 54 59 67 71 63 61 80 83 86 89 89 90 87 88 92 97 98 99 97 98 99 98 97 97 96 95 95 94 98 97
47 48 50 51 54 39 50 51 55 65 64 61 63 66 65 68 63 55 60 68 69 78 82 87 85 86 85 91 91 94 97 100 99 97 99 98 99 99 99 98 97 97 97
56 59 59 60 60 58 54 55 58 69 74 74 73 74 68 50 70 69 68 66 66 63 62 74 83 79 82 74 83 90 92 98 98 95 99 99 100 99 99 99 98 97 97
63 66 69 67 68 58 57 57 59 77 79 78 76 73 72 69 65 61 72 77 75 71 69 64 77 79 77 74 77 81 87 87 91 98 99 100 99 99 99 99 97 97 96
72 73 67 70 74 72 59 56 59 81 81 76 60 57 58 60 55 54 71 82 71 66 54 57 59 61 63 65 68 77 91 95 92 98 99 100 99 100 100 100 98 96 94
69 70 66 70 66 65 59 51 54 70 76 69 64 59 59 54 52 54 66 78 82 79 73 72 68 68 67 72 69 80 91 98 95 96 96 100 99 99 100 99 99 98 96

GFSMA_sfc_rhum_117.txt.gz
RH
79 72 80 88 97 96 97 98 98 95 93 86 78 75 83 82 77 72 83 90 86 80 74 71 74 75 75 75 75 75 75 75 74 74 74 73 73 72 71 71 70 71 71
93 96 91 93 94 97 97 97 97 96 95 94 81 69 63 66 66 62 74 84 88 86 81 78 72 74 75 74 75 76 77 78 78 77 77 77 78 76 75 73 73 73 74
97 94 96 96 95 96 96 99 99 97 98 98 94 71 70 56 55 56 64 79 80 89 86 80 77 77 78 75 74 74 80 83 82 82 81 82 83 84 80 79 77 77 77
92 97 97 95 95 96 97 98 98 99 98 98 95 90 84 78 60 54 51 59 69 69 84 84 80 79 78 75 73 74 79 83 86 87 87 87 87 87 85 83 82 80 79
92 94 96 96 94 96 96 96 97 98 99 99 99 99 98 97 82 62 54 48 57 70 71 82 87 85 83 81 72 71 75 81 84 86 88 88 88 86 87 86 86 84 82
95 98 97 97 97 97 97 96 95 97 95 96 94 96 98 95 91 74 56 53 57 54 63 66 73 76 87 83 80 74 74 78 81 85 87 87 87 87 86 84 87 86 84
95 96 96 98 97 96 95 95 95 93 96 94 97 98 99 96 93 83 75 67 60 54 58 58 60 63 63 84 82 79 77 76 80 83 85 85 86 88 83 82 82 84 84
88 91 93 94 94 92 95 86 92 97 96 97 95 97 97 92 97 83 78 76 73 69 66 57 58 61 65 64 74 83 80 76 75 79 84 86 87 88 83 82 78 83 85
78 84 88 89 92 97 94 95 94 94 97 97 96 92 100 98 93 91 87 82 78 76 71 66 65 62 59 57 70 75 84 82 77 75 78 84 87 88 82 80 78 79 84
93 92 87 91 94 96 98 98 98 98 98 99 99 97 94 89 92 90 85 89 80 77 74 73 68 61 65 68 73 73 78 85 80 74 72 77 83 83 80 78 78 77 83
89 87 92 95 97 99 99 99 98 98 98 98 98 97 99 99 97 98 94 90 79 81 78 76 72 67 59 56 59 72 83 80 77 76 72 72 76 78 78 76 78 80 81
94 89 88 96 97 96 96 97 98 96 96 97 98 99 99 98 99 99 99 89 85 75 73 75 76 68 61 61 64 69 76 82 77 76 73 72 75 77 79 77 78 82 80
91 92 91 95 96 96 94 93 92 92 94 95 95 96 94 96 95 95 95 90 89 75 75 72 65 60 61 65 63 76 80 82 81 78 74 72 76 79 81 81 79 81 80
86 85 89 89 88 85 84 86 86 88 90 94 92 90 90 91 91 93 97 98 97 91 80 75 74 72 63 60 62 82 75 85 81 79 80 78 79 85 89 84 81 81 81
57 71 66 65 66 67 72 76 82 80 85 90 91 89 87 86 88 90 93 93 97 98 95 93 90 82 73 83 83 82 86 90 92 94 92 91 91 93 89 87 85 82 80
52 53 53 53 53 58 64 69 79 77 78 83 80 78 82 85 87 91 88 87 91 95 96 89 94 87 86 89 86 88 83 95 96 95 96 96 94 94 95 94 92 93 92
45 44 45 47 48 46 59 59 59 58 66 70 75 76 73 73 88 84 84 90 89 92 94 88 87 86 88 88 89 93 96 95 92 97 93 94 95 96 98 99 98 96 94
34 34 35 40 41 46 56 61 64 62 64 66 61 70 69 62 80 78 84 86 86 88 92 91 84 87 88 90 93 93 95 98 99 99 98 98 97 98 98 98 98 97 96
43 42 40 42 46 47 54 60 64 64 67 64 61 64 67 70 72 76 84 86 87 78 88 92 90 88 90 90 94 94 97 96 98 100 99 99 99 99 98 98 97 96 95
47 47 48 50 52 49 50 60 63 69 70 67 64 66 65 69 70 80 72 80 82 89 89 91 90 90 89 85 90 94 93 93 95 94 97 98 99 99 99 98 98 98 98
51 53 54 55 56 48 42 58 62 66 66 64 65 65 66 72 71 59 64 84 83 88 88 89 89 88 86 89 89 88 91 90 90 98 98 98 98 98 96 96 97 97 97
59 60 62 63 64 47 54 56 59 72 74 73 74 71 70 71 64 56 63 64 66 77 84 90 90 90 88 86 85 89 90 93 98 96 95 95 99 98 95 94 95 97 96
66 70 71 71 70 69 58 59 60 75 81 84 83 80 72 55 71 70 64 61 64 59 60 77 87 85 85 80 85 88 89 93 91 83 86 92 95 97 96 98 99 98 97
65 68 72 72 74 63 60 58 58 76 83 84 84 79 75 74 71 67 74 78 78 77 74 67 77 81 84 76 77 79 84 87 87 86 85 98 94 98 99 98 98 99 99
75 74 71 72 72 70 64 58 56 78 83 83 73 66 66 65 63 59 68 80 79 77 64 65 66 66 63 63 66 78 88 94 87 84 92 95 98 99 99 99 99 98 98
73 78 75 76 69 70 60 55 56 65 74 71 65 65 66 63 61 60 67 77 88 86 87 85 84 75 73 78 70 86 92 98 96 88 91 98 99 100 99 98 99 99 98

GFSMA_sfc_rhum_120.txt.gz
RH
86 82 77 78 94 96 96 98 98 98 97 96 94 91 94 96 92 80 80 86 87 84 76 74 75 76 76 76 75 75 75 75 75 74 74 74 73 72 72 71 70 70 71
97 96 92 92 92 96 96 96 98 98 97 96 94 87 81 86 84 78 76 75 90 88 82 78 75 74 75 74 74 76 77 77 77 77 77 77 77 76 75 74 74 74 73
96 96 96 98 95 98 97 98 98 99 98 98 97 91 80 76 75 76 73 76 84 90 87 81 79 78 77 70 70 72 78 82 82 81 79 80 82 83 80 79 78 77 76
92 95 97 97 94 97 99 99 97 97 96 96 96 97 92 82 72 68 64 69 78 75 85 86 82 80 80 77 71 70 78 83 86 86 86 86 86 87 85 83 83 82 80
89 97 96 95 96 97 98 98 99 98 96 95 96 98 98 96 94 87 89 74 64 71 71 82 89 86 84 82 74 69 74 80 85 88 88 88 88 89 87 86 88 86 84
95 98 96 95 95 99 98 99 98 99 98 98 99 99 98 98 98 98 97 93 90 60 68 69 76 81 90 85 81 75 73 76 79 85 88 89 89 89 87 86 87 86 84
88 94 95 94 97 98 97 97 98 98 99 97 97 97 98 98 97 95 96 95 84 67 58 61 65 70 69 87 84 81 78 75 78 80 84 88 88 89 87 84 85 86 84
87 88 88 91 90 97 99 99 98 99 98 97 98 97 97 96 98 95 92 90 87 85 79 60 60 59 65 64 75 84 82 76 73 76 81 84 88 87 85 83 84 85 86
93 95 97 95 95 97 97 96 96 97 93 98 95 92 98 97 97 97 95 90 87 86 81 77 74 66 63 67 75 78 86 83 78 73 76 80 85 87 85 82 82 83 84
86 88 95 96 94 91 94 93 91 92 98 96 99 99 98 94 95 94 90 94 90 90 90 91 84 76 69 66 70 75 77 85 80 74 71 75 78 84 80 82 81 83 83
86 87 88 91 94 93 93 96 96 98 98 98 99 97 99 99 99 98 97 94 91 88 87 87 86 77 74 71 73 76 82 79 76 74 71 69 73 76 79 80 82 84 84
88 85 87 90 91 95 93 95 98 98 98 97 98 98 99 99 99 99 98 95 94 91 93 88 79 76 75 74 74 76 80 81 77 76 70 70 72 71 76 80 81 83 83
85 86 83 86 88 88 93 92 96 97 97 97 96 96 94 93 92 95 98 97 98 86 85 77 73 70 71 78 73 79 78 81 79 76 69 68 71 72 75 77 80 82 82
82 74 80 78 75 78 80 88 93 94 94 95 90 88 89 88 88 93 93 94 96 92 91 85 81 78 78 79 86 88 80 83 81 79 75 75 76 77 81 78 77 81 81
48 56 58 64 63 70 75 80 85 85 84 85 89 91 88 88 91 86 86 89 93 95 94 93 94 82 77 80 82 84 87 88 88 86 84 81 84 87 89 87 76 82 85
55 54 50 50 50 55 61 67 71 71 77 84 84 84 84 83 92 85 89 88 90 89 92 90 86 83 80 77 76 83 84 92 93 90 89 89 94 95 95 96 95 92 90
50 51 51 51 50 54 58 59 59 63 63 64 71 76 77 76 87 83 88 90 88 92 91 86 85 81 83 84 86 87 88 90 90 96 97 95 94 94 94 95 92 96 98
45 45 46 47 47 51 62 67 68 72 75 75 76 77 79 70 84 83 86 88 86 86 88 88 82 87 84 86 87 83 88 86 91 88 92 94 98 98 97 95 95 97 99
51 51 51 53 54 54 60 66 71 74 75 75 74 76 75 76 81 84 88 86 92 82 91 94 91 87 88 86 88 87 83 85 78 84 84 91 93 97 99 99 99 99 99
58 59 59 60 61 55 54 64 70 77 78 73 72 75 74 76 79 84 74 87 81 89 86 90 91 91 89 86 86 86 84 80 83 69 90 92 92 95 96 96 99 100 100
59 62 64 66 66 55 53 70 72 79 81 80 80 74 72 74 68 58 76 83 80 85 90 90 90 90 88 86 88 87 87 84 80 94 87 87 90 89 91 93 98 99 99
66 67 69 70 70 54 60 60 66 78 79 82 84 83 79 72 71 63 60 59 62 75 84 90 91 88 83 86 85 88 90 92 91 88 83 80 75 85 89 91 95 97 98
72 74 74 74 73 71 59 59 59 76 81 85 86 86 77 60 76 75 70 61 63 60 60 76 82 84 85 78 84 86 88 92 92 82 87 92 83 89 84 88 92 95 97
75 75 76 76 77 66 62 59 56 73 79 82 84 83 80 79 77 69 77 83 79 78 78 72 81 82 84 82 85 82 86 89 84 82 86 93 88 88 83 89 88 93 95
79 78 78 79 81 77 62 57 64 80 82 84 77 75 74 77 69 62 74 80 80 80 66 67 68 71 68 61 67 81 93 94 91 87 81 89 95 91 91 91 91 88 94
74 78 74 78 65 75 67 60 64 74 80 77 76 76 69 66 65 64 72 83 89 84 88 86 89 86 72 79 69 86 97 96 88 92 91 93 88 96 98 95 95 94 94

GFSMA_sfc_rhum_123.txt.gz
RH
88 94 95 89 93 94 95 96 98 98 97 97 97 96 96 96 96 90 90 87 84 83 80 76 75 76 75 75 75 75 76 75 75 74 75 75 74 73 72 72 71 71 71
96 96 96 96 96 92 92 92 95 97 98 98 97 97 93 93 94 91 87 85 86 85 84 82 78 76 75 74 74 75 78 77 76 76 76 76 77 76 74 74 74 74 73
95 95 95 96 96 94 93 98 98 98 98 96 97 97 92 90 92 93 93 89 82 89 88 84 81 80 78 73 72 71 78 82 81 81 78 79 81 82 79 78 77 77 77
91 92 94 96 95 97 97 97 97 97 96 94 93 95 96 94 91 90 87 82 76 75 88 88 84 81 81 78 71 69 67 76 84 85 85 85 85 86 83 82 82 82 80
87 96 97 96 96 97 94 95 94 96 96 97 97 96 96 96 92 89 92 86 78 78 81 82 90 90 80 82 76 69 72 79 83 86 86 87 88 88 86 84 86 85 84
92 93 92 94 96 95 89 91 97 93 95 94 96 94 94 94 97 97 94 92 93 96 92 87 90 88 89 81 74 75 73 75 78 84 87 87 88 89 86 85 85 85 85
90 92 95 93 97 94 84 87 94 97 96 99 98 98 100 95 98 98 98 96 93 91 96 94 93 87 84 88 81 74 77 74 76 79 83 87 88 89 87 85 86 85 84
84 83 88 93 95 96 89 85 93 93 98 99 96 98 98 98 97 96 96 95 94 95 96 93 92 89 85 73 75 84 76 74 71 75 77 81 87 89 86 85 85 85 86
85 86 88 91 94 95 86 84 92 94 96 98 96 95 99 95 98 95 95 92 94 97 94 92 93 91 89 88 82 78 86 84 78 71 74 76 80 86 86 86 84 84 86
83 83 87 90 92 94 95 90 88 95 97 96 99 96 98 94 95 95 96 98 96 94 92 93 91 88 81 80 82 86 86 90 81 74 69 73 75 78 82 84 86 84 84
79 76 81 88 91 94 93 97 97 96 97 95 98 99 98 98 98 97 97 95 96 97 97 95 95 92 85 85 84 84 87 85 76 71 70 69 69 70 72 79 83 85 84
80 75 78 82 83 89 93 95 94 96 96 95 95 94 90 96 99 99 99 97 96 92 96 95 96 94 91 93 90 90 89 86 80 74 70 68 70 73 73 72 76 82 86
79 85 81 84 83 82 86 88 91 93 94 95 96 98 96 97 95 96 98 97 97 92 91 96 92 94 84 84 90 87 89 89 87 82 76 70 72 76 77 74 73 72 77
81 67 70 78 84 86 79 82 88 91 89 94 95 96 96 96 94 93 94 94 96 94 95 96 85 74 65 73 78 81 80 85 84 87 89 84 82 81 82 80 77 76 76
50 61 62 60 63 73 78 75 80 84 85 88 92 94 94 96 89 88 88 90 93 96 95 93 93 81 78 76 77 83 83 84 88 90 92 94 91 88 86 85 82 79 76
57 60 60 61 58 62 60 64 68 68 72 82 81 82 83 91 83 84 94 91 90 92 95 90 90 87 80 68 75 83 76 91 90 86 86 91 93 95 92 90 88 90 91
56 57 58 60 59 67 70 70 66 69 69 70 73 77 78 78 81 84 92 89 93 96 97 92 86 80 79 84 80 79 86 82 88 79 78 81 92 94 96 96 96 96 95
54 55 56 58 56 61 70 75 76 76 78 77 78 82 79 63 81 84 93 84 93 94 95 96 85 91 89 83 84 83 76 70 79 68 66 86 89 92 93 96 98 97 98
58 60 61 64 63 60 66 72 77 79 78 78 80 81 81 80 85 90 88 95 93 84 96 98 98 95 94 92 85 84 78 76 68 65 59 81 84 83 84 90 93 97 99
63 65 66 67 67 63 63 72 74 80 81 80 80 80 79 83 86 79 89 90 84 91 93 96 96 95 94 89 91 89 86 81 80 61 75 66 64 66 66 80 89 96 99
66 69 70 71 71 62 56 75 77 82 82 83 82 80 77 73 68 67 78 86 82 87 91 92 92 93 91 85 91 88 90 85 79 88 82 76 79 79 76 72 82 89 94
71 72 73 76 75 57 64 60 68 80 80 83 84 84 81 70 74 66 67 61 65 78 83 91 90 91 88 87 88 88 90 92 91 85 86 86 82 83 82 85 82 88 91
76 76 76 77 77 76 63 58 58 77 81 87 86 86 77 63 80 79 74 69 68 65 64 80 90 90 89 84 89 94 93 93 91 83 86 88 82 86 77 78 77 81 81
78 78 79 80 82 70 63 58 65 81 85 85 86 86 86 84 84 74 77 82 84 80 81 76 83 85 89 85 90 86 90 94 92 84 85 94 80 93 83 78 68 85 87
79 79 79 83 83 78 67 61 69 83 81 83 80 82 83 83 70 65 76 86 83 82 69 69 70 69 70 71 66 87 93 99 91 82 85 91 90 81 77 81 94 74 76
73 76 74 78 74 79 71 64 67 80 84 83 83 86 70 66 63 62 71 85 95 94 92 92 93 88 84 80 69 85 96 97 98 96 88 93 88 95 93 90 85 76 81